GFSFLT2_sfc_wetblb_000.txt.gz
Wetbulb
69.58 70.10 68.94 67.62 66.84 66.57 66.86 67.40 67.76 68.34 68.32 68.57 68.82 68.92 68.87 68.93 68.70 68.83 69.42 69.39 68.89 68.53 67.74 67.25 66.34 65.98 66.18 65.90 65.79 66.08 67.59 66.73
68.26 69.68 69.43 69.52 69.25 64.18 64.42 65.17 66.04 66.72 67.86 67.09 66.24 66.75 67.57 67.49 66.71 67.23 68.01 68.32 68.10 67.87 66.94 66.41 65.76 65.48 64.79 64.20 64.66 65.19 67.64 66.85
66.59 68.20 68.60 68.19 67.23 65.21 66.56 66.06 65.59 65.41 66.27 65.24 66.11 68.13 66.72 66.39 62.33 62.52 64.97 66.07 66.36 66.84 66.34 65.59 64.93 64.29 63.14 62.52 62.87 65.54 66.34 66.76
62.09 64.95 66.03 66.94 65.48 66.22 69.11 68.70 68.51 67.98 67.93 67.38 67.88 66.43 65.24 63.14 61.14 61.24 60.32 60.50 59.65 64.93 64.80 64.31 63.56 65.68 64.12 59.41 62.10 61.17 62.42 63.20
58.71 60.80 62.89 65.45 66.35 68.32 68.02 65.55 66.31 66.19 65.96 66.02 65.76 62.79 61.42 64.31 60.91 60.27 59.55 59.06 60.20 58.74 64.20 64.46 64.69 65.14 63.90 62.93 58.97 57.91 60.16 61.00
55.67 59.03 61.70 62.95 64.33 64.42 64.20 63.49 62.81 62.94 64.12 65.41 65.48 64.28 64.55 61.86 61.31 60.33 58.54 59.47 59.08 59.57 60.94 61.27 63.10 64.95 62.96 60.67 61.35 59.57 60.03 59.22
53.90 56.40 58.62 60.04 61.41 60.87 60.68 60.23 59.53 59.87 60.27 62.29 63.39 63.49 63.12 63.28 60.00 60.16 59.15 60.33 60.19 59.40 60.66 61.57 61.44 62.01 61.91 61.54 61.72 60.75 59.45 58.99
52.43 53.89 56.75 57.61 58.96 58.70 57.70 57.31 56.77 56.74 57.65 59.46 61.22 61.79 62.72 63.13 60.06 59.15 60.78 61.49 61.80 60.78 60.77 60.90 61.40 61.77 62.01 63.05 62.75 62.61 60.75 60.53
52.10 52.75 54.81 55.51 56.26 55.83 55.10 54.33 54.37 54.89 56.39 58.97 59.22 59.82 60.44 60.10 59.21 57.65 57.86 59.75 60.52 61.28 61.09 61.73 62.36 62.18 61.54 61.78 61.61 61.93 61.90 60.64
51.30 50.21 52.98 53.73 54.24 54.18 53.64 53.72 53.87 54.59 56.32 56.67 56.78 56.74 57.02 56.99 57.03 56.57 57.14 57.49 56.67 55.53 54.48 55.68 58.28 59.11 59.26 59.69 60.14 61.35 61.82 61.99
50.84 51.57 51.53 51.90 52.49 53.10 53.77 53.90 53.45 53.77 54.82 54.47 54.41 54.02 54.07 53.81 54.18 54.65 54.40 53.61 54.06 53.37 52.87 55.17 54.75 54.79 56.02 60.28 59.22 58.51 61.70 60.72
50.93 51.09 51.02 51.25 51.63 51.86 52.36 52.75 53.28 53.62 53.13 52.95 52.96 53.26 52.90 52.98 52.88 53.16 52.41 51.04 49.93 50.13 50.13 51.18 52.38 53.86 51.98 55.00 59.42 61.43 61.53 60.42
50.27 50.28 50.82 50.63 50.28 50.19 50.47 50.48 51.52 52.65 52.78 51.96 52.07 52.62 51.99 52.67 51.87 51.02 51.56 50.65 50.18 49.85 49.05 48.54 48.61 50.96 48.99 51.60 54.78 58.99 60.15 59.05
50.08 50.01 50.54 50.57 50.54 51.07 51.57 51.04 51.11 52.23 52.31 51.91 51.91 51.73 51.71 51.23 50.43 50.22 50.60 49.46 49.80 49.80 49.16 47.34 47.15 48.91 45.99 45.74 48.87 54.63 57.73 57.53
50.41 50.29 50.08 50.49 50.47 50.15 50.08 49.97 49.85 49.40 49.94 50.57 51.64 51.99 52.10 51.99 51.40 50.78 50.53 50.25 48.90 49.18 49.15 47.93 45.59 47.08 47.35 46.02 42.42 45.02 46.87 54.23
51.02 50.41 49.85 49.82 50.73 49.39 49.10 48.06 47.21 48.64 49.26 49.94 50.37 51.09 51.48 51.66 51.56 51.58 51.44 50.76 49.43 48.92 48.43 48.41 47.59 45.52 46.63 46.62 48.48 45.71 41.12 41.79
51.37 50.29 49.62 49.58 49.61 49.92 48.94 48.37 48.51 49.15 49.04 49.00 49.56 50.12 50.26 50.36 50.59 51.09 51.02 50.73 50.09 49.68 49.31 48.28 47.73 46.46 45.72 45.58 45.62 45.26 45.04 43.32
50.71 49.61 48.98 49.36 49.35 49.19 48.56 47.92 48.01 46.97 47.36 46.76 47.04 47.52 47.92 48.22 48.35 48.45 48.60 48.60 48.43 48.56 48.92 48.73 48.16 47.46 46.62 45.97 44.42 42.89 42.36 42.23
49.15 48.59 47.84 48.56 48.07 48.02 47.98 47.72 47.35 45.82 44.97 45.42 44.47 43.97 44.60 45.30 45.53 45.30 45.18 45.42 45.57 45.80 45.96 46.17 46.69 46.02 46.17 45.43 45.62 44.70 44.72 43.25
49.02 47.60 47.10 47.86 46.92 46.72 46.83 45.91 44.94 44.98 42.88 43.99 43.12 42.31 41.77 43.11 42.76 43.10 43.59 43.65 43.80 43.88 43.67 44.30 44.93 46.37 45.85 46.40 45.67 44.71 44.68 43.92

GFSFLT2_sfc_wetblb_003.txt.gz
Wetbulb
70.39 70.78 69.11 67.19 66.27 65.51 65.57 66.52 66.70 67.49 68.02 68.08 68.30 68.42 68.21 67.56 65.34 65.58 66.03 66.90 66.57 67.06 67.24 66.69 65.64 65.96 66.18 66.33 66.23 66.28 66.73 66.79
69.31 70.00 69.70 69.91 69.47 64.41 65.06 65.48 65.68 66.30 66.89 66.21 66.20 67.26 66.87 63.65 63.70 62.85 62.70 62.79 62.21 64.00 65.54 65.52 65.25 65.26 65.11 64.74 64.59 65.32 66.60 65.92
68.91 69.35 69.37 68.36 67.22 65.80 66.00 66.53 65.58 65.87 65.81 64.62 64.80 68.20 66.78 66.23 62.46 62.27 62.22 61.79 61.20 61.00 58.88 63.14 64.39 64.44 63.93 64.06 63.62 64.95 65.68 66.03
64.30 66.83 68.10 68.04 66.69 66.19 68.67 68.19 67.65 67.71 67.79 67.53 67.74 67.27 66.90 65.89 63.94 62.32 61.89 61.32 60.06 59.23 58.03 58.28 62.78 65.17 64.28 62.28 61.85 63.22 64.33 65.16
61.94 64.39 66.37 67.73 67.26 67.43 66.81 67.18 67.20 66.82 67.04 66.75 66.01 65.28 65.27 65.15 65.28 65.18 64.26 60.55 62.05 58.60 57.80 57.51 57.39 58.43 60.85 63.32 62.67 62.68 63.05 63.78
59.76 62.70 65.26 65.49 66.57 66.65 66.25 65.23 64.95 64.68 65.42 65.45 65.04 64.07 64.09 64.70 63.35 63.49 63.39 62.81 61.09 59.34 58.17 58.10 57.78 58.39 58.50 60.58 61.80 62.42 63.25 63.82
58.21 60.35 62.73 64.64 63.96 63.03 62.47 61.61 60.90 61.19 61.80 62.34 62.97 62.47 62.66 63.57 62.09 61.67 61.04 61.72 60.96 60.80 59.14 58.05 59.85 60.30 60.62 59.69 60.94 62.27 62.32 61.94
57.51 59.31 60.48 61.59 61.74 60.89 59.67 59.39 58.32 58.54 59.36 60.32 61.64 61.76 62.23 61.92 61.83 60.90 59.93 61.14 61.93 62.08 61.38 61.03 60.90 60.75 60.14 61.13 61.80 61.87 62.77 62.78
56.71 57.50 59.14 59.26 58.94 58.01 56.92 55.95 56.65 57.27 58.30 59.38 59.18 59.18 58.99 58.21 57.92 57.67 57.93 58.97 59.13 58.21 56.59 59.38 61.15 61.45 61.26 61.22 61.27 62.20 62.96 62.44
55.83 52.81 55.95 56.54 56.76 56.30 55.63 55.48 56.10 56.88 57.53 57.43 57.17 56.70 56.85 57.12 56.67 56.00 55.84 56.36 56.15 55.29 55.43 55.58 57.03 58.51 57.36 59.41 60.84 61.06 61.32 61.74
54.35 54.35 54.46 54.92 55.17 55.05 55.99 55.75 55.15 55.73 56.24 55.53 55.54 54.74 54.41 54.66 54.40 54.35 53.94 52.83 52.21 51.09 50.84 52.40 51.68 54.12 54.95 54.71 56.38 60.42 61.31 60.76
54.19 53.86 53.87 54.04 53.71 54.32 54.37 54.48 54.57 54.79 54.58 54.27 54.41 53.60 53.22 53.40 53.70 53.73 52.89 51.85 51.13 50.92 50.25 50.21 49.63 50.31 50.09 50.07 53.63 58.58 60.64 61.25
53.15 53.05 53.26 52.83 52.20 51.60 51.88 52.01 52.80 53.40 53.51 53.29 53.17 53.10 52.65 53.10 52.21 52.04 52.36 51.03 51.09 51.39 50.50 49.82 48.82 49.89 48.08 49.38 50.32 53.58 56.77 60.97
53.23 52.87 52.95 52.61 52.40 52.67 52.85 52.82 52.48 53.15 53.44 53.53 53.63 53.29 53.17 52.37 51.95 51.38 51.44 50.73 51.41 51.10 50.24 48.31 49.10 50.39 46.20 45.52 44.47 48.10 52.34 54.30
53.46 53.08 53.12 52.90 52.82 52.16 51.74 51.94 51.66 50.71 51.12 51.76 52.97 53.48 53.30 52.97 52.56 51.89 51.71 51.35 49.79 50.76 50.11 48.89 46.27 49.13 50.85 46.11 41.68 41.68 46.50 48.61
54.65 54.04 53.32 53.04 53.01 51.38 51.66 49.44 48.68 50.30 51.42 51.12 51.16 52.51 52.54 52.55 52.19 51.66 51.36 50.93 50.34 50.64 50.07 50.44 49.58 46.36 48.82 48.49 50.13 47.41 41.78 40.88
54.99 54.28 53.45 53.12 52.48 52.33 51.17 49.96 50.67 50.27 50.53 50.60 50.81 51.28 51.58 51.09 51.17 50.90 50.52 50.20 50.63 51.45 51.11 50.81 49.83 48.88 47.85 47.38 48.18 47.80 47.95 44.64
55.02 54.16 53.23 52.97 52.34 51.53 50.86 49.76 50.23 49.12 49.56 48.66 49.30 49.62 49.63 49.96 48.43 48.89 48.79 48.46 48.04 49.34 50.28 49.63 49.21 49.03 49.06 48.11 46.89 45.62 44.07 44.81
54.08 53.41 52.49 52.60 51.96 51.58 51.50 51.05 49.97 48.81 47.73 46.77 46.02 45.07 45.54 45.99 46.57 46.67 45.35 45.54 45.66 46.05 46.56 46.79 46.25 45.63 46.70 46.83 47.34 46.94 47.36 46.36
53.45 52.60 51.76 51.92 51.60 50.84 50.47 49.81 48.30 47.86 46.64 44.72 43.98 44.18 44.57 44.96 44.48 44.22 43.82 43.84 43.87 44.67 44.75 45.04 45.70 45.53 45.80 45.93 45.96 46.92 47.61 47.06

GFSFLT2_sfc_wetblb_006.txt.gz
Wetbulb
69.39 68.98 68.33 67.43 66.56 66.18 66.51 66.97 67.59 67.87 68.18 67.93 68.29 68.38 67.19 66.49 66.52 65.76 65.00 65.22 65.89 66.83 66.88 66.98 66.79 66.82 66.56 66.48 65.68 65.92 64.36 64.48
68.15 69.20 69.01 66.84 64.85 64.82 65.33 66.47 66.86 67.10 67.53 67.29 68.13 67.08 65.52 64.66 64.52 64.36 63.88 64.61 62.79 62.31 61.37 63.93 65.99 65.74 65.39 65.30 64.92 64.90 63.47 63.58
67.88 67.64 68.82 68.28 67.44 65.17 65.83 66.22 66.46 66.07 65.78 66.32 64.88 66.87 65.78 64.07 63.29 63.45 62.77 62.12 62.13 60.80 59.81 60.32 61.59 63.31 64.84 64.94 64.26 62.33 61.91 62.72
63.28 65.45 66.64 67.37 66.79 65.38 67.87 67.30 66.69 66.45 66.42 65.83 65.75 65.34 63.91 63.67 62.99 62.74 62.11 61.09 60.33 59.71 58.94 58.49 58.69 57.99 59.70 63.18 61.13 59.93 59.74 62.01
61.53 64.35 66.17 67.27 66.77 66.57 66.20 65.78 65.75 65.58 65.51 65.15 64.22 63.06 62.84 62.83 63.16 62.66 62.33 59.88 59.68 58.63 58.01 57.10 56.58 58.01 57.57 59.02 60.45 60.63 60.64 59.21
60.73 63.85 64.91 65.07 64.76 64.25 64.37 63.34 63.65 62.98 63.26 63.60 62.98 62.22 61.22 61.07 60.88 59.76 59.90 60.24 59.70 59.10 57.06 56.26 56.20 57.54 57.47 57.21 58.47 60.53 61.05 61.12
59.51 61.64 62.88 64.10 63.26 62.58 61.92 60.91 59.82 59.75 60.35 60.28 61.31 60.32 60.27 60.31 59.13 58.68 58.61 58.89 58.35 58.49 57.53 56.95 56.48 57.65 58.13 58.25 57.74 58.15 60.15 60.82
59.60 59.84 61.53 61.71 62.00 61.31 59.98 59.16 57.74 57.72 58.19 58.96 60.02 59.90 59.61 59.46 58.13 57.65 56.73 57.33 57.61 58.63 58.53 58.99 58.94 59.00 58.52 59.58 59.17 57.99 59.06 60.43
57.79 58.68 59.97 59.64 59.69 58.60 57.88 56.55 56.44 56.32 57.16 57.46 57.32 58.15 56.16 55.53 55.09 54.53 54.87 55.46 55.23 55.44 55.23 55.54 56.75 59.17 58.98 59.57 59.91 59.81 59.87 60.51
56.91 55.88 57.08 57.17 57.39 55.81 55.53 55.08 55.53 55.89 56.86 56.44 55.76 55.62 55.30 54.31 53.51 53.04 52.44 52.95 52.05 50.42 50.09 50.62 52.78 54.18 55.94 55.76 56.01 57.89 59.49 59.58
55.56 54.98 54.36 55.44 55.42 54.89 54.89 54.99 54.33 54.96 55.84 54.70 54.49 53.76 53.68 52.01 51.98 52.15 51.21 50.05 49.30 48.29 47.49 47.26 46.48 47.29 48.14 50.88 50.40 51.97 54.75 58.47
55.41 54.74 54.56 54.95 54.13 54.03 53.89 53.76 53.78 53.65 53.70 53.28 53.35 52.49 52.26 50.91 51.39 50.80 50.45 49.28 48.58 48.22 47.58 47.45 47.21 46.67 47.35 46.36 46.65 48.36 53.03 56.42
54.01 53.37 53.87 52.73 51.92 51.04 50.91 50.79 51.92 52.56 52.83 53.14 52.91 52.31 52.26 51.05 50.33 49.77 50.14 49.08 48.34 48.09 47.41 46.25 45.86 47.09 45.08 43.82 44.40 45.85 46.32 49.33
53.77 53.43 53.43 52.75 51.78 51.56 51.68 51.92 51.61 51.80 52.32 52.11 52.15 52.71 51.78 51.32 50.45 48.90 49.12 47.93 47.93 48.16 47.54 45.26 45.86 45.98 43.79 42.80 39.67 41.90 45.57 46.09
54.31 53.38 52.93 52.87 51.97 51.57 51.48 51.32 50.19 49.29 49.63 50.02 51.36 51.91 52.21 51.74 50.85 49.71 48.83 48.46 47.44 46.91 46.05 45.60 43.33 44.73 44.87 42.62 39.03 37.71 41.06 43.87
54.69 54.08 53.15 53.02 53.04 50.42 49.63 48.15 46.57 47.88 48.26 49.30 49.90 51.72 51.28 51.12 50.73 50.41 49.07 48.33 47.28 47.51 47.94 46.74 44.93 42.42 44.31 46.41 43.95 42.91 39.60 38.38
54.51 54.16 53.69 53.26 52.63 51.43 49.61 48.41 48.41 48.75 48.84 49.43 49.20 49.16 50.08 50.03 49.87 49.45 47.91 47.54 47.03 45.96 45.57 45.44 45.27 43.91 43.35 42.90 42.64 43.14 43.04 40.69
54.74 53.82 53.14 53.27 52.50 51.72 50.06 47.84 48.20 47.64 47.59 46.43 47.30 47.69 47.35 48.27 47.25 45.96 45.75 45.14 44.21 43.61 43.24 43.09 42.96 42.88 42.66 42.72 41.91 40.33 40.03 39.71
54.41 53.46 52.20 52.71 52.45 51.80 50.38 49.41 48.54 47.59 47.45 46.45 46.01 44.49 44.25 44.21 44.44 43.79 43.24 43.00 43.08 42.69 41.62 40.97 41.10 40.90 40.48 40.45 41.11 41.02 41.82 40.97
53.19 52.45 51.65 52.25 51.93 51.52 50.63 49.93 48.13 47.71 47.29 45.99 43.65 43.00 43.24 44.02 43.04 43.00 42.86 42.76 41.96 41.42 40.74 40.35 40.15 40.00 39.67 40.46 40.81 41.06 41.41 41.13

GFSFLT2_sfc_wetblb_009.txt.gz
Wetbulb
65.54 66.72 67.17 66.60 66.06 65.95 65.76 66.11 66.98 67.48 67.52 67.43 67.70 66.79 66.65 66.63 66.57 66.27 66.64 66.39 66.69 66.35 66.62 66.44 66.62 66.20 66.14 65.57 65.05 65.29 64.20 63.68
64.36 65.55 65.20 63.81 63.22 64.75 65.25 65.41 65.68 66.55 66.97 66.81 65.91 65.20 65.18 65.18 64.74 65.40 64.98 64.99 64.39 63.86 64.45 65.16 65.07 64.70 64.70 64.43 64.43 64.39 63.08 62.28
60.75 61.98 64.56 63.07 62.09 63.76 64.88 65.56 65.58 65.69 65.69 65.53 64.88 63.87 63.20 62.30 63.59 63.72 63.11 62.85 62.06 61.17 61.31 62.56 61.18 61.30 62.28 63.02 63.49 61.63 60.92 61.06
59.20 60.53 61.66 62.88 65.23 62.91 63.13 64.76 64.03 63.83 64.49 62.82 63.26 63.88 63.09 61.66 62.74 62.91 62.46 61.35 60.87 59.92 59.00 58.70 57.91 56.87 57.85 62.09 59.78 59.29 59.28 59.41
58.02 60.64 61.62 61.73 61.80 63.37 63.21 62.00 62.34 61.85 61.71 61.91 60.28 60.51 60.16 60.89 60.16 60.26 59.13 59.82 57.51 57.47 56.88 56.23 55.23 55.77 56.13 56.70 58.10 57.71 58.31 59.59
57.72 59.48 60.18 59.77 59.13 59.83 59.83 60.50 59.66 59.84 60.09 60.54 59.17 59.04 58.17 58.19 57.89 57.93 57.28 57.32 56.31 56.31 55.20 54.85 53.90 55.35 55.81 55.83 56.50 57.69 58.49 58.84
55.57 58.10 58.51 59.72 57.72 57.06 56.27 55.55 55.42 55.55 56.53 56.69 57.13 57.18 57.43 57.17 56.53 55.48 56.42 56.34 56.84 55.71 55.36 54.71 54.53 55.01 55.79 55.93 56.53 57.37 57.69 58.47
54.00 55.71 56.81 57.25 56.61 55.60 54.47 53.15 53.05 53.16 54.24 55.35 56.64 55.90 55.61 55.90 55.60 55.00 54.23 54.66 54.97 54.32 53.64 55.51 55.64 57.05 57.71 57.38 57.70 57.76 57.12 57.77
53.18 53.46 55.03 54.76 55.35 54.40 52.91 52.12 53.10 52.15 53.28 53.75 53.28 54.73 52.52 51.85 51.40 51.14 50.95 52.36 53.02 51.89 51.69 51.91 52.23 54.16 55.05 57.09 57.98 59.36 59.15 58.46
52.24 54.89 53.70 53.09 53.10 52.63 51.98 49.80 50.19 51.52 52.62 52.40 52.30 52.54 52.56 50.91 50.38 49.16 48.73 49.07 48.73 45.49 45.24 44.14 45.13 44.97 46.23 50.16 54.07 54.05 54.46 55.15
50.21 48.67 49.95 50.38 49.89 49.76 49.36 49.64 49.37 50.55 52.04 51.10 51.48 51.39 50.99 48.14 49.31 48.58 48.09 47.54 46.21 46.19 44.91 44.46 43.10 43.18 43.89 43.56 43.53 44.42 47.17 50.42
49.85 49.08 48.86 49.87 48.96 48.02 48.30 47.97 48.18 49.09 50.31 50.31 50.85 50.02 49.87 47.41 48.06 48.16 47.61 46.37 45.81 45.47 44.48 44.97 44.43 43.66 46.20 45.13 42.58 44.69 44.82 46.13
49.00 48.45 48.61 47.92 46.54 45.98 45.64 46.20 47.32 47.46 47.66 49.90 49.59 49.21 48.84 47.39 46.36 47.11 47.06 45.76 45.41 45.08 44.82 43.56 42.75 43.86 42.13 41.89 41.88 42.99 43.12 43.58
48.14 48.51 48.21 47.62 47.07 46.27 46.13 45.86 46.58 47.14 48.09 48.04 49.07 48.63 48.42 47.54 46.94 45.71 45.63 44.92 44.27 44.45 44.99 43.21 43.29 43.09 41.53 39.87 37.12 40.14 41.66 43.46
49.48 48.69 48.32 48.07 47.55 46.71 46.21 46.01 45.64 45.03 46.02 46.34 47.13 48.27 48.48 48.04 47.12 46.37 45.58 45.07 44.01 44.26 43.44 42.57 40.62 42.58 42.21 40.53 37.58 35.86 39.26 41.69
49.58 49.88 49.08 48.64 47.78 45.61 45.09 44.69 43.58 44.48 45.05 45.37 46.16 48.04 48.53 48.86 48.37 47.13 45.93 45.21 43.86 43.94 45.57 43.90 42.49 40.16 41.92 44.57 42.09 41.25 38.75 37.45
49.94 50.06 49.78 49.77 47.88 46.47 44.86 44.38 45.32 45.88 45.94 45.55 45.30 46.88 47.93 48.36 46.95 46.35 45.39 45.00 43.89 42.25 40.84 40.98 42.08 41.31 41.03 40.52 40.25 40.82 40.32 38.72
48.98 48.83 49.52 49.84 49.23 48.20 46.71 45.30 45.89 44.62 44.35 44.08 44.76 45.60 44.78 44.39 44.08 42.39 42.35 41.19 41.39 40.37 39.81 39.77 38.31 39.00 40.09 40.18 39.18 37.73 37.63 37.54
47.64 47.92 48.34 48.91 48.34 48.07 47.76 47.31 45.92 45.01 44.26 43.39 42.36 42.48 41.91 41.64 41.88 41.50 41.25 41.73 41.48 41.34 40.52 39.64 38.69 37.80 37.46 38.47 39.25 39.10 39.17 38.13
47.29 48.29 48.56 48.37 47.78 47.54 47.56 47.35 47.00 46.22 45.49 43.87 41.18 40.59 41.51 41.42 41.16 41.14 40.88 40.93 40.99 40.96 40.29 39.44 38.32 37.37 36.68 36.59 38.25 38.86 39.77 39.26

GFSFLT2_sfc_wetblb_012.txt.gz
Wetbulb
64.93 65.67 66.59 66.63 65.79 65.69 65.43 66.44 66.95 67.33 67.54 67.79 67.08 66.65 66.72 66.54 66.58 66.91 66.75 66.89 66.78 66.66 64.59 64.67 65.66 65.33 65.52 65.32 64.70 64.90 63.88 63.66
63.85 64.26 64.27 62.88 63.05 65.05 64.83 64.78 65.61 66.36 66.65 66.18 65.27 65.45 65.32 65.34 65.54 65.47 65.40 65.06 64.50 65.18 65.63 65.36 64.56 64.30 64.19 64.01 63.74 63.61 61.51 61.19
63.51 63.85 63.91 61.82 60.71 63.25 64.83 65.32 65.27 65.58 65.80 65.46 63.45 62.71 62.18 62.17 63.68 64.41 63.56 62.77 61.92 61.45 61.13 61.61 60.59 61.15 61.78 62.78 63.10 60.97 59.57 58.85
58.34 59.92 61.52 62.24 63.42 62.06 62.08 63.93 63.53 63.31 63.11 63.31 63.04 61.78 60.41 61.23 62.30 62.92 62.28 61.35 60.85 59.98 59.53 58.90 57.06 55.42 56.05 59.10 59.29 58.66 58.37 58.71
58.31 60.03 60.36 59.83 60.78 61.25 61.93 61.84 61.80 61.77 61.91 60.98 61.18 60.23 60.26 59.32 58.56 59.38 57.76 59.29 56.41 56.53 55.62 54.50 54.07 54.17 54.28 54.98 56.07 56.41 57.32 58.15
57.37 59.08 59.39 58.01 59.29 61.18 60.67 59.95 60.18 59.56 59.49 59.67 58.33 58.08 57.33 57.35 57.28 57.28 56.65 55.85 54.94 54.47 54.43 54.23 52.87 52.81 53.75 54.02 55.00 55.57 56.82 57.69
56.26 57.75 58.43 57.59 56.35 55.20 54.90 54.98 55.71 55.81 55.82 56.33 57.34 57.55 56.59 56.83 56.16 54.02 54.90 55.17 54.82 54.23 56.83 56.81 55.38 54.00 54.98 54.92 54.87 55.66 56.29 56.91
55.21 56.12 56.82 56.94 54.98 54.41 53.13 52.47 52.03 52.96 54.18 54.76 56.06 56.07 55.66 55.84 54.86 54.64 53.75 53.86 53.27 52.41 51.74 51.31 51.77 53.00 54.62 56.19 56.33 56.39 57.73 57.78
53.26 54.21 54.91 54.23 55.23 53.96 52.58 51.70 51.64 51.86 52.53 52.99 53.56 53.89 51.83 52.99 51.95 51.74 51.86 52.47 52.36 50.33 48.96 47.56 47.18 48.44 47.25 49.60 53.41 54.37 53.57 54.67
52.13 55.55 53.84 53.30 53.75 53.17 52.55 51.29 50.40 50.96 51.83 51.47 51.63 52.54 51.84 49.99 49.35 48.45 47.79 49.10 48.36 43.86 43.75 42.65 42.81 42.87 42.28 43.39 47.31 46.77 46.52 47.51
50.14 50.46 51.88 51.11 51.04 50.55 49.18 49.63 47.72 49.25 51.34 50.83 51.21 51.22 50.80 48.33 49.04 47.95 46.78 46.89 44.95 44.56 43.40 42.99 41.78 42.38 43.10 43.00 42.19 41.92 43.71 46.29
48.48 46.47 48.93 48.94 47.51 46.44 46.58 46.63 46.55 47.34 50.14 50.28 51.05 50.30 49.87 46.58 47.71 47.23 46.34 45.53 44.66 43.87 42.94 43.36 42.99 42.05 44.72 43.45 41.81 42.45 42.14 42.44
47.79 46.86 46.45 46.56 45.17 44.51 43.91 45.11 45.92 45.95 47.25 50.44 49.89 49.53 49.10 46.56 46.05 46.91 46.53 44.56 44.42 43.97 43.30 42.90 41.53 42.12 40.69 40.41 40.45 41.13 41.66 42.79
46.57 47.05 46.92 46.35 45.11 44.63 44.78 44.30 45.21 46.21 46.76 46.78 49.21 48.80 47.67 46.74 45.59 45.52 45.17 44.50 43.92 43.96 44.08 42.08 42.03 41.97 40.29 38.11 36.04 38.92 40.07 41.95
47.70 47.21 46.81 46.94 46.46 45.18 44.31 44.10 43.91 44.04 44.63 44.87 46.63 48.14 48.08 47.05 46.09 45.28 44.02 43.96 42.92 42.65 42.67 41.42 39.62 41.28 40.97 39.43 35.71 33.60 38.98 40.92
46.89 48.31 47.45 47.17 46.60 44.41 43.61 44.90 44.67 45.53 45.32 44.27 45.62 47.45 47.36 47.32 46.38 45.64 44.50 44.23 43.07 42.87 43.27 41.36 40.57 38.79 40.50 42.92 40.73 39.05 35.45 34.83
48.32 48.91 48.50 48.93 47.45 45.47 44.08 43.05 45.12 46.12 43.25 43.22 43.32 44.59 46.23 46.87 46.22 45.73 44.64 43.87 41.72 40.22 39.10 37.48 39.87 38.07 38.06 37.50 37.64 37.44 37.71 35.04
47.41 47.74 48.21 48.26 48.13 47.11 45.10 43.83 44.89 43.99 43.82 42.93 42.71 43.02 42.69 43.56 43.82 42.70 42.11 41.56 40.81 39.68 39.14 38.13 37.89 39.05 38.27 36.99 36.83 34.33 34.39 33.67
46.44 46.68 47.78 49.13 47.24 46.85 46.76 45.91 45.57 44.31 44.15 43.69 43.89 42.61 41.12 39.84 40.24 39.97 39.99 40.09 40.52 40.77 40.95 40.36 40.08 38.95 37.74 37.04 37.60 37.25 37.51 36.82
47.23 47.88 47.93 48.21 47.18 46.69 46.20 45.72 45.26 45.27 44.73 43.82 41.95 41.97 40.43 40.49 40.10 40.30 40.94 41.48 41.35 41.74 40.69 40.11 39.60 38.08 37.05 36.69 36.84 37.12 37.63 37.04

GFSFLT2_sfc_wetblb_018.txt.gz
Wetbulb
62.54 63.17 64.78 65.55 65.18 65.42 65.60 66.42 66.58 67.03 66.96 66.79 66.38 66.34 66.48 66.79 66.74 66.83 66.42 66.43 66.52 65.75 64.80 65.05 65.05 64.66 64.23 63.74 63.31 63.54 60.51 60.66
61.15 61.56 62.12 61.30 60.64 64.39 64.37 65.19 65.65 66.05 66.21 65.34 64.79 64.61 65.01 65.50 64.63 64.96 64.31 63.84 63.60 63.49 62.42 61.61 61.22 60.61 60.91 62.35 61.95 60.99 58.21 58.09
61.12 61.41 61.50 60.47 59.58 61.59 64.15 65.07 65.23 65.30 65.40 64.63 62.46 60.85 60.41 60.73 63.83 63.75 62.81 62.05 61.46 61.11 60.72 59.81 58.53 57.85 58.64 58.87 59.04 56.86 56.82 56.90
61.26 61.11 61.07 60.49 61.51 59.60 60.44 61.78 61.64 61.61 62.28 61.59 60.63 59.20 58.72 59.93 61.25 62.79 62.00 61.35 60.83 60.07 59.22 57.98 55.38 53.10 53.19 55.48 54.36 55.02 55.49 56.04
60.76 60.85 60.38 60.36 60.63 58.87 59.28 59.90 60.02 60.27 59.93 60.80 60.06 59.80 58.63 58.01 57.43 57.63 56.29 58.60 54.67 54.90 53.76 53.28 51.82 51.81 52.33 53.05 54.19 54.63 54.32 55.37
58.48 57.92 58.35 57.89 58.92 59.39 58.99 59.46 59.46 59.18 59.53 59.06 58.76 57.80 57.35 56.69 56.29 56.15 55.45 54.66 53.18 52.85 53.10 53.35 52.57 52.87 53.16 53.34 53.74 54.19 54.86 55.59
55.51 57.09 57.10 56.15 58.16 58.07 58.65 58.59 59.05 58.65 57.91 57.62 57.71 56.77 55.87 55.73 55.45 54.50 54.14 53.70 53.25 52.96 52.71 52.59 51.91 51.87 52.45 52.78 53.34 54.21 53.94 53.84
54.55 56.12 56.62 55.15 55.59 55.08 56.19 55.79 56.21 55.87 55.53 55.06 55.68 56.51 55.41 54.57 54.24 53.43 52.77 53.32 52.54 51.09 49.40 48.25 47.54 48.33 46.81 47.26 48.08 52.46 48.55 47.83
53.66 55.27 55.49 54.25 53.66 53.29 52.37 52.25 52.56 52.29 53.27 53.26 53.92 55.08 54.48 54.30 53.66 52.54 52.85 52.36 50.79 49.41 47.92 44.11 43.19 44.05 43.51 44.43 46.65 47.33 45.69 45.92
53.16 55.73 54.44 54.14 53.45 52.89 52.06 50.57 49.97 49.69 50.70 51.55 51.90 53.37 52.49 52.38 52.31 51.77 52.03 50.97 50.03 45.29 42.97 41.40 41.32 41.51 41.72 42.12 42.63 43.19 43.87 44.64
51.93 51.92 52.62 52.10 51.94 51.73 50.90 50.20 49.09 48.63 48.66 49.90 50.58 50.84 52.06 49.78 49.63 49.80 49.58 47.84 48.47 44.26 42.11 41.67 40.60 40.64 41.06 41.41 41.11 41.46 42.17 44.15
50.31 50.32 51.27 50.86 49.27 47.92 46.76 45.89 46.01 46.50 46.70 48.36 49.79 49.95 50.25 49.34 48.50 48.16 47.28 45.27 44.97 42.65 41.95 41.62 41.51 41.36 42.55 42.57 40.90 41.31 41.25 41.07
48.79 47.63 48.30 47.62 45.22 44.48 43.71 44.57 44.92 45.03 45.35 46.66 48.32 49.65 49.59 48.92 47.45 47.10 46.77 44.97 45.08 43.61 41.69 41.14 40.85 41.10 39.91 39.45 39.81 40.56 40.38 40.64
46.95 46.33 45.33 46.68 44.78 43.44 43.39 42.65 43.44 44.14 44.89 45.46 46.35 48.15 49.06 49.03 47.52 46.35 46.28 45.86 43.29 42.80 41.65 40.43 40.80 40.60 39.09 37.39 35.84 37.87 38.86 40.06
46.04 45.47 45.71 44.61 44.48 43.83 43.33 42.93 43.17 42.69 43.83 43.55 44.96 46.08 47.50 48.03 48.33 47.39 45.83 46.06 45.48 44.04 42.84 41.29 40.94 39.97 40.33 39.06 34.33 33.60 35.11 37.75
43.95 45.28 45.89 46.33 45.40 43.83 42.28 41.24 41.51 43.54 43.51 43.49 45.54 44.83 45.48 47.14 48.13 47.35 45.98 45.70 45.33 43.81 42.81 41.58 39.98 38.56 39.35 41.45 39.07 38.08 31.56 30.35
44.29 45.44 45.91 45.96 45.57 44.84 43.95 43.29 43.36 44.38 44.32 43.68 44.47 44.28 43.60 44.73 45.89 46.87 45.49 43.87 44.43 43.54 41.45 41.25 39.93 39.32 36.56 35.48 35.50 36.16 36.21 32.51
43.94 45.03 45.52 45.95 45.46 45.43 44.58 42.73 43.26 43.35 43.51 42.92 43.86 42.91 42.05 41.63 42.68 42.59 41.45 39.57 38.31 39.26 40.01 39.76 38.88 39.63 38.93 38.55 37.59 35.18 33.93 33.17
45.12 44.90 45.15 46.57 46.99 46.58 44.38 43.28 42.01 41.11 41.99 42.63 42.39 41.60 37.45 36.94 38.23 38.85 39.70 40.15 40.33 39.97 40.42 40.31 40.87 40.40 40.17 39.62 39.83 38.51 38.10 35.96
44.32 45.43 45.57 45.60 44.78 44.26 43.58 42.05 41.87 42.07 41.69 41.66 40.44 38.29 36.57 38.35 39.47 39.88 39.81 40.02 39.89 40.86 41.67 41.43 41.75 41.11 39.63 38.10 36.54 37.69 38.67 37.56

GFSFLT2_sfc_wetblb_021.txt.gz
Wetbulb
65.90 66.53 66.53 65.66 65.51 65.64 65.91 66.31 66.72 66.80 66.69 66.27 66.20 66.41 66.68 66.56 66.76 66.37 66.24 66.22 66.29 65.81 65.25 64.37 63.82 63.14 63.22 63.32 62.79 62.17 64.71 64.69
65.91 66.58 66.19 65.82 65.84 64.48 64.96 65.65 65.90 66.14 66.01 65.21 64.63 64.83 65.25 64.88 65.43 64.74 64.43 64.16 64.14 63.47 62.46 61.72 60.94 60.68 60.59 61.74 60.58 60.94 63.18 63.24
66.30 66.27 66.32 65.69 64.89 65.02 64.96 65.20 65.48 65.76 65.76 64.74 64.21 66.53 65.55 65.01 64.10 63.71 62.91 62.30 61.93 61.67 60.87 59.83 58.42 58.43 58.82 58.54 58.60 61.75 61.87 62.16
66.01 66.59 66.59 66.20 64.75 64.90 65.86 65.81 66.77 67.19 67.34 66.55 66.75 65.92 65.58 64.27 63.37 62.68 62.15 61.59 60.87 59.96 59.08 57.26 57.05 60.29 60.48 58.38 61.53 61.84 62.19 62.06
66.08 66.41 66.56 66.51 66.35 65.63 65.51 66.10 66.49 66.66 66.13 66.51 66.28 65.82 65.85 65.24 64.62 64.48 64.75 61.15 62.16 60.54 60.65 61.08 59.72 60.93 61.32 61.58 61.31 61.33 62.41 62.76
66.51 66.24 65.56 65.34 65.62 65.92 65.25 65.02 65.64 65.93 66.18 65.38 65.88 65.37 65.15 64.59 63.82 63.85 63.68 63.59 61.71 61.62 61.69 61.36 60.36 59.35 59.06 59.61 59.96 61.53 61.62 60.60
64.90 63.64 63.02 63.09 62.91 64.77 64.85 64.71 65.41 65.77 65.36 64.96 65.06 64.54 64.23 63.97 63.31 62.81 62.60 62.39 61.06 60.83 60.73 59.68 58.44 57.58 58.07 57.48 57.66 59.71 56.69 55.58
62.58 61.80 62.60 62.48 62.68 63.28 64.17 64.53 64.74 64.57 64.50 63.99 63.34 63.33 62.97 62.32 62.09 61.58 61.31 60.97 60.79 60.62 58.71 56.25 55.17 55.03 52.97 52.98 53.91 57.26 53.57 53.93
60.40 61.06 61.85 62.13 61.24 61.54 62.04 62.57 61.61 62.23 62.65 62.59 61.77 61.37 61.74 61.70 61.42 61.31 61.16 60.71 60.50 58.80 56.54 54.87 52.35 52.02 51.52 52.05 52.96 53.51 52.43 52.50
59.67 59.37 61.00 61.66 60.69 60.37 60.23 59.64 59.17 58.91 58.79 59.35 59.90 60.05 60.41 60.23 60.10 60.28 61.01 60.11 59.38 57.87 55.99 53.24 51.42 50.86 51.20 51.49 51.69 51.63 51.57 51.61
58.51 59.57 60.03 60.28 59.70 59.35 59.09 58.78 58.36 58.55 57.78 57.39 58.15 58.53 58.72 58.74 58.32 58.90 59.85 59.12 58.40 57.23 54.68 52.30 50.94 50.62 50.40 51.03 51.39 50.86 51.28 50.16
58.34 58.45 58.90 58.29 58.01 57.44 57.24 56.41 56.81 56.42 56.49 56.07 56.48 56.80 57.31 57.35 57.27 57.31 57.38 56.66 56.68 56.10 54.34 52.57 51.32 50.95 48.97 49.08 50.80 50.91 50.96 50.76
56.43 56.94 57.51 56.79 56.09 55.16 55.06 53.91 54.02 54.26 54.51 54.06 54.22 54.69 55.30 56.04 56.00 56.16 56.06 54.70 55.08 55.10 54.00 52.20 50.47 50.56 48.76 49.07 49.52 50.15 50.21 50.20
54.53 54.60 52.29 52.27 53.62 52.73 52.28 51.31 52.10 51.78 52.39 53.15 53.52 53.53 54.02 54.03 54.46 54.50 54.81 54.11 54.03 53.51 52.14 50.81 50.18 50.74 48.14 47.97 45.16 47.75 48.09 48.69
50.65 51.18 51.49 51.47 51.47 51.88 52.15 52.61 52.60 52.39 53.28 53.09 53.64 53.42 53.02 52.75 52.92 53.39 53.43 53.16 52.77 53.94 52.73 50.91 50.20 50.06 49.75 48.13 44.75 43.24 46.78 47.34
51.80 52.07 52.35 52.14 52.60 52.05 51.24 50.12 49.29 50.94 50.85 51.39 51.52 52.46 52.18 51.98 51.70 51.78 52.18 52.31 51.65 51.98 52.59 51.34 50.24 49.10 47.88 47.74 47.88 46.36 43.76 43.40
51.85 52.25 51.81 51.56 51.35 51.26 50.55 49.19 49.34 49.68 49.77 49.61 50.14 50.95 51.47 50.85 50.13 49.95 50.26 50.89 51.19 50.63 50.51 49.09 49.20 46.61 47.40 47.10 45.64 44.24 43.14 41.81
51.72 51.50 51.04 51.36 51.28 51.29 49.92 48.20 47.88 47.66 48.21 47.95 48.72 48.95 49.45 48.62 46.93 47.76 47.68 47.55 47.02 46.94 46.16 45.52 45.74 45.20 43.88 44.23 42.46 42.43 41.24 39.87
50.50 50.49 49.66 50.49 50.41 49.80 49.41 47.82 47.42 47.56 47.63 47.45 46.70 46.77 47.44 45.87 45.50 46.17 45.50 45.39 45.42 45.64 45.39 45.13 44.84 43.07 41.27 39.96 39.44 38.98 38.38 36.23
50.30 49.76 48.89 49.63 49.75 49.29 48.88 47.83 47.33 47.24 46.91 46.75 45.79 45.01 44.99 44.79 44.94 45.30 45.20 45.37 45.47 45.16 42.68 42.27 40.27 38.68 37.49 36.72 35.44 36.02 37.71 38.12

GFSFLT2_sfc_wetblb_024.txt.gz
Wetbulb
67.97 68.47 67.43 66.33 66.29 66.61 66.63 67.08 67.08 67.15 66.72 66.68 66.55 66.76 66.80 67.08 66.70 66.45 66.45 66.47 66.17 65.69 64.74 64.10 63.64 63.20 63.51 63.05 62.33 62.06 67.06 67.74
68.45 68.79 68.58 68.67 68.31 65.26 66.09 66.29 66.45 66.60 65.91 65.56 65.34 65.74 65.56 65.71 65.66 65.19 64.97 64.86 64.43 63.48 62.41 61.91 61.31 60.96 60.92 60.76 60.31 61.82 66.71 66.25
69.00 68.80 69.29 69.36 68.74 67.04 65.10 65.90 66.22 66.00 66.19 64.70 64.98 69.16 68.18 66.83 64.16 63.56 63.05 62.53 62.10 61.54 60.48 59.65 58.88 59.24 58.88 58.53 59.05 64.58 64.83 65.55
69.34 69.88 69.53 69.72 68.11 68.80 69.29 68.49 69.80 69.90 69.32 68.95 69.59 69.16 68.36 65.99 64.50 62.67 62.26 61.74 61.02 60.27 59.00 57.81 58.62 62.81 62.65 59.11 62.78 63.25 63.17 63.51
68.94 69.71 70.39 69.61 68.79 68.87 68.07 68.37 69.56 70.06 69.60 69.05 69.53 68.61 69.21 68.12 67.57 66.88 66.98 62.78 64.72 62.82 62.57 62.33 61.30 62.38 62.42 62.59 62.14 62.15 62.11 62.75
69.50 69.72 69.56 69.08 67.53 67.76 68.62 67.31 68.58 67.99 69.61 68.87 68.76 67.42 67.55 66.88 66.34 65.94 65.69 65.15 64.43 63.68 63.02 63.05 62.26 61.58 61.11 61.27 61.30 61.24 61.52 61.91
68.94 69.77 68.39 66.77 66.91 68.31 68.34 67.93 67.61 68.16 68.30 68.63 68.37 66.48 65.75 65.87 65.03 64.71 64.20 63.89 63.34 62.79 62.43 62.23 61.12 60.16 59.23 58.85 58.11 59.47 59.84 58.58
69.05 68.31 66.63 65.93 66.04 67.25 67.67 68.40 67.69 67.67 66.81 66.66 67.50 67.13 65.52 64.21 63.06 62.48 62.22 62.48 62.31 62.17 61.85 61.12 59.53 58.39 57.09 56.24 55.73 57.57 57.05 56.14
67.96 67.42 66.15 65.60 65.14 65.59 65.84 66.54 66.15 65.24 64.68 65.39 65.55 65.90 64.16 63.78 62.09 61.47 61.15 61.89 62.78 62.62 61.92 60.98 59.27 57.47 55.76 55.35 55.33 56.77 55.76 55.20
66.81 65.53 64.90 65.09 64.75 65.00 64.79 64.70 63.89 63.19 63.07 63.15 63.28 63.40 63.44 62.80 61.29 60.77 61.58 61.59 61.20 60.77 60.35 59.22 58.38 57.07 55.65 55.08 54.91 55.43 55.54 55.32
65.61 66.25 65.30 64.05 63.87 64.10 63.85 63.25 62.88 62.59 62.86 61.94 61.63 61.98 61.89 61.65 60.78 60.71 61.65 60.73 60.40 60.19 59.45 59.06 57.36 56.55 55.32 55.11 55.32 54.97 54.84 54.27
64.32 64.86 63.85 62.93 63.60 63.33 62.23 61.96 61.73 61.66 60.60 60.02 59.89 59.75 59.88 60.03 59.76 59.96 60.37 59.67 59.21 59.05 58.95 58.97 57.83 56.57 54.41 53.64 54.45 55.14 55.22 54.64
61.35 61.37 61.53 61.83 61.89 59.84 59.52 58.66 58.45 58.29 58.52 58.28 58.51 58.67 58.60 58.78 58.39 58.67 59.08 58.53 58.72 58.74 58.26 57.73 57.10 57.37 54.46 53.69 53.91 54.81 54.90 54.52
58.20 57.29 57.09 57.09 58.63 57.74 57.45 56.67 57.20 57.89 58.59 58.85 58.74 58.05 57.72 57.12 57.10 57.01 57.58 57.10 57.59 57.57 57.54 56.27 56.27 56.74 53.50 52.31 49.30 51.80 53.66 54.00
56.40 56.90 57.07 57.04 57.32 57.94 58.25 58.66 57.94 56.79 56.31 56.23 56.26 55.90 55.84 55.84 56.01 56.11 56.12 56.13 55.27 56.28 56.37 55.77 54.11 55.60 55.94 52.11 48.88 47.24 50.70 53.81
56.95 56.72 56.60 56.38 57.03 56.29 55.50 54.52 53.36 54.25 54.67 54.90 54.36 54.89 54.41 54.24 54.48 54.83 55.06 54.95 54.42 54.63 54.83 54.78 54.56 52.54 54.54 55.28 54.06 52.75 48.39 46.62
56.94 56.74 56.18 55.97 56.18 55.60 54.58 53.69 54.26 54.48 53.41 53.37 53.63 53.61 53.28 53.10 53.49 53.27 53.24 53.42 53.48 53.56 53.48 53.44 53.39 52.31 51.70 51.97 50.65 50.83 50.80 46.65
56.30 55.49 54.87 55.01 54.66 54.28 52.77 51.63 51.95 51.84 51.61 50.45 50.47 50.79 51.15 51.89 52.08 51.91 52.02 51.73 51.08 51.02 50.87 50.04 49.83 49.18 48.21 47.51 45.87 43.03 43.18 43.96
55.06 54.83 53.76 54.13 53.48 53.12 52.65 51.87 51.69 50.74 50.21 49.56 48.93 48.82 49.23 49.82 50.53 50.49 50.54 49.91 49.38 47.98 46.32 45.59 43.81 42.60 41.62 40.64 39.44 38.81 38.43 36.86
54.68 54.15 53.39 53.17 52.72 52.38 52.58 52.02 51.49 50.77 49.98 49.22 48.39 48.15 48.58 49.65 49.47 49.11 48.27 47.76 46.83 45.96 46.34 42.65 40.49 39.52 38.35 38.12 38.04 38.11 38.40 37.68

GFSFLT2_sfc_wetblb_027.txt.gz
Wetbulb
67.04 67.74 67.11 67.24 66.89 66.97 67.16 67.30 67.21 66.95 66.59 66.53 66.56 66.79 66.94 66.93 66.70 66.66 66.33 65.94 65.63 65.08 64.41 63.97 63.50 63.22 63.24 62.85 62.89 63.76 65.18 65.88
67.45 68.15 68.57 69.05 68.15 66.13 66.60 66.79 66.90 66.61 65.80 65.51 65.88 65.93 66.03 65.93 65.94 65.34 65.18 64.94 64.26 63.51 62.60 61.93 61.38 60.82 60.82 61.00 61.96 63.02 65.31 64.65
68.28 68.01 68.49 68.17 67.46 66.91 65.69 66.42 66.76 66.22 66.09 65.24 65.52 68.30 67.72 67.12 64.39 64.03 63.20 62.49 62.08 61.51 60.83 60.37 60.52 61.09 61.01 60.59 60.92 62.71 63.11 63.30
68.02 68.78 68.78 68.60 66.57 67.59 67.83 67.20 68.53 68.17 68.01 67.82 67.81 67.66 67.55 65.31 65.25 63.40 63.32 62.98 62.64 61.88 61.10 60.50 60.27 62.53 62.23 60.78 61.97 62.48 61.89 62.14
67.03 69.12 68.89 68.16 66.94 66.80 66.96 67.30 67.60 67.95 68.35 67.86 67.90 67.18 67.73 66.84 66.80 66.27 66.67 63.48 65.23 62.95 63.22 62.62 62.20 62.12 61.18 61.71 61.69 61.80 60.74 61.02
66.95 68.75 68.60 67.78 66.54 65.98 65.93 65.96 67.04 66.53 67.95 67.87 67.14 65.93 66.19 65.95 64.90 64.85 64.91 64.37 64.14 63.93 63.08 62.89 63.19 62.51 61.78 61.04 60.81 60.73 59.74 60.43
66.71 69.07 69.45 66.30 65.96 66.04 66.73 66.49 66.72 67.26 67.14 66.98 66.79 65.06 65.19 64.68 64.35 63.64 63.46 63.15 62.77 62.41 62.24 61.72 62.08 61.52 60.57 59.54 59.07 58.93 59.56 59.66
66.47 68.67 69.35 65.90 65.13 66.14 65.89 66.98 66.41 66.33 66.48 65.67 65.47 65.34 64.63 63.69 62.94 62.30 61.90 61.82 61.85 61.55 60.90 60.79 60.54 59.96 59.20 58.80 57.70 56.84 57.39 58.74
66.45 68.53 68.90 66.59 65.20 65.20 64.93 65.12 64.33 64.45 64.39 64.46 64.34 64.20 63.72 63.26 62.16 61.52 61.46 61.72 63.36 61.78 61.55 61.22 60.48 59.93 58.74 58.04 56.89 56.95 56.55 57.39
66.04 67.03 67.31 67.34 64.84 65.17 64.61 64.44 63.74 62.95 63.24 63.57 62.97 62.96 63.28 62.81 61.45 61.30 61.91 62.17 61.16 60.66 60.16 59.31 59.17 58.80 58.26 57.61 57.04 56.64 56.48 56.95
65.36 66.85 67.09 66.76 65.04 64.49 64.51 63.67 63.04 62.72 63.34 62.25 61.99 62.01 61.88 61.61 60.90 60.90 62.22 60.61 60.78 60.75 60.31 60.75 58.85 58.64 57.91 58.27 57.84 56.30 56.81 55.57
65.21 65.79 66.01 65.50 64.88 64.35 62.62 62.35 61.98 62.11 60.99 60.27 60.50 60.21 60.32 60.20 59.93 60.27 60.69 59.67 60.09 60.65 61.03 60.04 59.69 59.33 57.57 56.84 58.44 57.89 57.45 57.24
63.53 63.82 63.84 63.14 62.85 60.91 60.03 59.50 59.80 59.45 59.56 59.98 60.23 59.93 59.65 59.41 58.70 58.59 59.46 58.38 59.50 60.51 59.99 59.28 58.92 60.10 57.67 57.80 57.90 58.37 58.06 56.78
60.11 59.97 59.53 59.44 59.55 58.83 59.14 58.85 59.11 59.43 60.01 59.33 59.32 58.69 58.01 57.09 56.93 56.38 56.58 56.21 57.49 58.32 58.51 57.28 57.94 59.19 55.37 54.94 51.69 54.55 56.85 56.76
58.37 58.50 58.60 58.67 58.99 59.42 58.69 58.78 58.76 57.61 57.82 58.01 57.84 57.57 56.53 56.25 55.77 55.13 55.70 56.18 55.15 56.80 56.73 55.99 54.19 56.33 57.86 54.37 50.03 48.71 52.87 56.34
58.63 58.29 57.99 58.00 58.61 57.78 57.56 56.63 55.74 57.10 56.96 56.48 56.59 56.59 55.42 54.67 54.06 54.13 54.15 54.06 54.39 54.80 54.39 55.52 54.67 52.38 54.45 54.55 53.57 52.97 48.70 48.83
58.49 57.88 57.35 57.37 57.57 57.21 56.58 55.52 55.31 55.06 55.16 54.61 53.86 53.74 53.47 52.69 53.14 53.20 53.34 52.92 53.59 53.34 52.98 52.41 52.13 51.26 50.86 50.05 49.22 48.74 50.24 45.24
58.04 57.12 56.86 56.84 56.71 56.16 55.13 54.00 53.11 52.23 52.21 51.36 51.55 51.73 51.71 52.01 51.45 51.63 51.69 51.63 51.84 51.23 50.71 49.20 48.33 47.98 47.76 46.57 43.54 41.69 42.20 39.37
57.11 56.78 56.05 56.49 55.85 55.14 54.60 53.72 52.82 51.99 51.55 51.04 50.29 49.62 49.03 49.55 50.22 50.36 50.47 50.59 48.97 48.09 47.34 45.98 45.40 43.59 42.56 40.98 39.98 38.58 38.29 37.29
56.67 55.88 54.85 54.98 54.94 54.39 54.26 53.94 52.73 52.26 51.88 50.79 49.41 48.27 48.10 49.39 49.64 49.01 48.06 46.03 45.65 45.81 44.86 44.20 43.35 41.14 39.90 40.24 40.77 40.68 40.81 39.34

GFSFLT2_sfc_wetblb_030.txt.gz
Wetbulb
64.94 65.28 66.41 66.96 66.86 67.16 67.05 67.18 67.00 67.20 67.24 67.20 67.18 67.32 67.26 67.04 66.95 66.63 66.12 65.81 65.53 65.05 64.42 63.82 63.18 63.20 63.47 63.68 63.87 63.85 62.10 62.74
65.72 65.54 66.07 65.98 65.65 66.16 66.26 66.30 66.18 66.00 65.97 65.71 65.94 66.10 66.52 66.59 66.12 65.66 64.99 64.60 64.18 63.48 62.54 62.28 62.13 62.17 61.85 62.01 61.81 61.77 59.69 61.76
66.68 66.67 67.65 67.71 66.25 65.94 65.98 66.40 66.08 65.81 65.55 65.24 64.40 66.06 65.61 66.16 64.23 64.63 63.90 63.17 62.75 62.15 61.70 61.66 61.71 62.02 62.56 61.97 61.73 58.79 58.69 58.98
66.94 67.24 67.59 67.16 64.98 65.22 66.25 66.64 66.18 66.07 66.16 65.76 66.30 65.42 65.14 64.67 64.70 64.11 64.19 63.86 63.73 63.36 62.99 62.36 61.52 58.79 59.58 61.47 59.04 59.03 58.10 57.48
65.94 68.11 67.97 67.28 66.01 65.34 65.89 65.99 66.32 66.91 66.50 66.06 66.19 65.37 65.57 64.96 63.61 62.81 62.91 63.83 62.97 62.58 61.41 60.26 60.49 59.64 58.89 58.55 58.36 58.03 57.03 57.09
66.17 67.41 67.41 66.39 64.94 64.96 65.11 64.40 66.14 65.08 66.46 66.14 65.53 64.30 64.16 63.02 62.59 61.93 61.82 61.93 61.68 60.09 59.75 60.49 59.59 60.54 59.89 58.85 58.08 57.27 56.28 56.03
65.64 67.32 67.44 66.21 64.46 65.18 65.35 64.74 65.66 65.23 64.97 65.69 64.83 63.07 63.20 62.66 61.71 61.04 60.44 59.84 59.01 58.80 58.03 58.38 58.59 59.12 58.87 57.83 56.67 56.16 56.29 55.87
66.56 67.46 68.30 65.27 64.04 64.33 64.29 65.27 65.09 65.01 64.10 63.82 63.53 63.08 62.35 61.51 60.64 59.78 59.26 59.15 58.64 57.81 57.43 57.92 57.30 57.82 56.91 57.05 55.81 54.88 53.70 53.43
65.61 67.22 68.16 65.62 64.36 64.20 63.32 63.36 62.22 62.22 62.49 62.42 62.26 61.94 61.52 60.81 60.01 59.47 58.88 59.43 59.09 58.61 58.35 57.54 57.31 57.46 56.43 56.50 55.64 54.78 53.65 53.31
65.33 66.11 67.36 66.66 65.33 63.86 62.96 62.59 62.01 61.34 60.87 61.02 61.06 61.17 60.75 59.94 59.42 59.10 59.80 59.23 58.58 57.86 57.36 56.37 55.91 55.63 54.88 55.07 54.42 54.03 53.31 53.20
64.31 65.37 66.08 66.35 65.49 63.28 62.98 62.22 61.21 61.34 61.17 60.33 60.88 60.07 60.33 58.80 57.92 58.51 59.18 57.85 57.44 57.33 56.05 55.93 54.74 54.79 55.22 54.64 54.61 53.72 52.92 54.46
64.01 64.81 65.85 65.63 63.99 62.85 61.57 60.74 60.64 60.92 59.89 58.74 58.94 58.14 59.05 57.89 57.02 57.22 58.02 56.57 56.00 55.91 55.72 56.10 55.38 55.07 56.61 55.95 55.08 55.43 54.48 52.06
62.20 61.48 61.88 61.33 61.29 59.55 58.16 57.30 57.44 57.73 58.06 58.65 58.42 58.32 57.39 56.30 55.73 55.35 54.99 54.06 54.05 54.26 53.52 52.78 53.27 54.46 53.69 53.20 53.40 54.51 54.21 54.59
59.00 58.41 58.36 58.07 57.75 57.61 57.23 56.95 57.40 57.42 58.14 57.03 58.02 57.68 56.41 55.34 54.43 53.50 53.30 52.11 51.74 51.68 51.77 51.63 51.61 52.19 50.96 50.67 47.59 49.70 51.93 53.49
57.52 57.77 57.76 57.58 57.68 57.49 57.02 57.34 57.03 55.67 56.30 56.23 55.89 56.35 55.83 54.88 53.31 52.12 51.80 51.49 50.18 49.77 49.87 49.38 48.62 49.79 50.24 48.77 45.61 43.84 47.33 50.42
57.88 57.89 57.30 57.04 57.56 56.36 55.98 54.65 53.41 53.78 53.80 54.25 53.78 53.67 53.04 51.87 51.50 51.05 50.36 50.51 49.49 49.17 50.50 49.03 48.18 46.60 48.15 49.88 47.76 46.46 43.84 43.14
57.49 57.45 57.13 56.85 56.45 55.80 54.17 53.01 52.60 52.59 52.01 51.55 51.12 51.65 51.28 51.05 49.50 48.94 48.86 48.84 48.49 48.75 47.71 46.18 46.33 44.69 44.06 43.39 42.62 42.79 43.54 42.77
57.50 56.85 56.34 56.82 55.62 54.99 53.81 52.40 51.51 50.12 50.18 49.44 49.53 49.41 48.97 48.45 48.69 47.95 48.21 47.89 46.60 46.19 45.65 45.65 44.63 43.57 41.98 42.08 40.57 39.07 38.41 37.87
56.50 56.10 54.87 54.80 54.60 54.38 53.69 52.45 51.65 50.39 49.85 49.19 48.46 47.17 46.13 45.87 47.22 46.47 45.46 45.20 44.94 44.82 44.74 43.70 43.56 41.76 40.55 40.02 39.94 39.03 38.57 37.62
54.88 54.55 53.40 53.06 52.84 53.10 53.27 52.65 51.17 50.32 50.15 48.43 46.98 45.71 45.26 45.74 45.51 44.21 43.65 43.85 43.57 43.38 42.94 42.93 42.94 42.07 40.33 40.15 40.12 40.51 40.47 39.40

GFSFLT2_sfc_wetblb_033.txt.gz
Wetbulb
62.92 64.76 66.31 66.55 66.13 66.04 66.13 66.37 66.48 66.75 66.66 66.84 66.90 66.82 66.96 67.27 66.90 66.44 66.05 65.74 65.24 64.44 63.61 63.33 63.15 63.21 63.13 62.89 62.28 62.59 59.72 58.65
61.55 62.61 63.57 63.39 63.96 65.43 65.27 65.24 65.20 65.21 65.47 65.46 65.35 65.80 66.07 66.29 65.95 66.13 65.71 65.34 64.63 63.88 63.25 62.88 62.75 62.72 62.55 62.35 61.98 61.94 56.54 57.54
62.17 61.79 62.67 62.59 62.86 64.95 65.27 65.62 65.11 64.67 64.86 64.78 63.93 63.57 64.88 64.99 64.65 65.06 65.11 64.36 63.72 63.12 62.62 62.16 61.56 61.39 61.65 61.78 62.00 58.15 56.13 56.44
62.33 62.36 62.96 63.22 64.80 63.40 62.98 64.59 64.08 63.71 63.42 63.18 63.14 63.22 63.64 64.28 63.20 63.94 64.12 63.82 63.54 63.45 63.19 62.54 61.78 58.19 56.99 60.85 58.70 57.32 56.65 55.32
63.35 62.53 62.24 61.82 62.38 61.91 62.95 63.16 63.36 63.52 63.59 62.34 62.87 61.71 62.33 61.50 61.01 61.11 60.52 62.40 61.09 61.81 60.98 60.24 58.95 57.41 57.03 57.02 56.94 55.89 54.43 54.74
62.72 62.64 61.95 60.19 59.60 59.86 60.87 61.19 61.83 62.30 63.64 62.19 60.51 59.89 59.64 58.69 60.67 60.57 60.22 60.89 60.08 60.15 58.88 58.82 57.69 57.84 58.06 57.30 56.62 55.20 54.25 53.98
62.13 62.03 61.70 60.37 58.98 59.48 59.78 59.91 61.08 60.91 61.82 61.59 60.08 58.92 58.06 58.25 57.41 57.51 56.63 56.29 55.62 55.39 55.08 55.64 55.56 55.90 56.80 56.90 55.96 54.69 54.13 53.18
62.45 62.06 61.63 59.92 59.63 58.79 58.99 59.32 60.66 59.80 60.54 60.14 60.48 59.35 57.68 57.49 56.58 56.59 56.15 55.60 55.37 54.80 54.02 54.32 54.60 55.19 55.47 55.43 54.87 53.75 53.09 52.25
62.73 63.51 61.12 59.10 58.96 59.22 58.42 60.67 57.65 57.54 58.67 58.48 59.03 58.60 57.18 56.84 55.91 55.77 56.06 56.50 55.64 55.03 54.79 54.81 54.21 55.18 54.78 54.96 54.56 53.98 52.61 51.95
62.98 66.19 62.37 60.52 58.81 58.35 58.07 57.71 56.92 56.29 56.18 57.49 57.88 58.06 57.27 56.06 55.47 54.71 55.99 56.11 55.30 54.65 54.54 53.91 53.49 53.31 52.88 53.09 53.37 53.06 52.39 52.18
61.08 63.47 62.53 63.55 60.99 59.34 57.50 57.09 56.46 55.86 56.36 55.81 56.34 56.59 56.65 54.60 53.91 53.93 54.35 54.48 54.32 54.17 54.11 52.93 52.78 52.76 53.34 53.20 52.08 51.78 52.19 53.53
58.79 59.72 59.28 59.91 59.27 58.19 57.54 55.50 55.23 55.28 54.27 54.41 54.94 55.05 55.42 53.63 53.11 52.83 53.39 51.86 51.15 51.14 50.45 50.78 51.19 51.55 53.63 54.08 53.16 52.39 52.33 51.66
55.03 54.79 54.97 54.67 53.63 52.18 51.88 51.45 52.29 52.69 53.60 54.49 54.55 54.23 54.14 52.71 51.94 51.26 50.80 50.29 49.09 49.35 48.98 48.75 48.86 49.67 48.95 49.71 49.43 50.65 50.71 51.59
53.44 53.28 53.05 52.99 52.53 51.71 51.98 51.78 52.14 52.53 53.35 53.93 54.16 53.16 52.73 52.59 50.04 49.34 48.72 48.74 48.25 47.81 46.91 45.85 46.39 47.36 45.73 46.14 43.61 46.04 47.46 49.30
52.37 52.61 52.83 52.76 52.85 52.75 52.59 52.30 51.69 50.48 50.22 50.62 50.30 50.46 49.84 48.72 47.98 47.66 46.94 47.31 46.63 45.90 45.92 45.89 44.62 45.64 45.66 44.11 41.80 40.05 42.92 46.29
51.98 52.51 52.11 52.91 52.63 51.27 50.04 48.81 47.94 48.87 48.29 48.25 48.28 49.08 48.81 48.11 46.88 46.12 46.18 46.64 45.38 45.90 46.41 44.41 44.10 41.49 43.27 43.74 42.23 42.78 39.10 37.85
51.58 52.04 52.05 52.17 51.63 50.79 49.12 48.38 48.64 48.25 47.90 47.65 47.65 47.97 47.23 46.63 46.25 45.73 45.68 45.34 44.48 43.84 43.32 43.55 44.70 43.40 41.93 41.04 40.60 38.20 37.63 34.81
51.01 51.23 51.16 50.86 50.45 49.94 48.96 47.80 48.02 47.11 46.96 46.08 45.95 45.44 44.95 44.80 45.82 44.63 44.20 43.56 43.22 42.63 42.00 43.05 41.01 40.77 41.02 39.24 38.69 36.94 36.51 36.12
50.61 49.97 49.50 49.68 49.47 49.33 48.48 47.65 46.99 45.75 45.49 44.40 43.62 42.84 42.33 43.43 43.09 42.50 42.07 42.09 41.70 41.81 42.16 40.70 40.36 39.30 39.08 38.75 38.44 36.69 38.81 37.87
48.92 49.12 49.21 49.15 49.39 48.18 47.20 46.99 46.39 46.03 45.72 44.55 43.28 42.24 42.15 42.46 42.17 41.40 41.06 40.90 40.78 40.20 39.59 40.30 38.86 38.81 37.55 40.54 39.92 39.87 40.20 37.91

GFSFLT2_sfc_wetblb_039.txt.gz
Wetbulb
62.72 63.90 65.63 66.38 66.18 66.34 66.30 66.65 66.67 66.89 67.14 67.02 67.09 66.49 66.44 66.68 66.48 66.04 65.51 64.90 64.05 63.47 63.34 63.01 62.98 62.70 62.40 62.11 61.40 62.05 54.56 54.29
60.87 61.75 62.33 61.71 62.76 65.01 64.92 65.14 65.25 65.42 65.78 65.45 65.12 65.23 65.63 65.82 65.64 65.86 65.20 64.55 63.98 63.65 63.46 62.66 62.28 61.95 61.87 61.87 61.54 60.25 55.04 54.30
60.07 60.80 61.03 60.88 61.19 63.23 64.46 64.99 64.81 64.61 64.68 64.61 63.32 62.55 62.78 63.30 63.97 64.87 65.35 64.70 64.26 63.99 63.27 62.49 61.76 61.37 60.96 60.87 61.16 55.90 54.96 54.14
59.38 60.05 60.07 60.74 63.20 62.04 61.45 62.52 62.21 62.04 62.12 62.20 61.67 60.86 61.31 63.40 63.41 64.20 64.36 63.91 63.71 63.61 63.49 63.01 62.23 57.80 56.64 58.29 55.62 55.71 54.96 53.84
59.43 59.76 59.57 59.90 60.77 61.30 60.71 61.28 61.02 60.79 60.85 60.52 60.67 61.41 60.97 61.52 60.14 59.59 59.05 60.77 59.43 59.81 59.28 58.79 58.42 57.37 56.67 55.63 55.50 55.32 54.19 53.52
59.57 60.05 60.17 59.56 60.03 60.74 60.07 60.52 60.84 60.69 61.18 61.31 60.05 59.42 58.99 59.48 59.36 58.51 57.83 58.02 57.31 57.27 56.96 57.41 55.98 56.10 55.96 55.14 55.30 54.80 54.42 54.01
59.77 60.25 60.78 60.66 59.24 59.62 59.61 59.66 60.67 61.18 61.53 61.52 59.16 57.95 56.64 57.32 57.15 55.70 54.57 53.65 53.26 52.74 52.82 52.71 52.56 53.07 53.54 53.28 53.56 53.54 53.62 53.36
60.60 59.99 59.93 57.35 57.54 57.49 58.34 59.24 60.61 60.70 60.81 60.14 58.49 57.59 56.21 55.31 54.48 54.54 53.91 53.75 53.75 52.70 52.31 52.23 52.19 52.70 52.64 53.04 53.26 53.37 53.28 52.69
59.74 57.90 56.59 57.17 56.71 56.63 56.95 58.44 58.35 57.93 59.27 59.04 58.07 57.64 55.64 54.86 53.99 53.26 53.15 53.05 52.37 51.62 50.99 50.51 49.87 50.81 49.95 51.15 51.87 52.20 52.16 52.10
59.01 60.54 57.77 59.10 58.80 57.85 56.75 55.75 54.41 54.74 56.39 56.06 56.71 56.55 55.34 53.76 52.35 51.64 51.98 50.91 50.35 49.30 48.89 48.20 47.99 47.61 47.11 48.08 48.72 49.96 50.86 50.94
58.97 60.48 60.84 61.28 59.67 58.37 56.55 53.28 52.96 52.79 53.47 53.98 54.09 54.30 53.51 51.57 50.47 49.58 49.57 49.17 48.39 47.95 47.34 46.86 46.18 45.09 46.92 46.10 45.80 47.65 48.28 51.07
57.82 59.11 60.54 59.78 58.06 56.03 53.71 51.99 51.86 51.88 51.63 51.76 51.83 51.45 51.87 50.67 48.87 49.04 49.67 48.91 46.67 45.95 45.64 45.19 44.76 44.72 47.57 46.78 45.47 46.03 46.48 46.38
56.57 56.74 56.33 54.39 53.42 52.45 51.02 49.51 50.59 50.43 50.09 51.25 50.47 50.01 49.20 48.45 47.95 46.49 46.16 45.31 44.66 45.02 44.59 43.72 43.30 44.13 42.87 43.33 43.83 43.81 43.61 41.78
52.08 52.04 51.18 51.76 50.79 49.99 50.42 48.97 48.07 47.88 48.37 47.76 47.23 46.48 46.38 45.80 44.56 45.29 47.27 46.62 45.76 44.13 43.40 43.24 43.30 42.68 40.95 40.44 38.03 39.53 40.45 41.69
49.25 49.39 49.68 50.02 50.28 49.38 48.92 48.54 47.80 46.04 45.66 45.12 45.57 45.78 45.40 44.63 44.91 44.60 44.56 44.03 43.15 42.10 41.51 40.77 40.08 40.96 40.79 39.35 34.81 32.97 35.97 38.16
48.71 49.78 49.70 49.91 49.45 48.21 47.42 46.06 44.74 45.03 45.03 44.91 44.42 44.75 44.58 45.31 45.12 44.35 43.51 42.89 41.56 41.17 43.36 40.50 40.39 38.99 39.51 40.99 38.83 37.53 32.25 31.67
47.98 48.72 48.74 48.71 48.05 47.69 46.60 45.71 46.09 46.66 46.73 45.54 44.69 44.08 45.40 45.28 44.34 42.79 41.84 41.84 40.91 40.18 39.51 39.31 39.07 37.97 37.17 36.30 35.38 34.99 34.29 33.40
45.92 47.00 46.80 47.41 47.25 46.92 46.22 45.89 45.38 44.60 44.57 43.87 43.32 42.39 42.81 42.31 42.21 41.28 41.13 40.42 39.66 39.22 38.63 37.87 37.48 37.40 37.26 35.61 36.81 34.72 34.80 34.65
45.93 45.67 46.26 46.63 45.91 45.44 44.85 44.30 43.47 42.72 42.85 41.75 40.99 40.20 40.76 40.80 40.80 40.12 39.66 39.37 39.00 38.26 37.27 36.60 36.32 35.06 34.56 34.85 35.72 35.66 37.92 37.71
45.13 45.96 45.58 43.49 42.45 41.99 42.01 42.11 41.40 41.40 41.51 40.84 40.54 40.80 40.77 41.09 40.34 39.63 39.16 39.16 38.37 38.37 36.37 36.15 36.04 35.25 34.31 35.08 35.62 36.69 36.77 38.08

GFSFLT2_sfc_wetblb_042.txt.gz
Wetbulb
63.11 64.62 67.11 67.69 67.34 67.34 67.22 67.40 67.33 67.28 67.23 67.14 66.87 66.40 66.38 66.40 66.24 65.80 65.19 64.71 64.14 63.68 63.57 63.06 63.14 62.93 62.66 62.18 61.53 61.25 54.94 54.76
60.17 61.22 61.91 61.84 63.09 65.35 65.51 65.75 65.53 65.70 65.78 65.38 65.04 65.03 65.52 65.22 65.09 65.52 64.90 64.45 64.33 64.08 63.45 63.04 62.79 62.62 62.03 61.51 61.29 59.05 54.77 54.58
59.43 59.85 60.06 60.00 60.52 63.16 64.71 65.24 64.91 64.55 64.59 64.66 63.04 61.97 62.10 62.20 63.76 64.43 64.81 64.35 64.17 64.16 63.97 63.30 62.60 60.97 61.00 61.01 59.33 55.50 54.95 54.63
59.09 59.41 59.21 59.55 62.07 61.34 60.23 61.79 61.67 61.72 61.88 61.88 61.19 60.32 60.65 62.67 63.10 63.96 64.30 64.00 63.67 63.26 63.15 62.70 61.06 58.01 57.07 58.01 55.73 55.75 55.43 54.82
58.68 59.21 59.03 59.13 60.20 60.14 59.63 60.36 60.13 60.19 60.60 60.38 60.17 60.48 59.79 60.56 59.85 58.96 58.11 60.28 58.31 58.77 58.17 57.95 57.87 56.70 56.23 55.52 55.33 55.13 54.92 54.65
58.51 59.00 58.80 58.55 59.03 59.74 59.21 59.88 59.89 59.54 59.91 59.91 59.15 58.84 58.64 58.66 59.19 58.11 57.29 57.00 55.11 54.69 54.28 53.96 53.01 53.46 53.60 53.43 53.79 53.76 54.07 54.45
57.97 58.60 58.84 58.95 58.53 58.98 58.57 58.93 59.78 59.63 60.07 60.73 59.79 58.38 57.56 57.12 57.54 55.92 53.91 52.95 52.66 52.41 52.30 52.30 52.18 52.61 52.55 52.58 52.52 53.14 53.49 53.33
58.46 58.60 59.45 58.37 57.51 57.82 57.91 58.57 59.18 59.82 60.56 60.64 59.32 57.44 55.66 55.15 54.03 53.36 52.87 53.02 52.24 51.70 51.11 50.08 49.50 50.25 49.53 50.32 51.23 51.23 51.66 52.36
58.67 57.47 56.62 56.72 55.77 55.44 55.99 57.83 58.57 58.44 59.21 58.98 57.69 56.92 55.18 53.83 52.81 51.70 51.44 51.01 50.00 49.40 48.68 48.48 47.89 48.24 47.47 48.25 49.06 48.61 49.73 50.40
58.47 59.93 58.64 58.43 57.75 56.74 55.98 55.04 54.85 55.34 55.57 55.23 55.20 55.69 54.04 51.69 50.62 49.47 49.47 49.06 48.26 47.86 47.98 47.07 46.91 45.53 45.71 46.34 46.27 47.03 48.00 49.38
58.86 59.94 59.34 58.19 58.89 55.84 55.01 54.29 54.28 53.88 53.20 51.94 51.93 52.57 51.78 50.12 48.42 48.38 48.46 49.28 48.75 48.20 47.14 45.23 44.29 44.11 46.00 45.80 45.09 45.66 46.54 48.73
59.18 59.91 59.46 56.96 56.86 56.61 55.76 53.83 50.13 49.29 49.73 50.35 50.77 50.85 50.87 48.95 48.98 48.67 47.76 46.59 44.85 45.34 44.86 44.74 43.67 44.33 45.78 45.65 44.81 44.84 45.71 43.29
58.96 58.98 58.11 57.19 55.19 52.67 50.15 48.68 48.74 47.26 47.64 48.42 48.03 47.62 47.49 45.86 44.82 44.62 45.05 44.50 44.49 44.97 44.13 42.91 43.01 43.13 41.85 41.57 42.47 43.61 42.38 40.63
54.73 53.32 52.98 51.67 50.60 49.89 48.21 46.42 45.78 45.70 45.67 45.54 45.32 45.01 44.91 44.92 44.23 44.23 44.20 43.71 43.33 42.43 41.52 41.10 41.81 41.88 39.71 38.84 35.87 37.87 39.56 41.07
49.12 49.91 50.11 49.71 49.54 48.62 47.74 46.96 46.17 44.89 44.40 43.76 44.04 44.48 44.41 44.28 44.33 43.94 43.35 42.86 41.26 40.65 40.50 39.50 38.55 39.93 40.16 38.65 34.35 32.33 35.32 37.73
48.10 48.52 48.46 48.68 48.21 47.07 45.91 44.63 43.94 44.14 44.05 43.76 43.43 44.08 44.47 44.67 44.02 43.04 41.99 41.54 40.18 39.77 41.40 39.22 38.58 37.11 38.45 40.42 38.22 37.40 33.34 32.48
47.66 47.98 48.23 47.64 47.52 46.88 45.34 44.66 44.57 45.19 45.12 44.01 43.09 43.31 43.97 43.73 42.72 41.15 40.25 40.79 40.37 39.69 39.22 38.53 38.23 37.28 36.62 36.60 35.62 34.61 34.24 34.52
46.75 47.72 47.21 47.15 46.38 45.96 45.24 44.81 44.13 43.12 43.37 42.59 41.73 41.23 41.62 41.69 41.52 40.55 40.22 39.77 38.85 38.31 37.76 37.12 36.71 36.50 36.72 37.90 36.80 34.54 33.94 34.67
46.31 46.79 46.23 46.38 45.28 44.04 43.50 42.85 42.16 41.10 41.00 40.62 40.49 40.02 40.40 40.69 40.30 39.06 38.66 38.64 38.27 37.64 36.64 35.90 35.51 34.86 34.16 34.51 35.16 35.08 35.83 36.97
45.67 46.23 43.69 41.74 41.44 41.51 41.41 41.25 40.42 40.42 40.62 40.86 40.20 39.79 39.96 40.08 39.74 39.11 38.48 38.19 37.57 36.77 35.94 35.54 35.30 34.87 34.09 34.24 34.33 35.41 37.48 37.00

GFSFLT2_sfc_wetblb_048.txt.gz
Wetbulb
71.02 71.29 70.60 68.96 68.50 68.28 68.30 68.46 68.47 68.22 67.96 67.60 67.13 66.80 66.95 66.65 66.19 65.32 64.74 64.52 64.28 63.78 63.52 63.58 63.45 62.79 62.37 62.10 61.14 61.47 63.40 62.48
69.83 69.92 69.75 69.83 69.76 67.32 67.36 67.32 66.82 66.70 66.56 65.72 65.57 65.47 65.57 65.67 65.58 65.18 64.56 64.44 64.36 64.18 63.99 63.84 63.10 62.17 61.89 61.41 60.75 61.95 63.26 62.69
68.27 67.52 68.12 68.18 67.78 67.79 66.50 66.14 65.85 65.39 65.59 65.12 64.81 67.33 67.19 66.45 64.05 64.60 64.43 64.10 63.95 63.84 63.29 62.18 62.40 61.93 61.29 61.31 61.56 63.08 63.14 62.90
65.47 66.02 66.03 66.03 64.66 66.55 66.63 65.83 65.82 67.11 67.17 67.42 68.21 68.60 68.97 67.38 65.71 63.42 63.51 62.79 62.57 61.86 61.59 62.13 63.59 64.37 64.39 63.15 63.15 63.15 62.93 62.56
64.02 64.92 65.72 65.28 64.85 65.58 65.22 65.62 66.21 67.66 67.96 69.06 68.73 68.87 69.62 69.68 69.39 68.59 68.66 63.68 66.13 64.80 65.24 64.92 63.57 63.75 63.48 63.28 62.25 62.25 62.17 61.83
63.96 64.64 65.16 65.48 65.21 65.18 65.86 66.26 67.35 67.65 68.63 68.67 69.58 69.20 69.36 68.13 67.69 68.16 67.38 66.26 64.89 65.32 65.36 64.45 63.91 62.41 61.37 60.78 60.72 60.54 60.12 59.80
64.44 65.24 64.86 65.19 65.93 66.46 67.17 67.99 68.17 68.86 69.53 69.34 69.38 69.14 68.26 67.35 66.63 66.57 65.67 65.09 64.54 64.20 64.01 62.39 61.73 60.66 59.99 59.43 58.79 58.87 58.50 58.46
65.31 65.63 66.16 66.30 66.32 66.68 66.96 67.37 67.10 67.87 68.01 68.08 67.55 67.72 65.09 63.98 63.63 64.46 65.07 63.33 62.35 61.61 60.25 60.07 59.75 59.11 58.57 58.38 58.04 58.18 57.86 57.74
64.91 65.75 66.72 66.58 65.46 64.70 63.92 63.28 63.77 64.07 65.19 65.26 66.13 66.00 64.89 63.65 63.81 62.80 60.18 60.60 60.11 60.51 59.21 58.76 57.68 56.80 56.39 56.19 57.38 57.55 56.74 56.54
65.04 65.14 65.35 64.27 64.16 64.07 62.49 61.75 59.98 61.01 61.97 62.59 62.16 62.07 61.32 60.37 60.01 57.46 58.38 58.02 57.76 57.18 56.58 55.72 55.68 55.42 55.25 55.38 55.21 55.54 55.49 54.69
64.66 64.97 63.80 62.15 59.15 59.15 59.08 59.35 59.94 59.03 58.77 58.56 57.86 57.62 58.18 57.07 57.06 57.17 57.38 57.64 56.71 55.74 55.26 54.29 53.00 52.78 52.44 51.57 51.60 52.46 51.75 51.64
64.89 64.02 61.45 59.55 60.01 59.53 58.62 57.16 56.35 56.87 57.07 57.90 58.41 58.05 57.62 57.86 57.16 56.69 56.77 56.10 55.23 53.99 52.73 52.63 51.58 50.72 49.77 48.81 51.03 51.10 51.31 52.57
64.43 63.08 62.06 61.40 59.85 57.71 56.46 56.52 56.67 57.12 57.92 57.73 57.29 57.12 56.60 57.05 56.98 56.50 55.81 54.30 53.14 52.23 51.12 49.90 49.01 50.20 48.16 48.04 48.85 50.36 52.36 51.99
63.81 63.51 63.14 63.95 62.98 61.19 59.93 58.96 58.37 58.01 57.70 56.81 56.65 56.26 56.06 55.91 55.97 55.16 53.81 52.00 51.48 50.68 49.74 48.12 48.07 48.99 46.35 45.86 43.25 45.88 48.75 50.77
63.42 63.76 63.82 62.78 61.22 60.02 58.99 57.99 57.37 56.65 56.74 56.62 55.61 55.53 55.38 55.33 54.47 53.53 52.21 51.37 49.28 49.41 48.88 47.53 45.41 47.08 47.96 45.01 41.65 40.35 43.40 46.36
61.57 61.84 61.30 60.54 60.05 58.58 57.28 57.37 56.12 56.55 57.88 56.68 56.79 55.58 55.07 54.12 52.81 52.21 51.21 50.72 49.39 48.63 47.88 47.74 46.72 44.24 45.59 46.09 46.27 44.06 38.99 37.67
59.01 58.62 58.15 58.13 57.86 57.93 57.85 55.97 56.43 57.03 57.24 54.41 54.85 54.54 53.14 52.00 51.52 51.11 50.74 50.02 49.49 48.80 48.00 47.30 46.59 44.80 44.10 43.95 43.83 43.38 43.18 37.82
58.04 57.41 56.73 57.09 57.19 57.12 56.44 55.06 53.03 53.22 52.49 51.06 51.22 51.22 51.33 51.11 50.85 50.98 50.84 50.12 49.27 48.46 48.14 47.21 46.26 45.61 44.91 43.78 40.92 38.13 37.46 37.01
57.51 57.00 55.67 56.23 55.89 54.96 53.52 52.07 50.66 50.23 49.98 50.20 49.09 48.88 49.28 49.95 50.47 50.37 49.97 49.74 49.22 48.40 47.33 46.35 45.67 44.75 44.30 42.97 42.91 41.70 40.87 39.48
56.19 55.69 54.01 53.74 53.09 51.82 51.61 50.90 52.51 51.11 50.23 49.93 49.39 49.15 49.20 50.09 50.22 50.13 49.78 49.18 48.62 47.81 46.77 46.02 45.89 45.20 44.06 43.04 42.11 41.91 41.07 40.03

GFSFLT2_sfc_wetblb_051.txt.gz
Wetbulb
70.34 70.23 70.16 69.34 68.76 68.42 68.35 68.78 68.82 68.42 68.08 67.65 67.09 67.12 67.02 66.50 66.11 65.03 64.60 64.39 64.10 63.91 63.76 64.03 63.36 62.87 62.83 62.59 62.33 63.21 63.58 62.50
69.67 69.95 69.77 69.95 69.59 67.64 67.62 67.50 67.11 66.80 66.61 65.88 65.64 65.66 65.72 65.84 65.95 65.48 64.59 64.41 64.14 64.22 64.08 63.51 62.61 61.70 61.69 61.79 62.48 62.82 63.30 62.80
68.53 67.72 68.20 68.32 68.20 68.15 66.75 66.64 66.17 65.64 65.32 65.33 64.34 66.61 66.84 65.83 64.56 64.89 64.29 63.82 63.76 63.45 63.09 62.93 63.28 63.15 62.14 61.75 62.62 62.95 62.79 62.67
66.91 67.17 66.89 66.27 64.85 66.40 66.29 65.17 65.02 66.32 66.47 66.76 67.85 68.08 68.17 67.12 65.76 64.60 64.53 63.88 64.07 63.54 63.04 63.59 63.61 64.32 63.59 63.64 62.75 62.86 62.58 62.21
65.04 65.61 65.73 65.29 65.14 65.53 65.01 64.94 66.70 67.69 68.42 68.42 68.56 67.99 68.37 67.78 67.65 67.39 67.20 64.49 65.56 64.16 64.30 64.12 64.46 63.85 63.05 63.02 62.49 62.22 61.56 61.34
63.45 64.58 65.05 65.47 64.48 64.12 64.69 65.17 66.58 67.17 68.00 68.69 69.05 68.27 68.69 67.58 67.01 66.94 67.61 65.69 64.86 64.57 63.75 64.62 63.93 63.27 62.25 61.49 61.39 60.76 60.52 59.94
64.52 64.78 65.53 66.19 66.32 66.89 67.47 67.05 68.12 68.45 68.07 68.36 69.27 68.87 66.91 67.47 67.71 66.06 64.82 64.76 64.18 63.75 63.47 62.69 62.20 62.09 61.09 60.43 60.07 60.22 60.39 59.72
65.43 65.49 66.08 66.96 67.34 67.57 67.35 66.63 66.52 66.68 67.23 67.61 67.69 67.10 66.83 66.26 65.67 64.88 64.19 63.25 62.56 62.02 60.92 60.35 59.98 60.60 59.44 59.55 59.03 59.19 59.34 59.18
65.91 66.22 67.29 67.00 65.83 65.21 64.53 64.13 63.74 63.18 63.67 65.13 65.57 65.79 64.97 64.40 63.57 62.13 61.07 60.59 60.65 59.59 59.26 59.08 58.20 58.54 58.06 58.00 57.93 58.01 57.23 57.32
66.56 66.13 66.61 65.24 63.80 62.76 62.50 61.93 62.10 60.97 61.03 61.56 62.40 62.73 62.12 61.74 59.90 58.77 58.69 57.83 57.17 57.78 57.19 56.49 55.95 55.53 54.97 55.01 54.84 54.08 54.37 55.05
65.79 66.06 63.77 63.64 61.47 60.53 59.97 59.51 59.96 59.91 60.11 59.25 59.20 59.18 59.07 58.94 58.27 58.16 58.42 57.54 57.27 56.40 55.25 54.51 52.90 52.51 51.97 52.18 52.88 51.45 53.24 52.39
66.11 64.14 62.18 62.16 62.84 60.23 60.56 58.94 58.31 58.32 58.57 58.08 58.52 58.49 58.63 58.33 57.98 57.68 57.44 56.35 55.80 54.71 53.39 52.62 51.25 50.50 49.65 49.99 51.71 51.47 51.93 51.85
64.71 62.48 63.66 63.98 63.25 61.94 60.75 59.68 58.89 58.56 58.45 58.76 58.56 58.27 58.00 58.02 57.49 56.97 56.56 54.55 53.99 53.44 51.61 50.28 49.27 49.97 47.92 47.98 48.84 51.25 52.28 52.14
63.18 63.14 63.52 64.37 63.55 63.31 62.20 60.52 59.24 58.87 58.76 58.55 58.20 58.09 57.22 56.89 56.87 55.73 54.95 53.24 52.24 51.49 50.54 48.47 48.42 48.91 45.50 44.94 42.49 44.67 47.71 49.51
64.19 64.35 64.27 63.87 62.55 61.25 60.81 59.66 58.85 57.44 57.60 57.60 57.20 57.19 56.60 56.38 55.47 54.26 53.10 52.00 50.12 50.40 49.79 48.00 45.51 46.81 47.68 44.02 40.04 38.88 42.69 45.85
62.87 62.81 62.60 61.53 61.09 59.44 58.53 56.52 55.31 57.48 57.69 57.74 57.65 56.92 55.62 54.42 53.41 52.63 52.22 51.44 50.48 50.11 49.23 48.56 47.31 44.24 45.60 45.80 46.12 44.49 39.12 37.82
62.14 61.78 60.50 60.33 59.75 59.46 58.43 57.86 58.24 58.15 56.89 55.68 55.39 55.25 54.45 52.98 52.30 51.75 51.63 51.08 50.67 50.03 49.18 48.15 47.19 45.26 44.21 43.87 43.51 43.42 43.22 39.67
59.85 59.15 58.63 59.08 59.00 58.78 57.90 56.85 55.81 55.23 54.35 52.66 52.56 52.18 51.90 51.89 51.43 51.80 51.39 50.76 50.24 49.50 49.31 47.78 46.91 45.50 44.95 44.00 42.56 40.46 39.49 39.27
59.06 58.32 57.46 58.47 58.51 57.62 56.31 54.69 52.77 51.85 51.97 51.66 50.44 49.90 50.00 50.54 50.96 50.28 49.56 49.70 49.65 49.38 48.63 47.53 46.52 45.07 44.59 43.58 43.43 42.31 42.22 40.04
58.41 58.08 57.17 57.34 56.34 54.61 54.00 52.29 53.06 52.25 51.58 50.88 50.30 49.94 50.12 50.86 50.02 49.51 49.19 49.25 49.81 48.53 47.77 47.31 46.46 46.18 44.61 44.21 43.03 42.53 41.62 40.80

GFSFLT2_sfc_wetblb_054.txt.gz
Wetbulb
68.98 69.24 69.45 68.78 68.31 68.19 68.33 68.64 68.12 67.98 67.66 67.23 67.09 66.74 66.59 66.41 66.14 65.93 65.58 65.27 64.90 64.42 64.45 64.54 64.04 63.33 63.00 62.38 62.44 63.12 60.30 59.13
68.40 68.66 68.89 68.43 67.91 67.37 67.21 66.96 66.55 66.32 65.92 65.67 65.52 65.35 65.71 65.90 65.58 65.60 65.57 65.16 64.66 64.07 64.75 64.30 64.23 63.30 62.64 62.10 62.23 62.90 58.98 58.68
68.21 67.99 68.23 67.54 67.33 67.09 66.42 66.44 65.80 65.17 64.98 65.08 63.75 63.76 63.93 64.89 64.70 65.25 65.31 64.95 64.74 64.48 64.30 64.05 63.64 63.65 63.64 63.42 62.97 59.40 58.80 59.05
66.43 66.54 66.70 66.86 65.50 66.06 65.20 64.55 63.67 63.96 64.00 63.95 64.60 66.37 65.10 65.61 64.35 64.76 65.16 64.86 64.84 64.64 64.42 63.48 63.07 61.02 61.06 61.97 59.64 59.95 58.96 58.32
64.40 65.56 65.63 64.52 63.60 65.04 63.75 63.20 65.00 65.79 66.73 67.16 66.91 66.43 66.47 65.25 65.34 64.67 64.35 64.36 64.23 63.29 62.36 61.94 62.27 61.12 59.97 59.54 59.16 58.36 57.55 57.34
63.53 64.54 64.92 64.21 63.89 63.84 63.66 64.02 66.09 65.92 66.76 66.61 66.18 65.54 65.68 64.81 64.37 64.84 64.38 63.34 62.42 62.41 61.54 62.32 60.95 60.65 60.15 58.83 58.35 57.65 56.94 57.16
62.84 63.89 64.75 64.50 64.93 65.94 65.31 66.43 66.08 66.11 66.70 67.16 66.64 65.59 63.91 64.13 64.35 64.00 63.31 62.48 60.92 59.80 59.34 58.98 58.14 58.20 58.20 57.78 57.20 56.34 56.70 56.27
63.18 63.96 65.51 66.49 65.82 66.07 64.71 63.80 62.56 62.68 64.13 64.56 65.65 65.12 64.66 63.95 63.33 62.67 60.62 59.80 59.26 57.98 58.20 56.27 56.05 56.59 56.57 57.08 56.70 56.37 55.51 54.94
63.34 64.17 66.03 65.21 63.95 63.67 62.25 61.74 61.12 60.48 61.94 63.20 63.01 63.14 62.85 61.67 59.26 57.94 57.45 57.58 55.85 55.66 55.19 55.28 54.31 54.43 52.71 52.81 52.58 52.31 50.87 51.33
64.14 64.97 64.90 63.72 62.72 61.75 60.98 60.42 59.90 60.63 60.15 60.76 60.81 60.72 60.03 59.15 57.86 56.02 56.17 55.36 54.67 54.06 53.25 51.56 50.85 49.97 49.26 49.14 49.48 49.46 49.14 49.42
64.21 63.99 62.79 61.85 60.36 60.38 59.70 59.85 60.51 59.58 59.12 58.48 58.40 57.95 58.25 56.73 56.29 55.96 56.02 54.83 54.54 52.62 51.04 49.88 47.75 47.26 47.24 46.31 47.36 47.25 48.23 49.80
64.19 62.90 60.75 60.44 61.07 60.66 60.41 60.67 59.25 58.49 57.77 57.49 57.67 57.44 57.67 56.67 55.93 54.93 54.92 53.29 52.37 51.08 49.33 48.46 47.14 46.18 47.59 46.49 45.63 46.73 46.85 47.18
63.01 60.99 61.24 61.56 60.68 59.69 58.78 58.08 58.17 57.13 57.26 57.73 57.34 56.99 56.69 55.94 55.34 54.43 53.55 51.63 50.26 49.37 47.55 46.05 45.16 45.69 42.93 42.79 42.96 44.26 43.91 44.86
62.48 62.25 61.45 62.23 62.62 62.16 60.87 58.94 57.44 56.84 57.03 56.89 57.08 56.37 55.62 55.42 54.19 52.53 51.81 49.85 48.92 48.16 46.57 44.71 43.89 44.65 41.26 40.72 37.36 39.62 42.10 43.79
62.91 62.66 62.48 63.17 62.65 60.66 60.10 59.21 57.14 55.55 55.65 55.29 55.58 55.85 55.35 53.86 52.87 51.47 49.76 48.66 46.95 46.62 45.88 44.57 41.65 42.84 43.51 39.53 36.36 34.17 38.39 40.89
63.31 63.57 63.03 62.48 60.40 59.07 57.41 55.06 53.82 55.20 55.30 55.73 55.46 55.50 53.91 53.02 51.45 49.90 49.13 48.63 47.28 46.69 46.37 44.48 43.19 40.79 41.74 44.22 41.13 39.34 35.51 34.33
62.47 61.65 60.75 60.01 59.49 58.66 57.30 56.54 56.29 55.95 55.36 54.57 53.89 53.54 53.48 52.23 50.69 49.65 48.39 48.45 47.65 46.99 46.82 45.28 43.50 41.49 40.44 39.55 39.06 38.90 38.63 35.93
61.30 59.43 58.67 58.98 58.36 58.30 57.27 56.03 53.73 52.55 51.78 50.33 51.36 50.47 49.88 49.76 49.82 48.96 48.46 47.66 46.94 47.12 45.17 44.55 43.65 42.59 41.65 40.72 39.33 37.70 36.78 35.72
58.57 57.77 56.82 57.69 57.69 57.24 56.09 53.63 51.63 50.80 51.06 49.79 48.74 48.29 47.90 47.93 48.35 47.36 46.59 46.48 46.28 46.18 45.44 44.05 43.56 41.87 40.99 40.56 40.68 39.74 39.69 38.58
57.65 56.88 56.34 57.17 56.76 54.67 53.71 52.09 51.48 50.70 49.67 48.63 48.50 47.88 47.78 48.39 47.28 46.62 46.05 46.05 45.23 44.65 44.64 43.75 43.45 42.03 41.86 40.77 40.77 40.72 39.52 38.23

GFSFLT2_sfc_wetblb_060.txt.gz
Wetbulb
66.69 66.77 67.04 67.85 67.74 67.52 66.98 66.97 67.15 67.22 67.03 66.57 66.25 66.08 65.95 66.06 65.99 66.06 65.66 65.45 64.97 64.39 63.68 63.76 63.96 64.02 63.75 63.04 62.14 61.11 55.04 56.28
65.69 65.86 67.23 66.76 66.83 66.09 65.78 65.82 65.64 65.70 65.62 65.32 64.68 64.70 65.20 65.38 65.27 65.45 65.43 65.08 64.71 63.91 63.48 63.28 63.12 63.02 63.24 62.82 61.08 59.48 55.72 57.10
65.55 66.17 66.17 66.04 65.69 65.59 65.40 65.59 65.04 64.66 64.46 64.51 62.66 61.80 62.32 63.09 63.33 64.49 65.12 64.74 64.25 63.77 63.73 62.95 62.50 61.83 63.06 62.08 59.68 55.06 55.94 56.08
65.55 65.57 65.39 65.40 65.68 63.78 62.92 63.44 62.27 62.12 61.99 61.56 61.08 61.27 61.38 63.03 62.94 63.86 64.37 64.19 64.32 64.13 63.70 62.78 60.77 57.56 57.06 58.52 55.36 54.83 54.45 54.99
65.03 65.16 64.98 63.79 63.04 61.82 61.12 60.57 60.11 60.34 60.46 60.65 60.78 62.60 62.15 62.10 61.60 62.61 62.19 63.98 60.99 59.34 57.97 56.99 56.20 55.47 55.16 54.37 54.47 53.98 52.87 53.35
63.63 64.02 62.56 61.19 62.06 60.69 59.40 59.60 60.77 61.92 63.09 63.31 62.22 61.42 60.82 60.72 60.84 59.99 58.23 57.44 56.55 55.79 54.58 54.47 53.79 53.70 52.71 51.80 51.51 51.32 50.29 50.40
61.30 62.49 58.78 59.79 60.42 60.31 61.86 62.61 62.82 62.90 63.39 63.22 62.15 60.93 60.73 58.91 57.69 57.29 55.73 54.90 53.44 52.20 52.11 51.63 50.73 50.18 49.82 49.08 49.21 48.03 47.11 47.40
59.24 59.47 59.83 62.08 60.56 60.34 59.75 60.75 60.74 61.52 62.08 62.27 61.61 60.65 58.71 57.02 56.04 55.03 53.84 52.61 51.83 50.32 48.86 47.83 46.88 47.26 46.97 46.83 46.96 45.79 45.54 46.08
58.80 59.77 62.02 60.13 59.05 58.78 57.50 59.15 60.26 60.13 60.11 60.08 59.10 57.86 56.20 54.40 53.33 52.00 51.37 51.19 49.51 48.54 47.44 46.43 45.38 46.07 44.51 44.51 44.87 44.54 45.03 44.88
60.04 63.44 60.20 59.17 58.24 57.63 57.37 57.35 57.30 57.63 57.72 57.19 56.70 56.09 54.12 51.92 51.12 50.81 51.41 50.38 48.68 47.55 46.09 44.45 43.46 43.02 41.95 41.48 41.70 42.92 43.02 43.63
60.36 60.07 58.65 58.06 57.84 57.04 56.36 56.32 55.80 55.64 55.11 54.21 54.38 54.10 53.42 51.58 50.87 50.53 50.69 49.04 47.97 47.65 44.69 43.46 41.99 41.61 42.69 40.92 40.42 40.66 40.74 43.93
60.05 59.36 58.13 57.50 57.22 56.52 56.18 55.38 54.69 54.24 53.25 52.82 53.27 53.87 53.80 52.06 50.60 49.25 48.52 46.83 46.27 44.69 42.86 42.54 41.55 40.77 43.45 41.43 39.62 39.62 39.23 39.54
59.38 58.08 57.48 57.11 56.26 55.28 54.45 53.38 53.73 52.93 52.54 53.51 52.81 52.48 52.13 50.36 49.35 47.87 46.71 45.38 44.66 43.80 42.52 41.18 40.31 39.88 37.93 37.98 38.20 38.56 38.94 38.61
58.08 58.10 57.82 57.48 56.83 56.36 55.80 54.14 53.51 52.48 52.32 52.05 51.73 51.71 51.17 49.68 47.81 46.50 45.39 44.38 43.36 42.52 41.65 40.25 39.91 39.72 37.65 35.82 34.01 35.69 37.76 39.73
57.79 57.94 58.02 57.76 57.26 57.39 53.95 52.19 51.02 50.15 49.86 49.49 50.40 51.11 50.56 49.23 47.92 46.28 44.62 43.98 42.81 41.73 41.26 40.41 38.31 38.99 38.87 37.34 33.62 31.24 33.60 36.51
58.21 58.58 58.06 57.80 58.44 57.11 53.37 50.48 49.26 49.11 49.46 49.71 50.17 50.46 49.30 48.54 47.17 45.75 44.57 44.22 42.82 42.25 42.99 40.56 39.76 38.31 38.50 40.47 37.61 36.06 32.48 31.42
58.45 58.39 58.22 58.67 58.82 56.57 53.77 49.61 49.28 49.81 50.38 49.75 50.00 49.35 48.97 48.19 46.13 44.51 43.91 43.93 42.49 41.81 41.94 40.58 39.79 38.47 37.56 37.18 35.95 35.52 34.74 32.54
57.93 57.62 58.36 58.17 56.23 53.43 51.40 49.92 49.07 48.91 48.04 47.12 47.52 47.00 46.97 45.95 44.73 43.22 42.39 41.78 41.40 40.85 40.37 40.10 39.74 39.41 38.94 37.82 37.00 35.53 34.44 33.41
56.52 55.64 52.41 51.95 50.74 49.85 49.07 47.17 46.61 46.00 45.92 46.60 46.04 45.74 45.44 44.63 44.05 41.23 40.60 40.25 39.78 39.19 38.35 37.75 38.33 38.44 37.94 37.73 37.99 37.81 37.83 37.28
54.24 51.93 51.06 49.98 48.27 46.84 46.31 46.27 45.61 46.20 46.89 46.66 45.99 45.35 43.55 43.02 41.32 39.60 38.93 38.78 38.35 37.93 37.05 36.53 37.43 37.67 37.12 37.06 37.29 37.73 38.10 38.28

GFSFLT2_sfc_wetblb_063.txt.gz
Wetbulb
65.93 66.25 66.77 67.07 67.51 67.15 66.99 67.55 67.61 67.63 67.26 66.78 66.35 65.99 65.91 66.14 66.05 66.03 65.57 65.24 64.98 64.66 64.38 64.26 64.39 64.47 62.90 61.69 60.99 60.24 55.45 58.14
65.11 65.63 66.12 66.45 66.25 65.97 65.77 65.90 66.03 66.07 65.87 65.33 64.81 64.89 64.95 65.19 64.96 65.29 65.32 65.20 64.96 64.60 64.16 63.71 63.24 63.67 62.00 60.93 60.34 59.76 55.87 56.82
64.63 65.03 64.96 65.48 65.16 65.43 65.30 65.67 65.14 64.61 64.43 64.15 62.08 61.62 61.52 61.44 64.05 64.53 64.89 64.61 64.64 64.61 63.82 62.47 60.87 60.87 61.33 59.94 58.19 55.16 55.00 55.25
60.85 63.68 65.10 64.95 65.18 63.67 62.82 63.44 62.06 61.87 61.67 60.54 60.30 60.44 61.18 62.20 62.98 63.93 64.37 64.24 64.31 62.86 61.45 59.86 57.75 54.83 54.50 56.16 53.58 52.97 52.50 53.09
62.81 63.68 64.68 63.85 62.95 61.55 60.82 59.97 59.88 60.08 60.17 59.98 60.63 61.44 61.99 61.30 61.37 61.47 60.95 60.18 56.97 56.59 55.26 54.18 52.78 51.71 51.03 50.67 49.87 49.44 48.08 48.79
62.87 63.56 63.94 62.41 61.35 60.01 59.05 58.88 59.59 59.84 59.93 60.94 61.53 60.44 60.01 59.40 57.92 57.09 56.41 55.23 53.68 52.92 52.29 51.29 50.31 50.04 49.26 48.19 47.12 46.09 45.57 46.07
61.97 63.24 60.84 60.27 59.14 58.26 59.42 60.88 61.78 62.49 62.46 62.31 60.86 59.49 57.80 57.00 55.80 54.59 53.28 52.62 51.14 50.08 48.96 48.33 47.39 47.04 46.86 46.13 45.24 44.71 44.69 44.85
60.80 61.10 58.46 60.29 59.62 60.23 60.95 61.52 61.56 61.66 61.48 61.23 61.13 59.26 57.04 55.57 54.18 53.08 52.22 50.70 49.18 47.86 46.39 45.49 44.46 44.42 43.84 44.23 43.82 43.54 43.20 42.91
59.37 58.59 60.72 60.06 59.49 59.48 59.31 60.32 60.82 60.62 59.95 59.38 58.28 56.78 54.97 53.15 51.77 50.53 50.23 49.12 47.76 46.39 44.99 44.04 43.37 43.98 42.00 42.22 42.25 42.49 42.52 42.35
58.49 61.87 59.29 58.51 57.56 57.31 57.90 58.70 58.21 58.45 58.00 57.01 56.17 55.10 52.95 51.34 50.72 50.43 49.75 48.08 46.80 45.24 43.90 42.73 42.13 41.71 40.05 39.90 40.12 40.92 41.25 41.47
60.00 59.38 57.74 57.06 56.40 56.24 56.10 56.42 56.22 55.88 55.05 54.44 53.75 52.45 51.82 50.36 50.28 49.31 48.53 47.72 47.21 45.51 43.39 42.31 40.72 40.40 40.73 39.60 38.70 38.59 39.60 42.17
60.00 58.31 57.18 56.22 55.98 55.38 54.86 54.42 53.98 53.33 52.63 52.53 52.68 52.67 52.36 50.34 49.43 48.67 47.81 46.20 44.48 42.95 41.82 41.64 40.40 39.70 42.51 40.60 38.20 37.86 38.43 38.70
58.55 57.27 56.80 56.32 55.39 54.36 53.04 52.64 52.55 51.54 51.58 52.32 52.45 52.46 51.86 49.81 47.82 46.51 45.33 44.69 43.20 42.58 41.54 40.15 39.41 39.07 37.27 37.58 37.13 37.31 37.71 37.56
57.62 57.77 56.80 56.49 56.19 55.24 54.96 53.27 52.68 51.38 51.68 51.44 51.48 50.93 49.68 48.80 46.91 45.39 44.55 43.71 42.52 41.77 40.95 39.61 39.13 38.72 36.90 34.74 33.88 35.62 36.61 38.19
57.50 57.43 57.13 56.90 56.23 55.36 52.97 51.68 50.74 50.00 49.64 49.16 49.66 50.58 49.64 48.36 46.75 45.14 43.53 43.04 41.64 40.64 40.21 39.45 38.01 38.21 38.24 37.12 33.02 31.25 32.83 35.73
57.49 57.63 57.37 57.53 56.93 55.92 53.81 50.67 49.10 49.02 48.88 48.59 49.14 49.92 49.06 47.84 45.92 44.51 43.55 42.90 41.82 41.97 41.99 39.57 38.84 37.69 37.72 39.50 36.86 35.55 32.45 30.96
57.10 57.63 57.83 57.70 57.74 56.66 52.91 49.60 48.74 48.71 48.77 48.57 48.45 47.68 47.33 46.38 45.02 43.58 43.10 42.19 41.60 40.66 40.17 39.42 38.84 37.51 36.72 36.33 35.33 34.47 33.62 32.17
57.08 57.85 57.49 57.37 57.14 55.66 53.09 50.03 48.51 48.32 47.96 47.40 45.51 44.80 44.90 44.99 44.65 42.69 42.37 43.10 40.69 39.21 38.15 37.80 37.79 37.73 37.71 37.03 36.35 34.81 33.81 32.26
57.58 57.58 56.60 56.64 55.92 53.70 52.04 49.43 48.94 48.58 47.10 44.48 43.46 43.65 44.12 44.16 44.14 43.78 42.01 38.96 38.26 38.26 36.93 35.86 35.83 35.73 35.95 36.49 36.71 36.87 36.63 35.70
57.34 56.36 52.43 52.18 51.21 50.69 47.87 47.13 46.13 45.85 45.04 44.24 45.02 45.22 43.13 44.12 43.78 41.78 40.07 38.58 37.54 36.79 35.79 35.90 36.26 35.59 35.20 35.13 35.64 36.46 36.87 36.64

GFSFLT2_sfc_wetblb_066.txt.gz
Wetbulb
66.11 66.56 67.12 66.72 67.18 67.71 67.66 67.77 67.52 67.65 67.08 66.81 66.54 66.12 66.23 66.13 66.16 65.88 65.74 65.53 65.47 65.36 64.86 64.73 64.08 63.60 63.01 61.74 61.13 61.11 57.71 58.85
65.17 65.40 65.75 65.87 66.01 66.41 66.36 66.34 66.39 66.16 65.87 65.36 64.68 64.87 65.08 65.37 64.81 65.56 65.68 65.56 65.47 64.89 63.86 64.08 63.17 62.19 61.76 61.41 60.24 58.90 55.98 56.99
64.95 65.10 64.44 65.26 65.24 65.54 65.67 66.18 65.65 64.85 64.54 64.08 62.07 61.28 60.95 61.54 64.05 64.79 65.40 65.17 64.61 63.16 62.03 60.80 59.79 60.27 59.99 59.05 56.78 53.85 54.24 54.72
62.48 63.23 63.12 64.70 64.91 62.93 62.80 63.40 62.00 61.86 61.21 60.36 60.13 60.04 60.72 61.83 63.20 64.54 64.72 63.15 61.86 60.66 59.25 57.64 54.54 51.61 51.40 52.59 49.87 49.29 48.89 49.83
61.79 62.89 63.30 63.05 62.57 61.27 60.64 60.14 60.22 60.35 59.64 59.77 60.38 61.22 60.44 60.97 60.77 60.13 57.38 57.49 54.32 53.53 51.92 50.68 49.83 49.41 47.98 47.20 46.93 46.67 46.09 46.53
59.58 60.19 62.36 62.41 61.62 59.93 59.15 58.91 59.07 59.07 59.49 60.61 60.99 60.45 59.68 57.49 56.93 55.97 54.07 52.71 51.18 50.33 49.24 48.36 47.78 47.61 46.67 45.83 45.30 44.63 44.39 45.01
57.92 58.95 61.83 60.95 59.57 58.44 58.04 58.96 59.62 60.33 60.64 61.73 60.55 59.12 56.21 55.80 53.94 52.76 51.62 50.39 49.05 47.58 46.67 46.19 45.48 45.27 44.75 44.31 43.92 43.53 43.48 43.75
60.54 61.79 60.61 59.98 58.31 58.12 58.73 60.66 61.10 61.21 61.05 60.67 60.12 57.59 55.72 53.91 52.53 51.44 49.96 48.55 47.03 45.94 44.74 43.68 42.91 43.15 42.64 43.12 42.88 42.57 42.18 42.33
60.12 59.89 58.94 59.14 58.49 59.19 59.76 60.41 60.64 60.55 59.99 59.92 58.34 56.77 54.63 52.13 50.88 49.03 48.26 48.70 47.34 45.85 43.85 43.04 42.31 42.73 41.23 41.34 41.80 41.91 41.92 41.79
58.54 61.06 59.76 58.92 58.36 58.71 59.18 59.34 58.58 58.22 57.96 57.90 57.04 54.71 52.28 51.27 51.13 50.22 50.07 48.67 47.23 45.70 43.53 41.67 41.10 40.70 39.93 39.35 40.03 40.95 41.64 41.71
57.74 59.45 57.95 57.43 56.35 56.61 56.85 56.75 57.22 56.41 56.43 55.75 54.41 52.03 51.49 52.42 50.48 48.63 48.78 47.66 46.96 46.28 43.74 41.92 40.23 40.30 41.05 39.51 38.97 39.22 40.59 41.96
58.70 57.59 56.19 55.35 55.07 54.55 54.43 54.41 54.61 54.31 53.22 52.36 51.35 50.95 50.91 50.23 49.63 47.97 47.70 45.99 43.48 42.53 41.64 41.22 40.43 39.69 41.82 40.00 38.39 38.40 38.93 39.44
57.51 56.27 55.57 55.92 55.03 53.03 52.38 52.48 52.08 51.96 52.83 52.45 52.90 51.43 50.17 49.03 47.30 45.73 45.49 44.13 42.33 42.00 41.14 40.20 39.70 38.92 37.88 38.23 37.45 37.98 38.17 38.43
56.91 56.65 55.85 55.82 55.68 53.77 53.41 52.54 51.99 50.84 52.22 51.93 51.65 51.12 49.90 48.18 46.28 44.82 44.21 42.65 41.99 41.56 40.69 39.69 39.06 38.97 37.26 35.38 34.13 36.31 36.92 38.50
57.82 56.89 56.23 55.91 55.40 54.74 53.73 53.46 50.59 49.88 49.67 49.02 49.72 50.20 49.33 47.42 45.93 44.16 42.93 42.52 41.28 40.49 40.30 39.81 38.13 38.61 38.53 37.29 33.27 31.67 33.53 36.64
57.74 57.19 56.57 56.17 56.00 54.66 53.84 52.85 50.31 50.10 49.32 48.54 48.54 49.18 47.96 47.10 45.35 43.58 42.91 42.57 42.67 41.32 43.06 39.68 39.19 37.92 38.55 39.35 37.05 35.99 33.44 32.00
56.43 56.73 56.71 56.83 56.71 55.96 55.34 53.91 50.14 48.82 48.25 48.02 47.26 46.47 46.25 45.24 44.11 43.42 44.74 42.80 42.16 41.24 40.07 39.22 38.88 37.77 36.96 36.53 35.71 34.82 34.05 32.87
55.59 56.31 57.21 56.79 56.61 56.61 55.54 53.04 48.70 47.59 47.20 46.52 45.43 44.78 44.11 44.45 45.33 44.44 41.92 43.30 42.04 39.10 37.83 37.50 37.30 37.14 37.25 36.64 36.24 35.26 34.03 32.72
56.47 56.87 56.47 57.05 56.47 56.95 55.76 51.59 48.60 48.08 47.02 44.95 43.29 43.23 42.52 43.18 44.24 44.28 42.79 41.44 40.04 37.43 36.60 35.90 35.64 35.14 35.37 36.12 36.69 36.66 36.79 35.81
57.07 56.95 56.75 56.13 56.13 56.15 53.17 50.67 49.23 47.72 46.25 43.92 43.59 43.73 44.03 45.09 45.31 43.93 41.35 40.22 37.70 37.72 36.02 35.67 36.06 35.94 35.73 35.68 35.93 36.30 36.60 36.43

GFSFLT2_sfc_wetblb_069.txt.gz
Wetbulb
66.95 68.13 67.91 67.34 67.73 67.82 67.52 67.68 67.29 66.98 67.08 66.83 66.81 66.62 66.27 66.15 65.98 66.05 66.00 66.04 65.97 65.71 65.04 64.73 64.52 63.83 62.98 62.31 61.96 61.89 62.74 62.78
65.55 65.73 65.63 65.79 65.85 66.61 66.43 66.34 65.83 65.78 65.69 65.23 64.96 64.85 65.17 65.30 65.47 65.87 65.87 65.53 65.38 64.58 63.63 63.05 62.70 62.40 61.20 60.36 59.58 60.33 61.53 61.81
64.06 63.17 62.95 62.90 64.15 65.65 66.39 66.19 65.32 64.81 64.81 64.24 62.98 63.65 63.66 64.28 64.61 65.35 65.28 64.35 63.53 62.03 60.52 59.66 59.86 58.98 57.74 56.83 57.61 58.75 60.10 60.01
63.11 61.85 63.12 62.78 64.89 64.81 65.54 64.90 64.16 64.01 63.89 63.52 63.01 64.01 64.46 64.29 64.46 64.44 63.06 61.96 60.67 59.38 57.60 57.42 57.08 56.02 55.00 55.39 54.54 54.88 55.41 55.75
60.98 61.39 63.19 63.67 63.90 63.55 62.86 63.03 63.26 63.36 63.09 63.42 64.44 64.18 64.71 64.99 64.98 62.03 59.87 58.58 56.33 56.49 56.26 55.13 54.73 54.20 53.37 53.57 53.36 53.30 53.52 53.48
60.15 61.56 62.45 63.66 63.29 62.06 61.65 61.51 61.97 61.99 63.13 64.63 64.78 64.30 64.56 63.09 60.86 58.81 57.81 57.39 55.97 55.76 54.43 53.97 53.26 52.79 52.46 51.72 51.75 51.72 52.41 52.50
59.59 60.78 61.93 62.86 62.00 61.29 61.00 61.83 62.24 63.29 64.04 65.39 65.31 63.57 60.53 59.20 58.34 57.93 56.83 55.72 54.85 54.33 53.47 52.56 51.89 51.43 51.27 50.71 50.47 50.76 51.53 52.41
58.44 59.57 62.08 62.32 60.98 61.17 61.26 62.55 62.86 63.37 63.84 64.69 63.92 61.33 59.82 58.66 57.33 56.29 55.15 54.81 53.94 53.32 52.51 51.25 50.47 50.71 50.14 49.96 49.69 49.82 50.30 52.19
57.85 59.81 63.05 62.35 60.87 61.13 61.98 62.73 63.65 63.42 63.89 63.90 61.94 60.59 59.56 58.32 56.60 55.40 54.47 53.90 53.20 51.90 51.20 51.35 50.32 49.49 49.27 49.13 49.37 49.72 49.60 49.85
59.59 62.00 63.16 62.76 61.78 61.78 62.62 63.69 63.55 63.79 63.63 63.27 61.59 60.39 58.77 57.24 55.74 55.09 54.77 53.95 51.88 51.79 51.33 49.83 49.59 49.56 49.42 48.82 49.27 49.58 49.10 49.20
61.46 62.84 62.35 62.00 61.48 62.26 63.20 63.84 63.28 62.77 62.81 61.41 58.59 58.12 57.48 57.22 55.27 55.26 55.04 53.50 53.01 51.54 50.44 50.68 49.61 49.56 49.17 49.34 49.42 49.13 49.06 48.58
61.71 62.04 61.41 60.85 61.13 61.54 61.65 61.86 61.36 61.25 60.88 60.08 58.60 56.36 56.69 55.70 55.58 54.67 54.46 52.21 50.92 50.88 50.31 50.17 50.18 50.13 47.97 48.24 48.84 48.20 49.33 49.63
61.30 61.11 60.63 59.86 59.54 59.84 59.56 59.95 59.23 59.61 59.07 57.45 55.71 55.51 55.05 56.30 54.76 53.79 52.87 52.01 51.15 51.13 50.44 49.91 49.31 49.70 48.58 48.21 47.32 46.92 46.79 47.93
60.91 60.79 60.27 60.40 60.99 60.38 60.07 59.13 58.21 58.62 57.81 55.99 54.88 54.68 55.48 55.12 53.67 52.48 52.45 51.00 50.77 51.02 50.60 49.23 49.39 49.08 47.62 45.91 43.61 44.53 45.76 46.61
60.70 61.04 60.74 60.68 60.59 58.86 57.32 56.85 55.92 55.40 55.21 53.71 54.88 54.91 55.07 53.96 53.23 52.59 51.85 51.65 50.48 50.15 49.71 48.92 47.63 47.81 47.12 45.62 41.36 39.42 42.04 46.76
61.21 60.60 60.01 59.84 59.65 58.72 57.76 56.74 54.24 55.25 54.03 53.54 54.44 55.31 54.12 53.19 52.19 52.09 51.81 50.87 50.21 50.07 49.57 48.91 48.48 46.62 47.23 46.53 46.37 44.86 39.49 38.31
60.64 60.31 59.80 59.45 59.34 59.13 58.24 56.22 56.41 55.53 53.07 53.74 53.98 53.97 53.47 52.20 52.13 51.58 50.83 50.15 49.50 49.47 48.72 47.82 48.59 46.29 44.73 44.96 44.61 44.39 43.99 40.56
59.97 59.84 59.43 59.40 59.20 58.85 58.16 56.73 55.08 54.00 53.31 52.94 52.90 52.73 52.22 51.84 50.83 50.40 49.21 48.73 46.32 46.34 46.53 45.41 46.03 45.96 45.44 44.63 43.03 41.27 40.77 40.67
59.15 59.28 58.36 59.36 59.12 58.84 58.52 57.33 55.63 55.02 53.77 53.26 52.15 51.44 50.49 49.96 49.88 48.18 48.54 44.33 43.36 43.61 44.87 44.90 44.78 44.39 44.14 43.83 44.67 44.04 43.59 41.63
58.97 58.32 58.74 59.21 58.94 58.75 58.76 57.50 55.07 55.16 54.84 53.86 53.04 52.08 50.65 49.75 49.10 46.94 44.62 43.67 43.33 43.09 43.58 45.05 45.03 44.86 44.68 44.53 44.24 43.44 43.08 41.72

GFSFLT2_sfc_wetblb_072.txt.gz
Wetbulb
69.92 69.41 68.96 67.39 67.26 67.61 67.38 67.23 67.05 66.86 67.25 67.22 66.93 66.48 66.25 66.41 66.32 66.62 66.60 66.37 66.01 65.71 65.59 65.09 64.50 63.49 62.89 62.30 61.73 62.44 64.15 63.85
65.86 65.28 65.34 65.31 66.05 66.29 66.34 66.29 66.13 66.04 65.94 65.32 64.93 65.10 65.50 65.76 65.71 66.19 66.54 66.09 64.69 64.14 64.36 63.77 62.41 61.36 60.41 60.30 60.65 61.70 63.78 62.49
63.23 62.38 61.99 63.57 64.44 66.40 65.93 65.80 65.27 64.75 64.59 64.04 63.17 62.83 63.50 64.29 65.13 65.46 65.43 64.50 63.08 61.98 61.57 60.67 59.71 58.27 57.93 58.35 59.70 62.55 62.29 61.53
61.87 61.47 59.76 59.69 61.71 64.18 65.51 64.02 63.40 63.50 63.64 64.18 63.35 64.51 64.97 64.82 64.42 63.75 63.05 62.01 60.72 59.42 59.49 59.51 61.69 61.52 59.70 59.94 60.11 59.91 59.35 58.67
61.11 60.63 60.41 60.00 59.99 60.99 64.62 63.62 63.96 63.76 64.46 64.22 65.01 65.50 65.42 66.03 64.34 63.59 62.61 61.81 59.97 60.24 60.50 60.95 60.29 60.19 59.23 58.66 58.09 57.42 57.13 56.54
61.41 60.41 60.33 60.56 60.05 60.61 62.92 62.68 63.30 63.08 64.07 65.27 65.61 65.63 66.09 66.36 65.10 63.88 61.93 61.98 60.69 60.65 59.69 59.29 58.27 57.54 56.77 55.63 55.25 54.75 54.60 54.79
57.85 59.73 60.82 61.63 62.45 62.56 62.93 62.65 62.77 63.62 64.47 65.87 66.90 66.58 66.63 65.77 63.90 61.51 61.81 60.86 61.36 60.19 59.07 57.81 56.15 55.17 54.71 53.99 53.53 53.91 53.89 54.93
58.83 57.84 59.63 60.33 60.78 63.06 62.65 62.82 63.21 64.23 65.52 67.26 67.89 67.17 65.38 62.15 61.94 62.15 61.09 61.46 60.63 59.16 57.32 55.63 54.82 54.56 53.66 53.33 53.06 52.94 53.20 54.27
59.30 60.00 62.28 63.38 63.24 62.99 62.38 63.18 63.95 64.92 66.05 66.90 65.24 64.04 63.65 63.69 62.55 61.66 60.60 59.56 58.29 56.93 55.78 55.13 54.21 53.48 52.62 52.89 53.59 53.26 52.68 52.27
62.22 61.08 63.88 64.65 63.36 62.55 62.08 63.82 65.32 65.87 66.72 67.08 65.79 64.85 64.13 63.16 61.65 60.37 59.32 58.29 57.17 56.21 55.17 53.82 54.09 54.26 54.07 53.62 54.06 53.80 52.76 52.02
60.19 62.20 64.57 65.10 64.71 63.20 64.11 65.41 66.10 66.24 66.16 66.53 65.91 64.38 63.52 62.47 61.08 59.52 59.14 57.59 57.28 55.40 54.86 56.03 54.12 55.03 53.74 54.11 54.18 53.60 53.38 52.03
61.50 63.27 64.40 65.60 64.79 64.35 64.80 65.07 65.04 65.17 65.50 65.61 64.31 63.28 62.11 61.74 60.61 59.70 58.87 57.36 55.69 54.71 54.47 55.25 55.31 54.33 51.89 51.94 53.26 52.30 52.31 52.06
63.07 64.01 65.26 65.12 63.59 61.94 62.57 62.73 63.19 63.85 64.27 64.18 62.60 58.51 60.95 61.82 60.02 58.77 58.07 56.63 55.51 55.61 55.24 54.18 54.82 55.29 52.29 53.01 52.71 51.53 50.96 50.83
63.33 63.96 64.75 64.94 63.32 62.98 63.99 64.45 62.78 63.82 64.36 61.47 60.93 59.91 60.23 59.05 59.18 57.98 57.49 56.18 55.18 54.97 54.73 54.87 55.33 54.95 50.81 50.01 47.62 49.22 49.61 49.95
63.00 64.07 64.75 65.18 65.00 63.58 64.18 64.23 62.74 62.34 62.29 58.71 57.74 57.50 58.55 59.12 58.67 58.05 57.37 56.27 54.86 55.09 54.49 53.47 53.14 53.19 51.43 48.80 44.51 43.23 45.04 49.42
63.47 64.16 64.72 65.24 65.37 63.63 62.35 61.50 60.93 61.60 60.82 58.71 56.57 57.09 58.59 58.61 58.11 57.90 57.06 55.88 55.08 54.80 54.46 54.15 52.33 50.75 52.00 49.71 48.74 46.84 42.09 41.03
64.80 64.72 65.05 65.31 65.15 64.50 63.20 62.45 62.34 60.30 56.59 55.13 56.53 57.39 58.63 57.78 57.52 57.33 56.38 55.40 54.93 53.70 53.20 52.47 52.30 49.73 47.86 47.20 46.73 46.55 46.33 43.29
63.97 63.74 63.70 64.16 63.80 63.93 63.41 62.74 60.46 57.83 55.24 54.98 56.78 57.95 57.95 57.43 57.02 56.90 56.21 54.24 53.64 52.91 50.38 48.90 49.27 48.76 47.87 46.85 45.29 43.64 43.34 43.14
63.13 63.40 62.93 63.88 63.31 62.96 61.85 61.73 60.74 58.67 56.68 55.85 57.42 56.66 56.04 56.49 56.57 55.79 54.05 53.51 48.17 45.58 46.35 49.50 48.89 47.93 47.28 46.15 46.78 45.88 45.63 44.19
62.93 63.04 62.70 63.39 63.12 62.12 62.34 62.29 61.63 60.12 58.14 58.03 57.73 56.79 57.07 57.20 55.81 54.74 53.55 45.54 45.51 46.16 47.81 49.04 49.11 48.07 47.08 46.72 46.27 46.21 45.81 44.73

GFSFLT2_sfc_wetblb_075.txt.gz
Wetbulb
68.44 69.42 69.23 68.24 67.64 67.46 67.25 67.02 67.13 67.41 67.35 67.27 66.85 66.45 66.59 66.76 66.56 67.03 67.05 67.30 67.31 66.57 65.57 65.22 64.42 63.61 62.60 61.99 61.91 63.71 63.52 62.65
67.01 66.69 67.94 67.12 66.54 65.98 65.99 66.17 66.63 66.72 66.34 65.65 65.27 65.44 65.75 65.80 66.06 66.49 66.17 66.04 65.89 64.96 64.32 63.68 62.32 61.50 60.93 60.66 60.95 63.00 62.64 61.71
65.21 63.40 62.90 63.82 64.32 65.86 65.87 65.90 65.81 65.10 64.88 64.02 62.97 63.25 62.91 64.65 65.47 65.53 64.87 64.42 64.36 63.46 62.56 61.31 59.89 58.98 58.47 58.95 60.02 61.30 60.46 59.95
61.99 61.27 60.54 61.79 62.93 63.83 64.68 64.42 64.31 63.88 62.78 63.82 62.34 64.12 64.99 64.44 64.24 63.71 63.00 62.51 62.27 62.57 61.69 61.14 61.66 61.24 60.20 60.08 60.48 59.50 58.38 57.83
60.54 61.16 61.07 60.77 62.43 63.17 63.42 63.33 63.78 63.80 64.24 63.38 64.87 65.35 65.20 64.59 63.46 63.07 62.13 62.34 60.90 61.07 60.23 62.00 62.16 61.91 60.91 59.19 57.67 57.16 56.32 55.89
59.80 60.82 60.21 59.42 60.50 58.32 60.77 62.98 63.53 62.96 63.77 66.05 66.41 64.53 65.57 64.98 63.55 63.77 63.35 62.90 62.50 62.18 61.38 61.19 60.53 58.90 57.45 56.58 56.00 55.52 55.03 55.15
59.19 59.43 59.31 58.54 58.62 57.22 58.34 61.75 63.27 63.93 64.82 65.70 65.55 65.19 66.13 66.01 65.84 63.98 63.60 63.04 62.13 61.86 61.27 60.01 57.59 56.52 56.00 55.05 54.38 54.56 54.99 55.43
57.39 58.47 59.50 59.93 60.24 60.92 61.46 62.97 63.60 64.18 64.91 66.17 68.11 67.87 66.12 65.91 63.87 63.08 62.19 62.76 62.84 61.99 60.01 57.58 56.29 56.03 54.81 54.12 53.99 54.09 54.20 54.53
56.55 56.30 57.09 57.24 57.44 57.85 58.79 61.97 63.57 63.56 65.95 68.00 67.01 66.73 65.72 65.04 63.50 63.13 63.03 62.86 61.70 59.61 57.47 56.77 55.35 54.74 54.19 54.17 54.32 54.13 53.59 53.01
57.42 57.66 57.36 57.38 59.30 60.37 60.83 62.53 63.67 65.34 65.72 67.24 66.63 66.18 65.43 64.97 63.88 63.07 62.34 60.91 59.69 57.86 56.79 55.24 55.58 55.87 55.52 55.16 54.40 53.73 53.40 52.98
58.04 59.12 58.66 61.09 63.09 63.17 63.50 64.91 66.13 65.84 66.66 66.29 65.95 65.67 65.35 64.70 63.63 62.61 61.74 59.76 58.59 57.30 56.53 56.95 55.43 55.47 54.63 54.80 55.26 53.53 53.26 52.27
61.04 61.76 62.09 63.03 64.23 64.12 63.64 63.99 65.38 66.21 66.32 66.18 65.60 65.66 64.91 64.45 63.21 61.84 60.86 58.94 57.52 56.84 56.52 56.28 56.59 56.03 54.46 54.44 55.14 54.43 53.55 52.69
60.93 61.81 62.57 64.00 63.80 62.23 61.65 61.73 63.78 64.78 65.15 65.69 65.86 64.91 64.47 64.15 62.78 61.29 60.36 58.35 57.32 57.16 56.60 55.94 55.22 56.47 53.83 54.53 54.29 53.91 52.77 52.28
61.19 62.67 63.87 64.43 64.10 62.65 62.20 62.97 64.35 65.50 65.90 64.59 64.34 61.68 61.51 63.57 62.38 60.48 59.24 57.80 57.06 56.98 56.48 55.20 56.06 55.75 52.58 51.45 49.13 51.14 51.49 51.86
61.58 62.89 64.20 65.02 64.30 62.55 62.84 65.05 63.89 62.79 63.49 62.83 62.89 62.59 63.01 62.75 61.56 60.21 58.86 58.15 56.31 56.85 56.65 55.86 54.27 54.95 53.52 50.73 46.70 45.67 46.98 50.14
63.36 64.14 63.91 64.75 65.80 63.07 62.80 62.41 61.23 62.70 62.95 62.43 59.29 59.21 59.86 60.72 60.65 59.71 59.10 57.95 57.24 56.79 56.53 56.40 54.84 52.48 53.43 51.71 50.98 48.98 44.37 43.37
63.74 64.44 64.75 65.07 65.38 64.91 63.50 62.79 62.53 63.66 62.51 61.32 58.73 57.30 58.95 60.02 59.72 59.02 58.54 57.41 57.31 56.77 55.37 54.16 53.56 49.92 47.44 49.05 49.08 47.96 47.65 44.30
65.21 64.05 64.14 65.26 65.41 65.23 64.53 63.24 62.99 61.90 60.57 58.26 57.81 56.71 57.80 59.74 58.55 58.57 58.34 57.49 56.09 54.94 54.06 52.83 48.60 49.77 50.15 49.05 46.70 45.08 44.41 44.36
64.80 64.33 64.00 65.02 65.38 64.85 65.24 64.59 63.89 61.50 60.01 58.89 58.01 57.48 57.62 58.95 58.57 58.34 57.54 56.29 55.14 53.16 50.30 48.48 49.15 50.07 49.48 48.09 47.49 46.91 47.15 45.86
64.23 64.17 63.73 64.44 64.55 64.53 64.46 64.71 63.51 61.87 61.23 60.32 59.18 57.88 59.44 59.77 58.45 58.22 56.66 55.07 52.27 49.99 48.87 47.54 49.40 50.32 49.14 48.31 47.34 47.25 47.35 46.19

GFSFLT2_sfc_wetblb_078.txt.gz
Wetbulb
69.40 68.94 68.75 68.00 67.51 67.17 66.88 67.36 67.48 67.50 67.43 67.15 67.04 66.70 66.86 67.46 67.87 68.64 68.62 68.14 67.21 66.41 65.80 65.19 64.63 63.24 62.22 61.37 62.34 63.37 59.74 59.85
65.25 67.38 67.31 66.82 66.57 65.97 65.99 66.49 66.42 66.57 66.08 65.63 65.28 65.38 65.74 66.25 66.42 67.11 67.38 66.84 65.79 65.10 64.59 63.76 62.70 61.37 60.60 60.14 61.44 61.44 57.54 58.73
64.73 63.67 64.27 65.33 65.66 66.24 66.20 66.28 65.53 65.13 64.79 64.28 62.55 62.31 63.32 64.28 65.08 65.66 66.16 65.54 64.85 63.75 63.12 61.81 60.59 59.69 59.81 59.97 60.47 56.32 55.40 55.31
62.61 62.07 62.79 63.88 64.60 64.29 64.71 64.99 63.81 63.48 62.38 62.02 61.26 62.64 63.42 63.77 63.65 64.13 64.60 64.29 63.71 63.27 62.46 61.03 60.53 57.11 56.31 59.51 55.14 55.10 54.16 52.52
60.21 60.91 61.04 61.10 61.38 61.46 61.41 61.72 60.84 61.02 61.67 62.36 62.42 62.98 62.94 62.33 60.88 60.39 60.06 61.44 59.05 59.94 59.73 58.70 59.66 58.33 56.24 53.96 53.80 53.22 52.49 53.33
59.29 59.56 58.72 57.84 58.20 58.22 59.70 61.12 61.33 59.24 62.39 63.25 63.33 62.55 62.07 61.30 61.34 60.40 59.95 59.68 58.82 59.04 59.22 58.95 56.84 55.46 54.15 53.14 52.46 51.32 50.71 52.88
58.87 59.65 59.09 58.17 57.65 59.00 60.79 60.99 60.64 61.35 62.68 64.50 63.89 62.55 61.83 62.02 61.96 61.02 60.16 60.48 60.27 59.00 58.55 57.38 54.68 53.77 52.61 52.15 51.72 51.18 51.33 53.43
58.68 58.40 58.82 57.23 57.87 59.05 60.32 60.45 61.12 62.24 63.74 64.03 64.44 63.28 63.50 63.32 62.29 61.67 60.20 60.47 59.96 59.41 57.82 55.01 53.55 52.70 51.52 51.37 50.93 50.48 50.24 50.50
56.55 56.87 57.98 57.27 56.77 56.16 57.24 60.25 61.68 61.42 63.03 63.06 63.40 64.23 63.65 63.02 61.50 60.54 59.72 61.13 59.72 57.32 54.58 53.26 51.67 52.03 51.11 50.72 51.14 50.24 50.33 49.38
56.69 58.04 56.70 56.44 55.81 55.49 56.62 57.25 60.57 61.73 62.05 63.12 62.52 63.38 63.40 62.48 61.54 60.81 61.00 58.45 56.89 54.82 53.30 52.00 51.66 51.51 50.47 49.99 49.84 49.76 49.28 48.76
56.67 57.03 56.39 56.34 55.85 55.17 55.36 57.74 60.97 61.23 62.36 62.25 62.87 63.87 64.20 63.08 62.33 61.03 59.40 58.22 56.34 54.67 52.81 52.53 51.10 50.74 51.37 50.33 50.22 49.07 48.94 50.25
56.36 56.74 56.87 56.29 55.93 55.65 58.30 60.64 61.00 62.28 62.60 63.01 63.55 63.85 64.21 62.63 62.08 59.58 59.04 56.51 55.34 53.74 52.60 52.34 52.27 51.30 53.32 52.13 50.30 50.01 48.82 47.59
57.04 56.91 57.40 57.35 58.90 58.20 59.03 59.04 60.85 62.23 62.40 62.69 63.88 63.72 63.50 62.64 60.88 59.36 58.65 55.96 54.03 54.61 53.32 51.71 50.79 51.58 49.34 50.31 50.60 50.28 48.45 47.45
58.76 59.20 59.65 60.29 60.58 61.02 60.12 60.60 61.57 62.29 62.82 63.36 63.57 63.21 63.08 62.17 60.43 58.87 58.07 55.65 54.32 53.89 52.96 52.14 52.25 51.59 48.33 47.14 44.50 46.23 47.28 48.62
59.74 60.56 60.91 61.81 62.18 62.45 60.65 61.54 61.90 61.70 61.78 62.34 62.83 61.35 60.96 60.74 61.22 58.85 57.04 55.61 53.76 53.92 53.01 52.17 50.46 51.49 50.00 46.76 42.61 40.50 41.68 45.64
59.89 60.46 62.06 63.17 63.31 60.59 59.16 58.72 58.94 60.77 61.50 61.90 61.97 61.03 60.32 61.40 60.93 58.75 56.47 55.73 54.17 54.13 54.72 52.72 50.76 48.72 50.72 51.30 47.74 44.62 39.73 38.07
60.00 61.13 62.40 63.15 63.43 63.04 60.20 60.63 60.69 61.64 61.70 60.92 58.94 58.49 58.65 59.39 59.01 58.41 56.93 56.34 55.71 54.06 53.45 51.52 50.69 48.58 45.86 45.69 46.10 44.39 43.79 39.95
60.94 62.11 62.70 63.28 63.62 63.40 62.44 61.34 60.72 60.31 60.19 59.05 58.26 58.06 57.80 57.77 58.27 57.56 56.78 56.09 55.26 53.38 52.50 51.10 48.25 47.04 47.26 46.71 43.57 41.38 39.87 38.94
61.79 61.95 61.52 62.97 63.13 63.33 62.81 62.28 61.28 60.71 60.17 58.54 57.02 56.25 56.46 56.36 56.91 55.93 55.80 55.65 53.60 52.10 50.16 48.12 47.36 46.38 46.35 46.06 45.06 42.68 42.96 41.83
61.46 61.65 61.55 62.55 63.50 63.46 63.44 63.66 62.58 61.90 61.02 59.08 57.80 57.54 56.45 56.49 56.94 56.39 55.94 53.94 51.09 49.66 48.43 47.98 47.00 46.62 46.41 45.12 44.42 44.88 43.54 42.43

GFSFLT2_sfc_wetblb_081.txt.gz
Wetbulb
62.47 69.03 69.02 68.55 67.64 67.30 67.25 67.47 67.41 67.67 67.80 67.88 67.84 67.91 68.38 69.17 69.38 69.18 68.55 67.44 66.70 65.95 65.46 64.48 63.37 62.66 62.11 61.93 61.90 61.98 58.18 59.80
61.44 64.58 67.47 66.75 66.53 66.73 66.51 66.40 66.40 66.48 66.41 66.15 65.77 66.33 67.18 68.03 67.93 67.84 67.40 66.56 66.11 65.31 64.47 63.15 62.25 61.07 60.75 60.44 60.69 60.67 55.88 56.68
61.96 62.92 65.57 65.95 66.15 66.37 66.17 66.11 65.46 65.20 65.02 64.53 63.34 63.68 64.06 65.02 66.46 66.43 66.44 65.62 65.16 64.67 63.55 62.00 60.88 59.70 59.33 60.41 58.16 53.62 52.44 52.74
62.96 64.10 64.52 65.11 65.59 64.95 64.68 64.02 62.62 62.23 61.42 60.55 62.44 62.51 62.95 64.31 65.13 65.26 65.13 64.66 64.08 63.66 62.53 61.40 59.11 55.32 54.29 56.30 51.19 51.04 49.77 51.58
62.18 63.11 64.02 63.91 63.99 63.66 61.97 62.01 61.52 60.57 60.00 60.94 62.68 62.56 61.26 61.20 61.21 60.96 61.00 61.72 59.67 60.24 58.93 56.72 55.93 54.43 51.24 50.06 49.83 50.88 50.13 52.08
60.06 60.13 59.64 58.40 58.81 59.10 59.69 59.65 59.12 59.35 59.89 61.30 61.70 61.18 59.36 59.01 58.35 57.83 57.63 56.83 56.34 56.25 56.68 54.86 52.51 52.19 51.16 49.99 49.10 48.78 49.68 52.32
57.70 57.55 57.06 56.69 56.55 56.40 56.62 56.95 57.51 59.21 61.44 62.44 61.73 60.49 59.67 59.67 58.22 58.21 57.65 57.00 57.05 56.03 55.65 54.23 51.36 50.87 49.63 49.54 49.17 48.40 51.15 51.27
57.39 57.34 57.26 57.17 57.05 57.75 59.12 59.41 60.05 61.15 62.05 62.22 62.36 61.99 60.54 60.44 58.86 58.82 58.28 58.10 57.54 56.49 55.99 51.97 50.47 49.73 48.67 49.17 48.39 47.83 49.15 50.36
57.30 56.54 56.95 57.07 56.44 57.78 59.32 60.65 61.03 60.79 61.32 62.07 61.83 62.20 61.53 61.16 59.56 57.64 57.76 57.82 57.52 56.68 53.66 51.10 49.42 50.16 48.58 48.67 48.30 47.59 47.24 47.78
56.28 57.53 56.46 56.01 55.57 55.98 57.68 58.13 58.60 59.47 60.20 60.83 60.49 62.42 61.90 60.07 59.22 57.54 58.12 56.27 53.93 51.52 50.04 48.74 47.75 47.26 46.93 46.20 47.13 46.84 46.78 46.55
55.49 55.78 55.33 55.87 55.35 55.51 56.33 56.85 57.48 58.76 59.00 60.40 59.38 60.08 61.91 60.66 59.59 58.61 57.03 55.17 53.11 52.16 50.68 49.21 48.61 47.97 48.06 47.16 46.88 46.54 46.48 48.38
55.67 55.35 55.48 55.33 54.50 54.12 54.72 54.75 57.59 59.52 58.75 60.36 59.95 60.51 61.75 61.44 60.55 58.03 57.43 54.97 52.81 51.19 49.76 49.99 48.61 48.52 51.65 49.03 46.81 46.88 46.30 45.11
55.26 54.66 54.64 54.17 52.69 51.67 52.76 53.54 57.71 58.47 59.34 60.67 60.79 61.16 61.66 60.92 58.86 57.90 55.98 53.40 51.71 51.27 49.59 48.50 47.97 48.32 47.36 47.24 48.09 47.55 45.99 45.28
54.97 54.74 54.44 54.06 53.58 53.01 54.68 56.51 57.75 59.00 60.47 60.68 60.94 61.14 60.96 60.34 57.91 56.88 56.26 53.55 51.43 50.70 49.89 48.98 49.17 48.43 46.56 44.64 42.62 44.46 45.78 46.44
54.53 55.09 54.88 54.95 56.11 56.62 57.56 57.32 58.22 59.06 59.39 59.74 61.19 61.34 60.82 60.54 58.58 57.20 55.68 53.13 50.80 50.36 50.21 49.74 47.69 48.27 47.86 45.49 41.25 39.36 40.40 43.08
54.95 55.63 55.46 56.22 58.15 58.05 58.00 56.55 56.78 58.05 58.43 59.12 59.98 59.73 59.25 59.44 59.17 57.77 55.97 53.62 51.96 51.54 52.07 50.20 48.69 47.15 47.16 48.75 45.63 43.25 38.76 37.39
56.18 57.69 58.39 58.76 59.40 59.28 58.78 55.74 58.33 58.47 58.99 58.64 58.30 58.16 58.39 58.70 58.27 56.52 55.05 52.88 52.11 52.49 51.16 49.84 48.78 46.00 44.29 43.82 44.86 43.04 41.47 38.61
57.46 57.88 58.95 59.89 60.40 60.62 58.91 56.99 58.14 58.44 58.63 58.26 56.96 56.11 56.31 57.04 57.81 56.49 54.85 54.12 52.98 52.86 50.64 48.33 46.99 46.29 45.43 44.89 44.06 40.35 40.64 37.72
57.13 57.01 57.30 60.39 60.40 60.70 60.45 58.62 58.46 58.40 58.38 58.15 56.21 55.91 55.43 56.17 56.61 55.50 55.35 54.41 52.73 52.15 50.73 48.20 46.08 44.68 44.68 44.72 45.26 43.18 41.70 40.04
56.50 56.85 56.98 59.81 60.84 60.79 61.08 59.45 59.25 59.07 59.28 58.79 57.77 56.78 55.94 55.49 55.37 54.54 54.58 53.14 51.81 50.56 49.11 47.44 46.84 45.57 45.01 44.91 44.62 44.59 44.28 42.27

GFSFLT2_sfc_wetblb_084.txt.gz
Wetbulb
62.52 62.42 65.81 66.82 68.41 67.62 67.13 67.50 67.82 68.13 68.35 68.69 69.01 68.84 69.01 69.12 68.81 68.35 67.51 66.46 66.05 65.73 64.65 63.82 63.54 62.67 62.89 62.76 62.20 62.24 58.54 59.52
61.13 61.64 62.18 66.35 66.95 66.53 66.53 66.97 67.06 67.60 67.69 67.38 67.24 67.63 68.28 68.23 67.66 67.22 66.44 66.12 65.85 64.91 63.54 63.05 62.52 61.66 62.34 61.64 60.86 59.74 55.99 57.45
60.57 62.73 63.77 65.15 66.42 66.51 66.46 66.46 66.33 66.01 66.13 65.90 65.63 67.61 67.68 66.51 66.23 66.09 66.11 65.59 64.98 64.02 63.05 61.99 60.08 60.69 60.36 59.30 57.45 52.75 53.62 54.92
62.68 64.46 65.21 65.28 65.90 65.61 65.19 64.81 63.89 63.78 63.23 62.53 63.51 64.91 65.84 65.95 65.46 65.41 65.34 64.65 64.04 63.45 62.32 60.50 57.78 51.74 52.06 55.36 50.18 49.26 50.54 52.41
63.06 63.43 64.06 63.91 63.91 63.78 62.63 62.10 61.07 59.93 61.62 62.20 62.71 63.28 63.25 63.90 63.47 62.57 61.31 61.96 59.98 59.41 56.42 55.51 53.74 51.02 49.82 49.30 49.74 48.96 49.49 52.17
61.72 62.83 63.07 63.18 62.70 60.95 60.44 59.65 59.54 60.06 61.88 61.31 60.78 60.12 59.69 59.44 59.94 58.28 56.89 56.90 56.55 55.10 54.92 51.64 50.65 50.32 49.00 48.38 49.22 48.23 50.07 52.57
58.56 59.79 59.45 60.13 60.03 59.58 59.27 58.79 59.11 60.97 61.41 61.18 59.95 58.75 58.07 57.96 57.10 55.83 55.46 55.99 55.57 55.47 53.16 51.19 49.92 49.06 48.42 47.87 48.27 49.39 49.48 51.05
57.23 56.97 56.91 56.72 55.98 56.84 56.33 57.23 60.03 60.93 61.65 61.29 60.46 59.56 58.66 57.30 56.31 55.69 55.68 56.20 55.74 55.02 52.52 49.58 48.78 48.05 47.36 47.77 47.44 49.74 49.19 50.15
55.98 56.21 56.82 56.56 56.72 56.15 56.51 59.97 60.89 60.83 61.41 61.70 60.89 60.14 59.53 57.53 56.94 56.31 56.64 56.22 55.80 54.85 51.39 49.99 48.41 48.60 47.62 47.20 46.83 47.67 49.40 49.14
56.13 56.96 56.19 56.26 57.25 58.44 58.73 59.51 59.69 60.02 60.05 60.87 61.54 60.48 60.27 58.54 57.77 56.77 56.81 56.49 55.57 53.26 50.13 48.38 47.62 46.71 45.66 46.04 46.05 45.88 45.38 48.69
55.86 55.90 55.43 55.57 56.40 56.87 56.71 57.09 57.62 58.71 59.15 59.58 59.13 61.50 60.51 59.05 57.57 56.70 56.35 54.54 53.36 50.89 48.41 47.74 45.81 45.80 45.97 44.84 44.80 44.65 44.83 48.06
55.54 56.06 55.60 55.94 56.25 56.40 55.92 55.79 56.45 57.76 58.06 59.52 58.90 58.74 60.48 58.89 58.05 57.19 54.98 52.99 50.99 49.47 48.66 48.11 47.07 46.69 49.21 47.19 44.54 44.68 44.13 43.73
55.11 55.09 55.09 54.72 54.51 53.97 54.03 53.63 54.99 57.00 57.97 58.57 58.34 57.80 59.57 59.61 58.85 56.55 55.13 53.15 51.26 49.84 48.15 48.02 46.62 47.19 46.43 46.05 46.32 46.56 44.46 42.98
54.64 54.49 53.65 53.20 53.51 54.37 53.91 53.90 54.36 56.20 57.55 58.08 59.12 59.74 60.16 60.34 58.44 57.48 55.74 53.31 50.45 49.72 49.01 47.67 47.21 47.13 45.59 43.90 42.22 44.05 45.25 44.84
53.71 53.37 53.31 52.84 52.89 51.47 53.46 54.11 55.62 55.86 56.64 56.88 58.18 59.55 59.69 60.51 58.30 57.77 55.79 53.80 51.15 49.72 48.53 48.57 47.28 46.76 46.68 44.97 40.11 39.14 39.28 41.78
54.22 53.83 53.44 53.35 53.04 51.91 52.12 52.22 52.72 55.44 56.25 57.26 58.09 59.38 59.85 60.71 59.14 57.15 55.85 53.42 51.06 50.30 50.61 48.84 48.14 46.15 45.98 46.98 43.66 41.92 38.51 37.42
53.77 54.26 54.18 53.77 53.90 53.58 53.26 54.77 55.61 56.08 56.56 56.97 57.98 58.26 59.35 59.83 58.51 57.01 55.17 53.27 51.42 50.85 50.02 49.70 48.32 46.96 45.82 45.04 43.17 42.16 40.57 38.27
53.73 53.51 53.99 54.22 54.78 55.30 55.18 55.50 56.04 56.58 57.52 57.58 57.92 58.25 58.47 58.01 58.63 56.68 55.60 53.58 52.53 52.55 51.67 49.46 47.60 46.33 45.14 44.68 42.54 40.60 39.36 38.26
53.48 53.55 53.83 54.75 55.17 55.70 56.81 57.42 56.52 56.60 57.44 57.80 57.38 56.86 56.44 56.98 57.33 55.41 54.24 53.73 52.38 52.76 51.67 49.43 47.72 45.88 45.12 44.54 43.43 42.57 42.52 41.02
53.46 53.80 54.66 56.44 57.17 57.37 58.12 58.54 57.76 57.89 57.97 58.66 57.91 57.78 57.95 58.36 57.28 55.49 53.83 53.17 52.99 51.65 48.95 48.02 47.37 47.17 46.20 45.50 44.86 44.42 44.31 43.12

GFSFLT2_sfc_wetblb_090.txt.gz
Wetbulb
63.07 64.63 66.99 67.46 67.38 67.51 67.55 68.00 68.13 68.74 69.17 69.04 68.79 68.05 67.77 67.65 67.60 67.28 66.15 65.70 66.21 66.67 65.85 64.70 64.66 63.97 63.36 62.55 61.55 60.75 56.94 57.11
60.63 61.79 63.99 65.24 64.87 66.39 66.27 66.20 66.58 67.44 67.74 67.99 67.35 67.21 67.13 66.83 66.44 65.71 65.37 64.90 65.44 65.78 64.97 64.49 64.21 63.69 62.86 62.20 61.62 60.38 56.96 56.79
60.76 60.58 61.44 63.45 65.42 66.26 66.17 66.02 65.97 66.20 66.57 66.95 66.01 66.59 65.36 64.42 64.48 64.90 64.60 64.12 64.42 65.11 64.72 63.84 63.05 62.74 62.52 61.43 59.50 56.98 57.81 57.76
59.97 60.98 60.99 61.84 65.30 65.61 65.12 64.90 63.34 64.88 67.15 66.82 66.69 65.59 63.46 63.01 64.01 64.33 63.96 63.04 63.37 64.35 63.51 62.64 60.16 57.59 58.72 57.69 54.88 56.09 57.39 57.78
62.10 62.66 62.39 61.34 61.91 64.72 64.24 63.88 62.31 62.86 65.43 66.12 66.11 65.15 62.85 62.17 62.16 61.22 59.97 60.25 57.46 57.83 55.27 53.91 53.05 51.30 50.39 50.54 51.09 52.47 54.16 56.36
61.02 60.85 61.59 62.09 62.03 64.30 63.24 61.50 61.17 61.64 64.22 64.97 65.43 64.28 61.38 60.16 59.23 58.23 57.62 55.69 53.18 51.71 49.70 49.69 48.87 48.76 48.84 47.58 48.41 49.85 51.58 53.77
60.15 61.19 61.00 61.66 62.04 62.53 61.67 60.58 60.73 61.83 63.47 64.37 65.08 63.67 61.07 59.54 57.41 56.11 55.76 53.63 52.49 49.43 49.16 48.59 47.85 48.54 47.81 47.90 48.63 50.21 51.84 53.49
58.98 60.21 60.62 60.53 61.34 61.15 61.04 61.01 60.96 62.41 63.07 63.38 64.14 62.67 60.68 58.46 56.39 55.79 55.02 54.46 51.51 50.01 48.71 47.50 46.83 47.79 47.18 48.21 48.41 48.83 50.78 53.76
57.97 58.65 59.57 59.72 59.35 59.63 60.21 60.62 61.57 62.30 62.52 61.23 60.30 60.42 59.49 57.16 55.89 55.46 54.98 54.42 51.38 49.51 47.46 46.49 45.73 46.70 47.12 48.35 48.22 48.22 49.73 52.96
57.68 58.79 57.92 58.21 58.39 58.55 59.03 60.42 60.86 60.48 60.56 59.86 59.78 59.76 58.66 56.17 55.17 55.00 55.37 54.12 51.33 48.83 47.46 45.91 45.45 45.44 44.85 46.22 47.69 48.18 48.72 50.40
56.09 56.95 56.79 56.42 57.26 57.69 58.75 59.91 60.03 59.87 59.14 59.34 59.10 58.98 57.68 56.61 55.55 55.13 55.70 54.33 51.61 49.54 47.47 46.83 45.15 44.73 44.71 44.54 44.84 45.83 47.18 49.15
56.04 56.81 56.39 56.69 57.41 57.90 57.43 57.53 58.70 59.21 58.88 58.79 59.32 58.88 58.17 57.13 55.58 55.45 55.52 53.75 51.33 49.09 47.24 46.62 46.00 45.22 46.33 44.96 43.63 43.31 43.83 46.93
55.32 55.72 55.72 56.26 56.71 56.25 55.89 56.17 56.27 56.71 58.60 58.95 59.42 59.30 58.37 57.04 55.83 55.54 54.31 53.82 52.03 49.11 47.17 47.10 45.89 45.75 44.75 44.53 44.88 44.12 43.35 42.77
55.00 55.48 55.52 55.60 56.30 56.24 55.76 56.04 55.43 56.31 57.68 58.41 58.78 59.75 59.33 57.83 56.58 55.24 54.30 52.95 50.86 48.98 48.15 46.52 46.31 46.14 44.24 43.29 42.14 44.26 44.86 44.48
54.59 54.89 55.26 55.09 55.26 54.47 54.45 54.70 54.71 54.60 55.91 56.45 57.40 57.92 58.88 58.79 57.17 56.13 54.43 53.45 51.82 49.40 48.32 47.73 45.96 45.59 45.88 44.94 40.29 40.66 41.56 42.50
55.11 54.95 54.98 55.12 54.77 53.63 53.91 54.13 52.23 53.33 54.24 55.80 56.16 57.52 57.33 58.11 57.97 56.67 55.42 53.70 51.43 50.50 50.07 49.47 48.04 45.53 45.55 46.07 43.83 43.51 41.05 39.90
54.43 54.31 53.97 54.06 53.31 53.23 51.64 51.91 52.97 52.70 53.94 54.45 54.65 55.91 57.19 56.96 57.49 56.75 55.48 55.14 53.96 52.16 50.82 48.97 49.48 48.05 46.75 45.83 44.50 42.75 40.88 39.86
52.90 53.28 53.00 52.19 51.46 50.68 50.90 50.24 49.66 50.38 51.52 52.55 53.00 53.70 54.82 56.11 57.47 57.25 57.53 55.76 54.12 52.91 51.77 50.67 49.77 49.07 49.30 47.74 45.91 44.12 42.06 41.36
52.99 52.72 52.10 52.44 51.40 51.17 50.54 50.43 50.43 50.92 51.24 52.60 52.85 53.60 53.94 54.86 55.49 55.33 55.38 55.26 54.43 53.17 51.62 52.04 50.49 49.72 49.70 48.21 46.59 45.63 44.96 43.95
52.02 52.23 51.92 52.17 51.81 51.28 51.44 51.31 51.31 52.16 52.33 52.74 53.36 54.49 54.98 54.90 55.08 56.27 56.11 55.46 54.92 53.38 53.11 52.27 51.22 50.86 48.46 47.17 46.52 46.02 45.71 45.35

GFSFLT2_sfc_wetblb_093.txt.gz
Wetbulb
64.26 65.56 66.19 66.88 67.06 67.62 68.41 68.71 68.95 69.01 68.76 68.38 68.19 67.99 68.02 68.32 68.15 67.71 67.06 67.09 66.97 67.25 65.66 64.95 64.55 63.72 63.03 62.16 61.22 61.59 61.32 61.71
64.38 65.44 64.87 66.52 66.77 66.35 67.22 67.68 67.92 68.22 68.10 67.52 66.92 66.93 67.28 67.15 66.86 66.34 66.61 67.51 67.25 66.59 65.02 64.41 63.88 63.29 62.51 61.85 61.28 61.41 61.00 61.54
63.67 63.60 66.25 67.03 66.39 67.28 66.50 67.73 67.79 67.68 67.79 66.64 66.02 68.21 68.03 67.32 65.44 65.32 66.36 66.75 66.17 65.22 64.61 63.89 63.16 62.70 62.50 61.86 61.10 61.38 61.21 61.03
62.56 64.15 63.51 63.28 65.60 66.57 66.14 68.43 69.81 69.11 69.05 67.95 67.66 67.96 67.82 66.00 64.58 64.64 65.10 65.71 65.18 64.67 64.15 63.31 62.49 62.58 62.23 60.88 61.32 61.78 61.45 61.12
62.19 63.31 63.93 63.61 63.50 64.96 64.74 63.67 66.08 66.55 69.33 66.77 66.81 66.51 65.70 65.72 64.65 63.20 64.49 65.39 64.97 63.99 63.22 62.38 61.92 61.48 61.02 61.18 61.61 61.51 61.40 61.15
62.37 62.66 62.80 64.14 63.36 64.52 63.74 62.84 63.31 66.59 66.80 67.26 64.76 64.15 64.77 64.65 63.10 61.87 61.79 63.55 63.92 62.82 61.02 60.41 59.83 60.03 60.20 60.51 61.11 60.89 61.14 61.19
62.05 62.00 62.58 62.62 62.27 62.24 63.23 62.00 62.85 64.46 64.70 65.85 64.64 63.86 63.15 63.17 62.00 60.77 59.79 59.96 60.14 60.11 59.78 58.32 57.41 57.05 57.18 58.11 59.69 60.55 61.08 60.98
60.43 60.80 61.41 61.15 61.44 62.10 62.94 62.02 62.55 62.93 64.21 63.91 64.92 64.65 62.73 62.14 61.09 59.81 58.54 58.97 59.41 58.73 57.99 56.66 54.85 54.53 54.13 54.90 55.73 58.41 60.45 61.31
59.06 60.39 60.86 59.89 60.82 62.07 61.75 60.89 61.24 62.72 63.61 64.40 64.62 63.74 62.31 61.89 60.16 59.43 58.64 57.00 56.36 56.47 55.46 54.93 54.38 53.89 53.85 54.33 54.85 56.06 58.40 60.66
58.80 59.44 59.07 59.30 59.98 60.68 60.64 61.04 61.39 62.83 63.33 63.44 63.34 63.12 62.15 61.38 60.08 59.69 59.43 56.98 56.09 54.63 54.02 53.67 53.61 53.76 53.64 53.78 53.96 54.45 57.68 59.85
57.51 58.75 57.62 57.89 58.57 60.30 60.86 60.97 61.28 62.18 62.04 61.36 61.77 62.29 61.41 59.74 59.89 59.04 59.05 56.74 55.11 54.31 53.24 53.73 52.60 53.49 53.26 53.35 53.54 53.45 54.62 57.23
57.10 56.97 57.90 57.62 58.85 58.73 60.37 60.21 60.09 60.86 61.23 60.66 61.38 61.33 60.94 60.08 59.43 59.48 59.01 57.12 55.22 54.33 53.72 53.59 53.43 52.69 50.88 51.00 51.99 51.84 51.95 53.15
56.47 56.11 57.11 57.05 56.98 57.37 57.82 57.44 58.61 59.00 59.72 59.95 60.66 60.79 60.40 60.06 59.18 59.30 59.03 57.34 56.13 55.16 54.00 53.19 51.51 52.37 50.44 49.80 49.85 50.39 50.38 51.37
56.28 56.07 56.59 57.25 57.78 57.92 57.64 57.70 58.30 58.74 59.56 60.14 60.10 60.29 59.99 58.94 59.02 58.84 58.94 57.94 56.51 54.80 53.98 52.33 52.59 52.55 50.75 50.40 47.89 49.49 50.67 50.70
55.63 55.96 56.20 57.08 57.52 56.91 56.15 56.03 56.11 58.01 59.04 59.02 60.69 60.55 58.84 59.16 59.30 58.84 58.85 58.50 57.32 55.48 54.36 53.64 52.33 51.72 53.19 52.50 47.77 47.77 49.76 51.04
55.88 56.20 55.69 56.04 56.36 56.52 56.28 55.30 55.29 56.41 58.18 58.13 58.48 59.92 59.52 59.38 58.72 59.20 59.11 59.01 57.73 57.22 56.42 55.45 54.85 51.61 51.41 51.46 51.23 51.83 49.19 48.29
55.77 55.85 55.58 55.69 56.40 56.08 55.78 54.51 56.18 54.69 56.45 58.11 57.06 57.33 58.01 58.20 59.63 59.08 59.89 59.00 59.46 58.03 56.44 55.11 55.90 55.07 52.69 51.77 50.01 50.01 49.74 49.61
55.82 55.15 54.79 55.06 54.90 55.82 56.26 55.43 55.28 54.21 54.63 55.03 56.40 57.05 58.00 58.35 58.42 59.52 60.42 60.25 59.52 58.24 57.97 56.43 56.05 55.33 54.63 52.68 50.01 49.73 47.92 46.19
55.23 55.36 54.44 54.21 54.10 54.41 54.94 55.51 55.98 56.01 55.75 56.37 55.97 56.42 57.20 58.37 59.69 60.06 60.19 60.75 60.34 60.12 58.80 57.30 56.46 55.80 55.64 52.27 51.13 52.31 51.09 47.90
54.76 54.53 55.17 54.96 54.42 54.55 55.19 55.23 55.28 55.97 56.59 57.00 56.99 57.83 58.02 58.71 59.08 59.78 60.25 60.56 60.38 60.06 59.20 58.43 57.46 54.76 52.75 51.19 53.06 52.71 52.54 52.14

GFSFLT2_sfc_wetblb_096.txt.gz
Wetbulb
64.60 64.42 64.69 65.14 67.63 69.10 68.57 69.31 69.26 69.20 68.85 68.58 68.62 68.37 68.32 68.62 68.33 68.81 68.39 67.98 67.78 66.11 65.40 64.73 64.11 63.34 62.64 62.34 61.73 63.42 63.73 63.25
65.46 63.68 63.42 62.21 67.30 65.89 65.60 67.42 67.72 67.92 67.84 67.71 67.15 67.36 67.78 68.06 67.59 67.54 67.61 67.82 66.88 65.68 65.03 64.18 63.68 62.93 62.39 61.72 61.30 61.92 63.57 63.36
65.64 62.78 62.19 62.68 66.82 66.68 65.21 65.53 67.27 67.08 67.40 66.97 66.35 69.11 68.81 68.56 67.08 66.69 67.22 67.08 66.05 65.23 64.55 63.48 62.96 62.48 62.04 61.45 61.42 62.75 63.17 63.16
64.80 64.52 64.65 64.74 65.93 67.39 66.21 65.38 67.89 69.15 67.96 68.97 68.17 69.06 68.75 67.83 66.36 66.43 66.96 66.40 65.26 64.73 64.10 63.04 62.51 62.60 62.31 61.53 62.95 62.99 62.85 63.05
63.37 65.39 65.40 66.76 67.29 68.72 66.76 65.78 66.89 67.62 67.51 67.23 67.57 68.99 68.64 67.41 65.96 66.48 67.64 65.77 65.51 64.30 63.69 63.17 63.89 63.10 61.86 62.79 63.10 62.94 62.78 62.52
64.74 64.53 66.17 66.77 66.70 66.23 65.83 65.04 66.89 66.20 67.30 66.61 68.65 67.98 67.81 65.82 64.73 66.10 66.79 66.25 65.43 64.74 63.79 64.61 64.12 63.08 62.39 62.56 62.70 62.57 62.63 62.33
63.75 65.28 65.54 64.92 66.30 66.38 65.21 67.01 64.91 66.43 66.00 66.52 67.52 66.51 64.13 64.88 65.25 66.03 66.00 66.20 65.81 64.99 64.66 63.45 62.79 61.91 61.92 62.13 61.75 62.24 62.60 62.22
63.45 64.33 64.47 64.83 64.67 64.78 63.81 63.51 64.77 65.94 66.63 65.67 65.45 64.99 63.40 63.19 64.32 64.28 65.39 66.15 65.81 65.03 63.85 61.89 60.99 60.73 60.61 61.00 61.18 61.59 62.15 62.48
61.97 61.86 63.79 63.05 63.07 63.11 63.89 63.09 63.06 64.43 64.82 64.89 63.68 63.24 62.81 62.83 63.58 63.05 63.19 64.48 64.54 63.94 62.69 61.02 59.12 58.35 57.73 58.24 59.30 60.71 61.50 61.85
60.54 60.86 62.15 62.30 60.43 61.11 62.17 62.92 63.02 63.39 64.57 64.60 63.02 62.62 62.23 63.95 62.84 62.25 62.80 63.02 62.72 61.36 60.36 58.90 58.21 57.62 57.26 57.62 57.75 58.57 60.15 61.48
59.32 61.58 60.74 59.07 59.74 61.54 61.73 61.85 62.25 62.77 63.44 63.70 62.70 61.97 62.16 63.33 62.80 62.07 62.04 60.83 60.37 59.73 59.07 59.21 58.17 57.71 56.95 57.45 57.70 57.41 58.91 59.57
59.18 60.71 59.94 59.79 60.08 60.66 60.94 61.59 62.10 62.67 62.22 62.81 62.34 61.35 61.97 62.45 62.17 62.15 61.30 60.08 59.47 59.59 59.25 59.47 59.25 58.38 56.09 55.76 56.87 56.96 56.87 58.40
57.82 58.39 59.34 59.61 59.03 58.40 58.92 58.54 59.92 60.69 61.39 61.39 61.88 61.06 61.62 62.64 61.57 61.63 61.68 60.30 60.12 59.71 59.13 58.45 57.78 57.36 55.10 54.80 54.65 55.04 55.21 55.60
57.50 57.45 58.56 58.56 58.94 58.59 58.99 59.62 59.45 59.91 60.51 60.88 61.01 61.30 62.31 61.83 61.64 61.40 61.59 60.41 60.17 59.39 58.72 57.34 56.91 55.77 53.50 53.27 49.94 52.15 53.55 54.18
58.28 58.49 57.55 58.13 58.77 57.77 57.35 57.97 58.83 58.62 59.33 59.67 60.03 61.10 62.14 62.14 61.72 61.38 61.95 61.57 59.74 59.51 58.27 58.00 55.71 54.33 55.95 54.27 51.72 50.99 54.36 54.93
59.79 58.84 57.80 58.41 58.54 58.28 57.08 56.28 55.01 57.67 59.14 59.94 60.17 60.54 60.00 61.26 61.84 61.86 61.91 61.48 60.58 59.89 58.79 58.83 58.04 54.80 54.82 55.39 56.95 56.22 52.75 51.33
58.55 59.14 57.33 57.65 58.68 58.33 56.88 56.62 56.69 58.27 58.64 60.63 60.67 59.87 60.31 59.62 59.99 59.58 60.82 60.99 60.92 60.99 59.82 59.45 59.25 58.46 56.25 55.65 55.22 55.09 55.47 51.54
58.08 58.28 57.29 57.20 58.69 59.24 57.51 57.85 56.05 56.39 57.27 57.77 59.97 59.96 61.64 60.64 59.81 59.94 60.56 61.48 61.41 61.81 62.03 61.15 60.06 59.47 59.59 58.15 56.72 55.34 54.64 53.99
58.29 57.83 56.53 58.00 59.50 58.46 57.87 58.63 58.28 56.70 57.41 57.47 59.19 58.46 58.16 58.74 59.99 59.86 60.23 61.49 62.17 62.38 62.24 61.77 61.63 59.84 59.68 58.76 56.30 56.33 56.45 54.89
57.68 57.88 57.43 56.94 56.18 56.83 58.37 59.69 57.94 58.38 59.60 59.42 59.08 58.61 59.28 60.79 60.51 60.27 60.09 59.67 62.10 62.71 62.79 62.19 62.24 61.51 60.95 60.34 59.46 59.62 55.47 52.20

GFSFLT2_sfc_wetblb_099.txt.gz
Wetbulb
69.02 67.69 66.39 64.78 64.43 63.48 66.15 69.15 69.54 69.44 69.36 69.41 69.17 68.39 68.09 68.56 68.27 67.93 67.46 66.95 66.24 65.74 65.18 64.52 63.88 63.32 62.80 62.58 61.54 62.99 63.37 62.65
67.93 65.81 65.50 65.78 65.15 63.23 62.78 68.05 67.89 68.31 68.43 67.90 67.41 67.20 67.55 67.63 67.92 67.75 67.17 66.61 66.06 65.58 64.62 64.11 63.54 62.84 62.22 61.96 61.43 62.52 62.79 62.28
67.85 66.31 64.83 63.63 64.49 64.63 65.34 67.40 67.45 67.47 67.64 66.99 66.45 68.73 68.21 68.39 67.38 67.11 67.34 65.79 65.40 64.95 64.44 63.46 62.86 62.17 61.57 61.51 61.85 63.34 63.26 62.45
66.94 66.37 63.90 63.01 65.46 62.98 65.19 65.40 66.52 68.67 69.58 69.02 68.80 68.92 68.14 67.94 67.07 66.75 66.36 65.29 64.79 64.49 63.65 62.75 61.71 60.60 60.93 61.03 62.74 63.32 63.20 62.32
65.48 66.13 65.04 64.21 65.32 66.13 67.96 64.75 63.26 67.00 68.72 69.16 67.55 68.82 68.56 68.71 67.89 67.52 66.68 64.55 63.28 63.10 62.53 61.38 62.34 61.20 61.61 63.75 63.11 63.19 62.97 62.30
65.76 66.55 66.46 66.66 66.63 68.06 68.31 66.15 62.79 66.50 69.37 68.71 68.60 68.12 67.34 68.29 67.41 66.73 66.50 65.37 63.60 63.07 62.01 64.22 63.39 62.72 62.82 62.93 63.19 62.73 62.38 61.91
65.11 66.29 66.80 67.09 66.52 67.97 68.16 66.79 67.47 65.79 66.60 69.20 67.86 66.66 66.35 65.71 66.44 66.81 66.08 66.10 64.46 64.15 63.18 63.92 63.90 62.72 62.57 62.46 62.36 62.56 62.53 61.92
64.75 65.20 65.57 66.34 67.03 67.32 67.39 65.24 65.69 65.61 65.57 67.14 68.73 68.18 66.59 63.86 65.77 66.68 66.55 66.52 65.46 64.77 64.46 63.87 63.24 62.13 61.69 62.24 61.74 62.25 62.47 62.40
63.74 64.26 65.45 65.35 65.22 66.16 67.17 66.88 66.73 66.15 64.37 65.52 67.46 65.65 65.87 64.51 64.59 66.09 65.67 66.49 67.29 65.86 65.04 63.69 61.85 60.96 60.62 61.08 61.33 61.84 62.00 62.25
63.04 62.64 63.74 64.47 64.46 65.42 65.55 64.32 66.17 64.53 64.59 64.13 63.88 63.85 65.39 64.50 62.97 62.43 65.64 65.08 66.00 64.74 63.47 61.06 59.97 59.08 58.43 58.85 59.65 61.09 61.55 61.90
60.48 61.13 62.64 63.43 62.51 62.88 64.71 64.62 64.17 64.83 64.33 63.90 63.80 62.57 61.51 60.92 60.86 61.73 65.40 65.19 64.80 64.13 62.67 61.56 59.46 58.76 58.10 58.26 58.75 58.80 60.25 61.07
61.36 60.47 61.49 61.13 61.40 62.42 61.78 61.45 63.01 63.22 64.09 63.08 62.71 61.65 61.34 60.59 60.42 61.86 63.85 63.32 63.19 62.29 61.38 61.02 60.28 59.51 57.63 57.38 58.46 58.73 59.28 59.95
59.31 60.35 60.36 60.72 59.57 60.08 60.08 59.74 60.91 62.02 63.32 62.57 61.46 61.18 61.01 60.92 60.07 62.12 62.74 61.41 60.60 60.55 61.37 61.32 59.94 60.80 57.74 56.82 57.25 57.71 57.74 58.09
58.09 59.20 60.02 60.23 60.19 59.33 59.84 59.61 61.19 61.64 61.98 61.63 61.02 60.65 60.60 60.21 60.54 61.54 61.58 60.09 60.53 61.20 61.81 59.29 59.71 59.86 56.25 55.72 52.20 53.44 55.23 55.91
59.72 59.24 60.17 59.53 58.81 59.36 59.19 59.15 59.58 59.40 59.91 60.12 60.05 59.60 59.28 59.42 60.35 61.16 61.33 61.39 60.45 61.16 61.61 60.47 57.67 57.72 59.51 56.06 52.00 51.16 54.19 55.55
61.42 60.21 59.35 58.81 59.06 58.46 58.54 57.31 56.48 58.08 58.66 59.58 59.76 59.91 59.61 60.08 60.77 61.47 61.77 62.39 60.95 60.83 60.91 60.98 60.59 56.38 56.54 56.99 58.54 57.21 54.22 52.62
59.75 59.78 59.23 59.79 59.15 59.91 57.94 57.32 57.68 58.53 58.97 58.84 59.42 59.95 60.12 60.23 61.00 62.19 63.07 61.97 62.79 62.43 61.44 60.43 60.11 59.41 56.93 56.37 56.13 56.36 56.97 53.52
59.28 58.50 58.14 58.72 58.51 59.01 58.48 56.97 57.04 58.03 58.04 57.26 57.95 59.10 59.59 59.98 60.15 61.77 62.38 62.53 62.14 61.80 61.72 60.70 60.74 61.16 60.26 59.52 57.09 55.66 54.42 53.76
59.39 58.34 57.31 58.37 58.40 58.30 57.94 57.31 57.14 57.01 58.45 58.36 57.40 57.83 58.38 58.27 58.87 59.36 60.44 61.99 62.01 61.94 60.92 61.62 61.74 60.77 60.69 60.24 60.53 59.48 59.64 56.81
59.38 58.52 57.56 58.18 58.50 59.14 59.50 59.41 58.01 56.43 58.73 59.58 58.31 58.65 60.61 59.27 58.37 58.24 58.90 60.46 59.92 61.73 62.68 61.21 61.50 61.88 62.03 62.06 61.15 60.81 60.45 58.72

GFSFLT2_sfc_wetblb_102.txt.gz
Wetbulb
70.05 69.62 67.84 67.15 65.59 66.37 65.61 64.84 63.79 68.65 69.35 67.66 67.09 67.56 67.98 68.37 68.21 68.03 67.30 66.69 66.22 65.74 65.29 64.69 64.39 63.45 62.65 61.87 61.64 63.17 60.33 59.74
68.71 67.90 66.75 65.93 66.75 63.53 63.95 63.91 62.83 61.66 68.09 67.43 67.26 67.31 67.45 67.72 67.22 66.94 66.62 66.14 65.84 65.36 64.43 64.01 63.66 62.39 61.92 61.60 61.43 62.93 59.40 59.13
67.82 67.04 66.03 66.01 64.99 64.59 63.49 63.49 63.64 59.40 67.50 67.19 66.26 67.04 67.25 66.83 66.20 66.28 66.37 65.58 65.31 64.70 64.04 63.19 62.22 61.45 61.72 61.48 61.84 60.27 59.90 59.26
67.50 67.10 65.80 64.92 64.52 63.21 62.71 62.13 61.66 59.72 66.94 66.74 66.85 67.02 66.87 66.64 65.77 65.58 65.36 65.03 64.63 64.15 63.30 62.09 60.68 58.01 58.15 60.23 58.56 60.78 59.86 58.85
66.23 66.35 65.35 63.24 64.25 62.85 63.37 62.13 61.67 62.58 66.16 66.08 66.55 66.96 66.25 66.32 65.79 64.12 63.69 63.67 62.08 61.76 60.40 58.09 56.76 56.63 57.93 58.49 60.01 60.54 59.44 59.13
65.98 65.85 64.25 63.58 64.61 62.62 63.46 63.10 62.30 63.20 66.68 66.68 66.42 65.70 65.50 65.63 64.88 62.99 61.50 60.80 60.06 59.18 57.96 58.41 57.73 57.94 59.28 60.49 59.40 59.95 59.33 58.71
65.02 65.90 65.43 65.03 64.42 64.16 64.33 62.87 61.51 62.18 64.60 66.18 65.84 64.91 65.30 65.41 64.63 63.94 60.59 61.11 60.10 58.62 58.46 60.38 59.65 58.68 59.61 59.49 59.57 60.44 59.20 58.79
64.68 65.12 65.75 65.98 65.24 64.33 64.17 63.82 61.52 63.58 65.21 65.45 65.81 65.22 65.43 64.73 63.94 63.78 62.30 61.64 61.27 59.78 59.31 61.28 60.12 58.92 59.13 59.39 59.12 59.04 59.02 58.73
62.95 64.61 65.40 65.10 64.25 65.17 65.14 65.14 64.11 64.34 64.41 64.40 64.99 65.70 64.96 63.42 63.17 63.34 62.97 62.32 61.95 61.22 61.32 60.75 59.32 58.78 58.12 58.81 58.48 58.90 59.86 58.55
63.00 62.91 64.50 64.37 64.23 64.95 64.94 65.10 65.15 64.50 63.64 64.40 64.30 64.88 64.27 62.81 62.70 62.59 63.57 62.86 62.75 61.59 61.41 59.10 57.69 56.84 56.03 56.39 57.05 57.68 58.65 58.30
62.15 62.56 62.46 63.49 63.69 63.65 64.63 64.81 64.63 64.70 63.53 63.79 63.86 63.34 62.15 62.23 62.50 62.68 63.70 62.74 62.33 62.21 59.72 58.07 55.83 55.00 55.02 55.09 55.30 56.14 57.40 58.46
61.72 61.40 62.49 62.40 61.93 61.95 62.86 63.52 64.11 64.65 63.42 62.82 62.50 62.38 61.38 60.42 60.90 61.76 62.24 61.86 61.61 60.87 59.23 58.31 55.90 55.19 55.49 55.06 54.20 54.59 55.68 56.36
59.78 60.57 61.07 61.12 60.15 59.99 60.17 59.98 61.32 62.98 63.46 62.02 62.07 61.73 60.81 59.24 59.65 59.88 59.96 60.76 60.16 60.31 58.61 56.75 56.29 57.78 54.05 53.13 52.98 54.01 54.38 54.67
59.52 60.33 60.05 60.42 60.31 59.97 59.91 60.05 60.53 61.73 63.04 62.29 62.13 60.93 60.34 58.13 58.98 58.79 58.70 58.79 59.19 58.66 57.29 56.10 56.97 57.40 53.63 51.34 48.13 50.16 52.02 53.29
59.05 59.35 59.78 60.36 60.47 59.69 59.34 60.34 60.51 60.46 61.20 61.31 61.09 60.49 60.07 59.25 59.43 59.28 58.45 58.42 58.04 57.71 58.03 57.08 55.47 55.16 54.49 52.79 49.33 47.19 48.21 50.95
60.04 59.50 59.50 59.84 60.02 59.63 58.42 57.71 57.51 58.86 60.59 60.46 60.11 60.21 59.36 59.24 59.73 59.55 58.71 58.71 57.88 57.87 58.89 57.84 56.44 53.26 53.96 55.11 54.10 53.50 50.01 46.60
59.47 59.74 59.02 59.03 59.15 59.86 58.92 57.31 58.03 58.62 58.84 58.49 58.76 58.69 58.42 58.14 59.05 59.12 58.73 58.97 58.95 58.41 57.77 57.59 57.56 55.26 53.79 53.13 52.62 52.67 53.16 50.30
59.09 58.67 58.39 59.19 58.98 59.62 58.78 57.78 57.71 57.33 57.65 57.33 57.13 57.36 57.71 57.86 57.73 58.88 58.98 58.97 58.72 58.58 58.61 57.43 57.91 56.86 55.74 54.61 52.99 51.10 50.33 50.19
58.32 57.87 56.90 58.81 58.35 59.24 58.44 57.63 57.95 57.36 57.54 57.40 56.83 56.59 56.78 57.17 57.76 58.47 58.55 58.46 58.74 59.11 58.75 58.00 57.72 57.55 57.48 56.75 55.72 54.59 55.08 53.37
57.77 57.59 56.75 57.72 57.99 58.11 58.08 57.68 58.21 57.79 57.56 57.69 57.51 57.09 57.28 57.98 57.97 58.47 58.70 58.73 58.83 58.98 58.94 59.17 58.96 58.38 57.53 57.02 56.90 56.96 56.66 55.70

GFSFLT2_sfc_wetblb_105.txt.gz
Wetbulb
66.89 65.69 66.27 68.29 68.42 67.78 69.06 69.34 68.90 68.60 67.44 68.14 68.01 67.10 67.50 68.38 68.46 68.21 67.61 67.16 66.80 66.55 66.10 65.18 64.61 63.63 62.68 61.35 62.65 62.13 59.01 59.33
64.95 64.42 63.94 62.75 63.30 64.75 65.52 67.11 66.55 67.28 67.25 66.95 66.61 66.84 67.38 67.48 67.53 67.23 66.86 66.56 66.44 66.04 65.17 64.36 63.69 62.53 61.46 61.75 62.18 61.42 58.69 58.51
64.09 63.17 62.22 62.52 62.47 63.22 64.06 65.11 65.41 65.64 64.29 63.25 65.06 66.07 66.80 66.83 66.37 66.29 66.44 66.00 65.47 65.18 64.32 63.12 62.24 61.66 61.23 61.50 60.60 58.50 58.41 58.54
63.61 63.14 62.67 62.47 63.26 62.09 61.93 62.97 63.07 63.07 63.51 60.80 65.08 65.75 65.84 65.73 65.72 65.64 65.61 65.08 64.62 64.11 63.30 62.47 60.67 57.21 56.95 59.42 58.22 58.18 58.05 58.03
63.66 63.54 62.83 62.32 61.55 60.85 62.00 61.79 62.11 60.83 61.16 61.07 64.71 66.18 65.73 65.24 64.31 63.96 63.34 63.61 61.73 60.99 60.15 57.44 56.37 55.80 56.12 56.26 57.89 58.04 57.83 58.55
62.67 62.62 61.18 60.51 61.39 61.03 61.77 60.86 60.46 60.96 60.37 63.53 63.89 65.02 64.83 64.07 62.95 61.93 61.23 60.12 58.98 57.11 55.63 56.05 55.12 56.32 56.98 57.66 58.31 57.65 57.65 58.29
62.06 62.28 61.75 61.17 61.85 61.31 62.78 62.20 61.78 62.21 61.17 64.33 65.00 64.56 64.39 63.43 61.36 60.48 59.24 58.95 57.71 55.50 55.31 56.08 54.85 55.64 56.69 57.50 57.79 57.35 57.46 58.29
62.04 62.66 62.80 62.67 62.29 61.85 62.72 61.41 61.17 62.68 61.27 64.55 65.02 64.58 64.49 63.06 60.65 59.08 58.48 58.21 57.06 55.94 56.66 56.36 55.43 55.52 56.92 57.07 57.90 57.37 57.35 57.46
61.51 63.19 63.43 62.59 63.23 62.59 63.11 61.30 61.39 62.65 64.20 64.99 64.47 64.95 64.31 63.37 60.69 58.64 59.16 58.74 57.19 56.25 56.43 57.30 56.27 57.12 56.15 56.67 57.75 57.24 57.15 57.10
61.14 62.99 62.71 61.84 63.06 62.99 63.76 61.62 61.41 63.29 64.04 64.36 64.37 64.71 64.29 63.06 62.14 59.69 60.64 59.29 58.13 57.57 57.28 57.63 55.60 55.19 54.79 55.13 55.63 57.08 57.10 56.75
59.92 61.11 61.39 61.27 60.98 62.86 62.89 63.13 62.59 63.36 63.48 64.04 64.05 63.66 62.89 62.64 62.51 61.50 61.53 59.60 59.70 58.65 58.08 57.50 54.82 53.87 54.34 53.57 53.67 55.00 56.58 57.08
59.19 59.72 59.46 60.35 59.03 60.88 61.76 63.23 63.49 62.91 62.49 63.40 63.45 63.22 62.47 61.64 62.14 61.36 61.92 60.01 60.86 59.51 58.09 56.63 54.86 53.77 55.97 53.74 52.06 53.07 54.94 55.40
58.99 59.92 60.37 58.65 57.23 57.13 57.11 59.34 62.33 62.80 62.03 62.26 62.56 62.23 62.18 61.39 61.69 61.23 62.10 60.61 60.44 59.46 57.84 55.06 52.92 52.46 50.63 49.99 50.50 51.42 52.48 53.30
58.73 59.40 59.65 58.09 57.83 58.45 58.35 57.61 58.81 63.05 62.45 62.31 62.07 61.79 61.29 60.11 60.46 60.13 61.14 60.70 59.38 58.32 56.72 54.92 53.33 54.03 51.04 49.84 46.60 48.75 49.63 51.05
58.10 59.18 58.79 57.55 59.70 59.16 58.01 58.05 58.86 59.49 61.73 61.08 61.53 61.37 60.92 59.18 59.40 58.89 60.58 60.17 58.36 56.79 56.34 54.98 53.38 53.43 53.66 51.14 47.45 46.20 46.60 48.76
58.42 59.03 59.15 59.42 59.32 58.38 58.09 57.34 56.75 59.00 59.00 61.09 60.77 61.09 60.66 58.43 59.29 58.74 58.78 59.93 58.24 57.14 57.15 55.80 54.11 52.32 52.75 54.09 52.74 52.21 46.65 44.34
58.80 58.64 58.74 58.97 58.77 58.68 57.63 57.59 58.14 59.43 60.20 59.96 60.11 60.19 59.97 58.41 59.15 58.46 58.09 58.42 57.94 57.40 57.26 56.86 55.12 54.25 52.64 51.96 50.76 50.41 50.30 47.89
58.09 58.54 58.18 58.08 58.25 58.53 57.86 57.59 57.65 57.57 59.35 58.37 59.06 59.19 58.72 58.19 58.73 58.25 58.21 58.40 58.01 57.73 57.23 56.95 56.62 55.32 54.22 53.47 50.97 49.66 48.78 48.12
57.68 57.61 57.25 57.62 57.98 57.66 56.67 56.81 57.69 57.03 57.47 58.06 57.11 57.05 57.39 57.66 58.23 58.14 58.25 58.22 58.30 57.86 57.26 56.84 56.79 56.23 54.23 53.56 53.80 52.52 51.98 50.33
57.45 56.77 56.61 57.78 57.81 57.58 56.75 57.13 57.32 57.81 57.04 57.14 57.29 57.10 57.36 57.46 57.10 57.71 58.21 58.39 57.80 57.58 57.24 57.35 57.25 57.05 56.03 56.29 55.92 55.58 55.26 54.23

GFSFLT2_sfc_wetblb_108.txt.gz
Wetbulb
66.35 67.48 68.76 69.37 69.28 69.51 68.92 69.27 68.92 68.47 67.37 66.91 67.83 67.46 67.52 68.25 68.45 68.53 68.11 67.69 67.53 67.29 66.38 65.70 65.06 63.99 63.38 63.03 62.43 62.22 59.22 59.24
64.78 64.02 64.28 63.79 65.70 66.97 67.39 68.16 66.90 67.12 66.47 66.01 65.43 64.85 65.75 67.37 67.59 68.05 67.72 67.20 66.96 66.58 65.57 64.79 63.92 62.88 62.74 62.12 61.78 61.60 58.83 58.15
63.88 62.74 61.65 61.60 62.11 63.23 65.47 65.22 65.68 65.96 66.21 65.27 64.23 63.11 65.18 67.38 66.89 66.77 67.00 66.61 66.44 65.90 64.88 63.90 62.58 62.35 62.47 61.89 60.83 58.89 58.78 58.45
62.47 61.69 61.08 61.15 62.99 61.61 61.52 62.75 64.61 65.67 64.91 64.85 65.32 64.45 65.70 66.25 65.67 65.84 65.98 65.69 65.56 65.16 63.94 62.94 60.99 58.29 60.15 60.24 57.69 58.10 58.17 58.19
62.36 61.89 61.56 60.88 61.26 60.29 60.52 61.96 62.05 63.71 63.57 64.98 65.34 64.91 65.31 65.27 64.67 64.61 63.99 64.63 62.51 62.37 61.27 58.61 56.48 56.23 56.22 57.21 57.30 57.28 57.51 58.53
62.14 62.16 61.30 60.02 60.31 59.45 59.90 61.28 61.95 62.11 62.65 63.42 63.68 63.84 64.18 64.49 63.81 63.13 62.21 61.63 59.05 58.22 55.81 55.05 55.06 55.66 56.56 56.73 56.99 56.57 57.21 58.13
61.72 61.30 60.17 59.68 59.53 59.47 59.93 60.21 60.63 61.51 61.71 61.53 62.76 63.89 63.85 63.63 62.69 61.83 60.24 58.29 56.54 54.27 54.59 53.83 54.11 55.23 56.99 56.83 56.43 56.35 56.95 58.03
61.26 61.07 60.31 60.16 60.72 59.74 61.15 62.22 61.25 61.18 61.48 61.46 61.75 63.62 63.85 62.61 61.43 59.63 58.07 57.56 55.58 53.85 53.62 52.55 53.48 54.71 55.74 56.44 56.35 56.37 56.87 56.99
60.85 61.11 60.97 60.67 61.13 60.72 61.70 61.56 61.24 61.35 61.11 61.97 61.75 63.27 63.39 61.75 59.92 57.77 57.43 56.03 53.20 53.37 54.37 53.84 54.60 55.06 55.48 56.07 56.35 55.98 56.51 56.78
60.29 62.62 61.15 61.03 61.73 62.10 62.15 60.91 61.78 62.13 61.62 63.20 63.18 63.22 63.62 61.16 58.47 56.98 57.54 56.41 54.44 54.68 54.79 55.22 54.66 54.54 54.00 54.99 55.50 55.55 55.79 56.21
59.38 60.34 60.08 60.00 62.31 62.40 62.50 60.69 61.44 62.96 62.42 63.81 63.88 63.88 63.28 60.60 58.03 57.32 57.27 56.61 54.42 55.92 55.90 56.26 54.46 53.32 54.36 52.90 54.53 54.92 55.18 56.45
59.18 58.91 59.65 59.87 59.53 62.05 62.64 60.78 61.80 62.95 63.48 63.33 64.03 63.95 63.20 61.34 58.30 58.09 57.40 57.37 54.35 56.90 56.67 56.07 55.22 53.47 55.51 53.39 53.88 55.14 55.72 55.23
58.11 57.54 58.22 58.12 56.70 58.79 60.76 60.08 61.21 61.37 62.70 63.07 63.76 63.56 63.01 62.09 59.52 59.32 58.30 58.13 55.30 57.66 57.46 55.09 51.91 52.37 51.18 49.90 50.39 52.45 53.81 54.90
57.20 58.09 58.32 57.80 57.02 56.98 58.74 59.77 61.53 61.75 62.07 63.17 63.30 62.62 62.40 62.32 60.87 59.89 58.96 57.92 58.16 57.71 56.63 53.44 52.60 51.99 50.26 48.75 46.63 48.49 50.07 51.23
57.33 58.37 59.11 58.84 57.42 57.32 56.36 57.94 59.35 60.82 60.74 61.08 62.36 62.25 61.95 62.13 61.74 60.74 60.47 59.30 58.84 57.99 56.82 55.68 53.55 52.20 52.26 49.55 45.49 44.85 46.35 49.32
57.31 58.64 58.61 58.67 58.00 57.28 56.64 54.93 56.90 58.56 60.97 61.00 62.01 61.64 61.29 61.50 61.50 61.30 61.24 60.42 59.47 58.51 57.11 55.35 54.46 52.30 51.41 52.61 51.06 50.11 47.65 45.60
57.14 58.17 58.34 59.27 58.81 58.42 57.87 57.06 57.45 56.90 58.89 60.06 60.93 61.14 60.77 59.79 59.93 60.27 60.72 60.16 59.33 57.78 56.22 56.42 54.83 53.30 51.76 51.02 50.80 50.78 50.27 46.61
56.79 57.58 58.16 58.46 58.45 58.34 57.85 57.42 57.74 57.62 58.43 58.41 59.58 60.31 60.10 59.11 58.89 59.32 60.25 59.63 58.16 57.58 57.25 56.60 55.84 55.18 54.39 52.75 51.72 50.52 49.80 49.10
56.28 57.10 56.72 57.76 57.67 58.15 57.85 57.89 58.03 57.87 58.91 59.12 58.76 59.36 59.00 57.88 58.24 58.07 58.58 59.22 59.00 58.51 57.73 56.98 56.62 55.80 54.67 53.87 53.34 51.84 51.97 50.48
56.45 56.53 56.58 57.37 57.44 57.97 57.80 56.50 57.55 57.35 58.71 58.81 58.64 58.61 58.75 58.23 58.24 58.25 58.08 58.24 58.20 58.03 57.20 56.72 56.64 56.28 55.72 54.93 54.79 52.90 53.61 52.57

GFSFLT2_sfc_wetblb_111.txt.gz
Wetbulb
67.28 68.64 69.40 69.47 69.20 69.34 69.20 69.33 69.27 68.76 67.83 67.49 67.64 67.02 67.18 67.93 68.18 68.09 68.64 67.97 67.78 67.58 66.69 65.84 64.96 64.57 64.68 63.47 62.88 62.45 59.81 59.19
65.52 66.29 67.33 68.25 69.82 68.32 68.16 67.92 68.12 67.37 66.10 65.61 66.30 66.25 66.45 66.90 67.03 67.36 67.88 67.70 67.62 66.69 65.80 64.77 63.94 64.17 63.60 62.77 62.29 61.75 57.93 58.13
63.36 63.44 63.80 64.23 65.42 66.88 67.80 68.64 65.91 66.42 65.64 65.94 64.97 65.35 65.45 65.85 66.62 67.16 67.50 67.09 66.74 66.03 65.07 63.71 62.86 63.45 62.84 62.29 61.07 58.79 58.60 58.47
62.84 61.87 61.36 60.94 62.79 62.38 62.94 65.34 66.33 66.01 65.21 65.39 64.35 63.11 63.34 64.62 66.09 66.46 66.41 66.39 66.01 65.34 64.17 62.71 61.90 60.83 60.82 60.30 58.26 58.48 58.30 58.65
61.71 61.54 60.56 60.04 60.89 59.91 59.85 60.22 63.95 65.23 64.55 63.96 63.56 62.80 63.45 65.43 65.37 65.63 64.43 64.93 63.60 63.23 61.83 58.26 57.88 58.86 56.91 56.84 57.02 56.88 56.53 57.29
61.36 61.51 60.65 59.94 60.45 59.61 61.29 61.23 62.26 64.21 64.55 63.77 63.45 62.73 63.88 62.99 63.92 63.87 62.73 61.98 60.01 59.64 57.74 55.31 55.18 56.92 56.85 56.85 56.60 56.22 56.37 56.90
61.23 61.49 60.70 60.07 59.35 58.36 59.36 60.47 61.47 63.04 63.24 64.00 64.12 63.01 62.89 63.40 64.12 63.31 61.41 58.52 58.67 56.03 54.35 55.21 54.91 55.72 56.02 56.49 55.90 55.69 56.40 56.89
61.56 61.59 60.97 59.54 59.29 58.34 58.78 59.21 60.79 61.67 62.50 63.06 64.31 63.34 63.06 63.70 63.17 62.17 59.69 58.52 55.97 55.93 54.87 53.84 54.10 55.38 55.17 55.85 55.43 55.61 56.05 56.20
61.20 61.54 59.98 59.26 59.52 58.56 59.61 60.59 60.58 60.30 61.01 62.45 62.75 63.61 63.31 63.30 62.48 60.18 58.34 55.97 53.36 53.01 52.89 52.33 53.64 55.19 54.63 55.34 55.68 55.69 56.09 56.15
61.13 61.92 59.88 58.78 59.91 59.50 60.35 60.94 60.84 60.88 61.13 61.27 62.05 62.90 63.65 62.09 60.64 58.74 57.12 54.18 53.19 53.32 53.22 52.44 52.37 54.90 54.02 54.72 54.38 55.10 55.50 55.58
59.95 60.77 59.80 59.52 59.50 60.51 60.94 59.47 60.67 62.23 61.91 61.42 61.34 63.03 62.26 61.19 59.56 57.14 55.95 54.00 53.07 53.10 52.71 53.29 52.53 54.05 54.82 53.75 53.42 53.60 54.63 56.35
59.73 60.23 59.48 58.92 61.34 61.94 61.29 59.45 61.54 61.68 61.86 61.30 61.36 62.79 61.75 60.84 58.55 56.55 55.59 53.55 52.32 53.01 54.02 53.36 52.49 54.10 55.30 53.46 52.78 53.32 53.93 54.73
58.78 58.60 58.20 58.92 59.06 59.68 59.45 59.29 60.95 61.18 62.30 61.99 61.84 62.46 61.66 59.29 57.53 56.71 55.35 52.92 52.25 54.14 54.07 53.55 51.34 52.97 50.97 50.49 50.35 53.04 53.17 53.56
58.11 58.63 58.10 57.58 58.14 58.94 60.16 60.09 60.93 61.42 62.08 63.00 62.76 62.68 61.74 59.83 57.35 56.63 55.06 53.23 52.71 54.72 55.25 52.34 51.86 52.67 50.84 49.16 45.94 48.04 51.36 52.64
57.79 57.78 58.16 56.84 56.48 56.56 57.64 59.57 60.43 60.20 60.88 61.47 62.54 62.84 62.09 60.62 58.02 57.34 55.75 55.30 53.40 55.51 55.71 55.16 52.51 50.64 52.53 49.50 45.89 45.17 47.35 48.55
57.29 57.78 57.30 56.82 56.70 55.85 57.24 58.20 58.22 59.67 60.22 61.46 62.05 62.65 62.47 62.01 59.31 58.18 56.59 56.59 54.63 55.94 57.07 55.92 53.35 51.29 50.41 51.11 50.58 49.51 46.52 45.27
56.94 57.46 57.55 58.06 57.26 56.44 55.38 54.07 56.42 58.80 60.44 60.17 61.30 61.67 62.14 62.01 61.28 59.14 58.15 57.46 57.73 56.48 57.03 54.88 54.53 53.13 51.82 50.65 50.65 50.54 49.29 46.99
56.42 56.58 57.65 58.57 58.31 56.18 55.60 54.46 54.87 55.51 57.70 58.97 60.16 61.04 61.24 61.31 61.58 60.54 60.20 59.35 58.81 57.96 56.87 55.28 54.41 53.28 53.07 52.10 51.35 50.41 49.59 48.80
56.12 56.66 56.74 57.89 58.06 57.36 56.42 56.51 57.44 56.08 55.90 57.13 58.15 59.84 60.00 60.24 60.41 60.34 60.59 60.34 58.58 57.32 56.71 55.91 55.43 54.02 54.30 53.30 52.91 52.30 52.03 51.34
55.86 56.28 57.02 57.39 57.55 57.56 57.93 57.70 57.84 58.03 57.89 57.95 58.82 58.71 59.89 59.39 59.20 59.99 60.42 59.06 57.87 57.62 57.00 56.67 56.62 55.96 55.39 54.84 54.72 53.96 53.22 51.96

GFSFLT2_sfc_wetblb_114.txt.gz
Wetbulb
66.80 68.03 69.31 69.60 69.15 69.22 69.22 69.31 69.32 69.29 68.99 68.32 67.90 67.68 67.46 67.71 67.90 68.32 68.39 68.13 68.19 67.90 67.57 66.14 66.56 65.56 64.63 63.34 62.66 62.26 58.18 59.59
66.94 67.71 68.66 68.91 69.40 68.34 68.07 68.39 68.36 68.22 68.09 67.72 66.64 65.86 65.99 67.37 66.87 67.24 67.92 67.98 67.75 67.45 66.01 65.20 65.61 64.55 63.63 62.73 62.36 61.62 58.34 58.57
64.70 66.77 67.35 68.18 68.87 68.90 68.43 68.34 67.83 66.95 67.07 66.55 64.57 63.82 64.44 66.19 66.20 66.70 67.26 67.03 66.90 66.45 65.07 64.04 64.35 63.73 63.05 62.31 60.51 58.06 58.79 58.96
63.48 64.77 65.95 66.56 67.20 67.06 68.91 68.97 68.23 66.30 65.28 65.50 65.13 64.70 64.79 64.86 65.44 66.07 66.45 66.39 66.17 65.57 63.86 63.41 63.10 61.46 61.33 60.84 58.42 58.57 58.90 58.95
62.36 62.81 62.72 62.85 64.32 65.36 64.60 65.31 67.12 66.05 64.34 64.66 65.10 64.40 64.32 63.90 64.58 65.25 65.30 65.66 64.15 63.16 61.46 60.52 60.25 60.11 57.73 57.56 57.91 58.11 58.16 58.46
61.65 61.65 60.97 60.24 60.63 60.56 61.46 62.48 64.32 66.02 64.95 64.00 63.38 62.72 62.63 63.73 64.33 64.53 64.51 63.68 62.47 60.66 57.55 56.37 57.98 57.51 57.21 57.08 56.99 57.28 57.17 57.63
61.08 61.72 61.12 60.12 59.54 58.71 60.91 60.63 62.36 64.68 64.90 64.40 63.55 62.38 62.13 63.62 63.61 63.67 63.23 62.83 61.88 57.72 54.97 55.12 55.36 55.88 56.79 56.82 56.64 56.87 57.17 57.70
60.57 61.51 61.09 60.00 59.56 59.19 60.57 60.95 61.41 62.52 63.93 63.97 63.50 62.81 62.61 62.65 62.91 62.77 61.67 61.38 60.30 57.01 54.58 54.13 55.23 55.81 55.53 56.09 56.02 56.22 56.55 56.83
60.32 60.78 60.45 59.91 59.68 58.66 59.17 59.50 60.23 61.19 62.37 63.95 63.59 63.08 62.79 62.55 62.92 61.99 60.49 59.31 57.56 55.25 53.05 52.68 54.44 54.86 54.65 54.81 55.39 55.82 56.21 56.55
60.46 61.99 59.81 59.66 59.34 58.20 58.74 59.85 59.28 59.78 61.50 62.82 63.86 63.55 63.10 62.66 62.71 60.84 59.57 57.47 56.53 55.59 53.28 51.86 53.17 54.06 53.47 53.91 54.63 55.42 55.80 56.11
60.23 61.09 59.70 59.02 58.52 58.50 58.82 60.01 60.08 60.11 60.85 61.15 62.17 63.09 63.16 62.75 62.49 60.60 57.48 56.00 55.65 54.92 52.87 53.51 53.12 53.25 54.00 53.46 53.64 54.72 55.16 56.12
60.16 60.73 59.95 58.89 58.72 60.37 60.79 59.35 59.42 60.79 61.71 61.22 61.05 61.88 62.25 62.87 61.14 57.94 57.32 54.90 53.82 54.54 52.85 52.46 52.92 53.69 54.85 52.98 52.81 53.56 54.40 54.50
59.37 59.52 58.80 59.44 60.08 59.97 59.89 58.84 59.76 61.17 61.35 61.38 61.16 61.28 61.39 61.08 58.66 57.28 56.03 54.07 53.09 53.40 53.60 52.82 51.30 52.93 51.55 50.66 50.64 53.15 52.93 53.53
58.79 59.18 58.84 60.28 60.46 60.29 59.79 59.63 60.64 61.02 61.06 61.03 61.02 61.55 60.24 59.38 58.03 57.04 55.06 53.09 52.29 52.76 53.62 51.78 51.33 53.46 50.71 49.63 48.41 50.11 51.88 52.86
58.44 58.55 59.17 59.68 59.64 59.90 59.71 59.83 60.15 60.22 60.65 60.22 61.04 61.32 59.88 58.62 57.95 56.83 55.00 52.66 51.90 52.55 53.67 53.56 51.31 51.03 54.09 50.42 46.22 47.17 48.93 49.65
57.53 58.35 59.12 57.46 57.54 59.16 58.99 58.39 57.69 59.58 59.68 61.22 60.74 61.48 60.37 58.75 57.78 56.80 54.92 52.92 51.84 52.82 54.25 54.18 52.55 50.95 50.63 50.95 50.62 49.30 47.62 45.67
57.00 58.59 58.38 57.52 57.32 57.87 58.51 57.79 58.55 59.75 60.33 60.16 61.28 61.53 61.02 59.69 58.12 57.24 55.36 54.45 52.64 53.48 54.31 54.33 53.17 53.29 51.09 50.40 50.36 50.48 49.18 47.15
57.43 57.34 57.57 57.44 56.53 54.89 55.77 54.55 57.30 58.78 59.38 59.52 60.18 61.15 61.36 60.88 58.91 57.98 56.33 55.48 54.05 53.87 55.87 55.02 54.00 54.51 52.51 51.49 50.93 50.30 49.66 48.56
56.77 56.86 56.91 57.36 56.43 55.81 54.25 54.16 56.61 57.79 58.79 59.48 59.54 60.04 60.47 60.76 60.55 58.60 57.95 56.21 57.07 55.51 56.41 55.14 53.94 53.61 52.44 52.29 52.70 52.14 52.29 51.33
56.28 56.20 56.57 56.71 56.65 56.41 56.15 54.70 55.35 55.01 55.76 57.69 58.81 59.99 60.54 61.14 61.37 60.06 59.00 57.66 58.29 57.28 56.43 56.08 54.93 54.31 53.96 54.23 53.89 53.33 53.10 52.19

GFSFLT2_sfc_wetblb_117.txt.gz
Wetbulb
70.85 70.71 70.36 69.42 69.29 69.42 69.09 69.47 69.62 69.10 69.61 68.92 69.29 68.38 67.95 68.25 68.41 68.60 68.40 68.34 68.48 67.77 67.84 67.33 66.83 65.92 64.84 63.87 63.10 64.16 65.67 65.48
69.78 69.54 69.61 71.43 71.23 68.41 68.39 68.21 68.41 68.54 68.49 67.93 67.08 67.06 67.45 67.76 67.91 68.07 68.29 68.12 67.86 67.89 67.22 66.66 65.95 64.77 63.89 62.88 62.55 63.06 64.96 64.69
69.59 68.18 68.62 69.21 70.58 70.38 68.86 68.55 68.05 67.60 67.86 66.97 66.12 68.46 68.54 67.67 66.27 66.90 67.72 67.53 67.38 66.73 66.19 65.62 64.55 63.67 63.23 62.51 62.34 64.07 64.32 64.07
68.21 67.64 68.06 68.46 68.81 69.81 71.09 69.68 71.22 70.95 70.10 69.05 69.25 67.84 67.63 67.03 66.22 66.47 67.36 66.83 66.50 65.72 65.26 64.86 64.15 64.78 63.68 62.02 63.71 63.75 63.54 63.27
67.69 66.70 67.46 67.47 67.91 68.92 70.18 69.85 69.78 69.32 70.07 69.68 68.37 66.31 66.30 67.28 67.23 67.96 68.31 66.82 65.89 65.37 64.97 65.77 65.57 64.74 63.80 63.20 63.27 63.06 63.38 62.88
67.06 67.62 66.53 66.71 67.20 67.89 68.54 69.21 68.35 67.62 67.36 67.97 66.44 65.68 66.41 66.02 66.98 67.45 67.34 66.99 65.85 65.36 64.77 64.78 65.00 64.47 63.16 62.90 62.68 62.63 62.58 62.28
66.39 67.30 67.41 66.37 65.64 66.03 66.35 66.77 67.11 67.29 66.12 65.26 65.41 65.64 65.86 63.85 64.48 65.41 65.87 65.28 65.67 64.11 63.09 62.28 63.09 62.55 62.34 62.36 61.85 62.15 61.92 62.00
65.69 66.63 67.10 67.07 66.53 65.84 64.89 64.80 65.34 65.94 65.75 64.78 65.57 65.73 65.46 64.50 63.79 64.30 64.48 64.27 64.91 62.76 61.45 60.43 61.87 62.24 61.94 61.80 61.70 61.91 61.90 62.36
64.24 65.44 66.73 65.85 65.69 65.39 63.80 63.80 64.57 65.97 66.79 65.22 64.70 64.37 63.50 64.17 63.18 63.31 63.43 63.19 61.72 60.94 60.88 60.73 61.28 61.84 61.45 61.17 60.93 61.10 61.49 62.07
63.67 64.05 65.18 65.53 65.14 64.57 62.30 62.69 63.26 63.66 64.26 64.81 64.47 64.46 63.85 63.21 62.83 62.70 62.33 61.32 60.53 58.78 60.68 59.62 60.49 60.83 60.26 60.31 60.04 60.70 61.26 61.91
61.92 63.80 64.35 64.94 64.97 64.15 62.64 62.31 61.42 61.42 62.33 63.38 64.12 63.99 64.13 63.54 62.64 62.29 60.48 59.53 59.25 60.04 60.28 60.35 59.30 59.86 59.86 59.74 60.17 60.05 60.77 60.94
61.77 63.68 63.82 64.40 64.16 62.85 62.39 61.78 60.95 60.85 61.22 62.15 62.74 63.68 63.43 62.94 62.74 61.10 59.77 58.67 58.78 59.31 59.52 59.92 59.72 59.49 58.24 58.18 59.53 59.95 60.44 60.58
62.09 62.77 63.12 62.92 61.42 60.40 60.15 59.30 59.20 60.35 61.42 62.18 63.01 62.89 62.82 62.83 62.48 59.86 59.70 57.87 59.37 60.72 59.17 58.56 58.54 59.84 57.48 57.01 57.79 58.85 59.40 59.62
61.97 62.47 61.71 63.07 62.83 62.11 62.20 60.83 61.20 60.76 62.34 62.76 62.69 62.68 61.59 62.02 61.60 59.35 58.55 57.77 57.55 57.94 58.74 58.06 58.24 58.95 57.46 56.62 53.09 55.18 57.42 58.31
61.23 62.15 61.00 63.05 63.48 62.66 62.70 61.65 61.47 61.17 61.48 61.37 61.58 61.16 61.60 60.43 60.12 59.35 57.91 56.37 55.78 58.43 58.96 58.56 56.21 57.97 59.40 57.66 53.45 53.21 54.40 57.10
61.84 61.47 61.09 61.68 62.74 62.04 61.18 59.71 58.35 60.16 61.30 60.99 61.33 60.44 59.69 59.58 59.43 57.91 56.56 56.22 55.61 58.28 57.83 57.89 57.31 56.45 57.86 57.18 59.58 57.36 54.38 51.18
61.57 61.16 60.26 59.87 60.72 61.42 61.46 59.50 59.80 62.46 62.13 60.64 61.67 61.27 59.34 59.15 58.15 57.10 55.27 55.39 57.12 57.04 58.47 59.03 59.61 58.59 57.49 56.06 56.14 56.06 56.87 54.91
60.12 60.10 58.90 58.60 59.64 60.39 60.64 59.60 59.20 60.35 60.97 60.07 61.22 60.96 60.02 59.41 57.84 56.86 55.37 55.12 55.63 56.53 57.29 58.49 58.85 59.42 59.49 57.81 56.36 55.23 54.40 54.47
58.09 58.55 57.68 58.41 58.81 59.51 59.71 60.26 61.31 60.92 60.54 60.95 59.66 60.58 60.81 59.46 59.08 57.30 56.55 56.35 55.79 56.24 57.31 57.88 58.48 58.48 58.75 57.92 58.06 57.55 57.11 56.61
56.94 57.11 57.30 57.79 58.77 59.30 60.71 61.51 61.03 61.31 61.22 61.38 60.81 60.28 60.52 61.28 60.23 59.68 57.86 56.78 55.41 56.51 57.60 57.47 58.41 58.92 58.58 58.45 57.94 56.61 57.12 56.48

GFSFLT2_sfc_wetblb_120.txt.gz
Wetbulb
73.55 72.20 71.52 69.32 69.50 69.73 69.43 69.36 69.54 69.91 70.43 70.15 69.30 68.58 68.56 68.59 68.75 69.40 69.19 69.29 69.25 69.02 68.37 67.59 67.14 66.25 65.43 64.65 64.58 65.47 67.27 66.48
73.20 72.82 71.52 72.54 71.74 68.76 68.47 68.65 68.36 68.85 69.25 68.35 67.70 67.74 67.65 68.17 68.27 68.79 68.81 68.78 68.76 68.43 67.52 66.72 66.18 65.05 64.10 63.57 63.66 64.51 66.26 65.92
73.43 72.90 71.74 72.34 71.63 71.34 69.14 68.81 68.65 68.13 68.74 67.57 66.96 70.91 70.41 69.36 67.82 67.57 68.54 68.04 67.95 67.59 66.70 65.76 64.79 64.01 63.66 63.18 63.38 65.67 65.85 65.40
72.93 72.89 72.22 71.62 71.08 71.54 71.84 71.74 72.68 72.75 72.60 71.67 70.75 71.12 70.54 69.01 67.59 67.06 67.74 67.28 67.26 66.79 65.83 64.74 64.84 66.54 65.37 63.32 65.64 66.01 65.18 64.86
71.90 71.90 72.33 71.57 70.63 70.83 71.37 71.03 72.06 71.78 72.11 72.21 71.45 70.51 70.56 68.90 68.15 68.14 68.56 67.47 66.16 66.78 66.24 66.97 67.72 66.43 65.55 65.37 65.78 65.67 64.83 64.60
71.52 71.73 70.27 70.78 70.05 70.03 70.56 71.96 71.09 72.32 71.70 72.19 71.47 69.71 68.76 67.82 67.56 66.26 68.05 68.18 67.54 67.27 65.87 66.63 66.27 65.67 65.66 65.48 65.85 64.85 64.39 63.62
69.74 71.57 70.38 69.60 69.39 69.72 69.77 70.51 71.63 71.66 71.40 71.44 71.12 69.26 68.09 67.64 66.62 67.51 66.87 68.12 68.13 66.08 65.54 65.55 65.78 65.04 64.87 65.85 65.04 64.59 63.90 63.34
68.73 70.11 71.01 70.10 68.39 68.73 68.80 69.62 70.44 70.38 69.93 70.12 70.86 69.14 67.30 65.50 65.17 68.37 65.54 66.71 66.87 64.96 65.47 65.36 65.61 65.52 65.02 65.36 64.75 63.84 63.38 63.57
65.36 67.81 70.14 70.74 70.12 67.87 67.55 68.23 68.55 69.52 68.85 69.51 69.86 68.53 68.18 66.39 64.94 65.45 65.34 64.82 64.63 64.23 64.82 64.78 64.60 64.66 64.68 64.95 64.21 63.32 62.52 62.95
61.99 64.24 67.61 69.73 70.22 70.64 68.50 67.58 66.71 67.78 69.42 68.02 68.49 67.71 67.06 65.75 65.01 64.16 65.40 64.07 63.12 62.26 63.64 63.44 63.98 63.67 63.42 64.16 63.24 63.00 63.21 62.90
61.04 63.14 65.83 67.91 69.33 69.98 69.95 69.24 66.99 66.80 69.18 68.41 66.89 66.29 66.62 64.74 64.63 63.58 64.87 62.70 61.43 60.70 62.19 63.86 63.15 63.20 63.08 63.14 62.57 62.57 63.06 62.29
60.90 61.13 64.63 67.03 68.42 68.86 67.81 65.76 64.52 65.52 66.57 66.89 67.66 66.36 64.78 64.54 63.92 63.30 63.30 61.60 60.27 60.36 60.57 63.49 63.58 63.52 61.71 60.75 62.33 62.77 63.06 62.38
63.14 63.42 65.08 66.51 66.02 65.55 63.68 62.38 62.17 62.81 64.25 65.19 64.22 65.58 64.74 63.80 63.27 62.67 61.59 60.51 60.05 60.82 60.78 63.10 62.13 63.19 61.05 59.94 60.45 62.42 62.55 61.14
63.81 64.38 65.61 66.34 65.03 64.85 64.48 63.70 63.56 63.59 62.87 64.20 63.52 64.13 64.87 63.67 63.20 62.00 61.06 60.06 59.64 59.85 60.45 61.56 61.99 63.28 59.54 59.28 54.88 57.27 60.11 60.72
63.60 64.62 65.28 65.41 66.14 64.26 65.06 64.18 63.92 61.61 62.11 62.10 63.09 65.02 65.42 64.39 63.21 61.49 60.40 60.01 58.39 58.83 60.10 59.66 60.34 61.73 62.86 59.15 55.52 54.19 57.40 60.30
64.18 64.57 64.52 62.96 64.53 63.44 64.31 63.47 62.56 63.55 63.46 63.79 64.41 65.09 64.51 62.96 62.15 61.65 60.23 59.96 59.03 58.45 59.49 60.50 62.80 60.40 61.95 61.30 61.54 60.40 56.24 54.75
64.17 64.15 62.38 62.52 63.44 65.41 65.10 64.92 64.68 64.61 62.41 63.09 63.88 62.15 62.27 63.00 61.63 59.62 59.75 59.37 59.36 58.90 59.31 62.54 62.99 61.64 61.39 60.18 60.69 60.87 60.59 57.86
61.89 61.72 61.48 61.82 62.76 64.79 64.93 65.16 63.93 63.56 62.70 63.26 63.31 60.50 60.12 60.25 58.90 58.37 57.99 58.25 58.20 58.35 58.91 61.48 62.50 62.79 61.66 61.39 59.95 58.59 58.61 58.43
60.44 59.15 59.64 60.17 60.81 62.83 63.96 63.84 63.72 62.72 62.98 62.84 62.52 60.73 58.86 58.18 58.31 56.96 56.72 57.02 57.35 58.30 58.31 61.90 62.02 62.47 62.27 61.73 61.09 60.14 60.18 59.31
60.84 60.41 58.76 59.61 59.78 60.85 62.61 63.44 62.44 62.32 63.20 62.91 62.30 61.31 60.69 60.00 58.58 57.47 55.92 55.88 56.59 57.03 57.86 60.81 62.49 62.99 62.71 62.58 61.29 60.96 60.92 60.04

GFSFLT2_sfc_wetblb_123.txt.gz
Wetbulb
74.04 72.98 71.57 69.87 70.00 70.23 69.49 69.78 69.94 70.72 70.59 70.46 70.68 69.05 67.75 68.26 68.67 68.58 68.70 68.73 69.00 69.24 68.54 67.58 67.68 66.92 66.38 65.45 65.22 66.16 66.95 67.33
73.98 73.54 73.14 72.61 72.69 69.18 68.56 68.60 68.62 69.50 69.94 69.26 68.18 67.88 67.61 68.43 68.25 68.33 69.06 69.39 69.00 68.86 67.62 66.86 66.19 65.68 65.21 64.45 64.26 65.00 67.09 65.41
74.10 73.71 73.28 73.58 73.06 71.93 69.46 68.70 68.47 68.50 69.70 68.05 67.17 71.11 70.14 69.66 68.18 68.24 69.20 68.73 68.57 68.11 66.84 66.04 64.99 64.64 64.48 64.08 63.99 65.27 65.54 64.97
73.45 73.92 73.37 73.33 71.46 72.73 72.33 72.36 72.06 72.02 72.56 72.57 72.33 72.14 71.30 69.84 68.24 66.98 68.20 67.95 67.80 66.93 66.06 64.54 64.99 66.00 64.59 64.03 65.81 65.28 64.97 65.25
72.35 73.48 73.85 73.21 71.90 71.60 71.52 71.94 71.92 71.95 72.35 72.86 72.76 70.92 71.43 70.65 70.45 68.38 69.23 67.44 68.40 67.45 65.81 67.27 67.75 67.09 65.94 65.88 65.15 65.68 64.60 65.26
71.74 73.01 73.31 73.05 72.57 70.93 71.51 71.81 72.19 72.28 72.03 73.76 72.61 71.45 71.56 69.62 70.01 69.43 68.10 68.35 68.25 67.21 66.20 65.78 67.09 67.08 65.57 64.70 65.82 64.59 64.16 65.09
70.43 72.61 72.94 72.44 72.62 70.80 71.15 72.29 71.57 72.18 72.54 73.47 73.03 71.07 69.98 69.88 69.52 67.44 67.63 68.90 67.01 67.14 66.43 66.89 66.20 64.91 64.53 64.88 65.12 64.77 64.21 63.86
69.03 70.79 72.46 72.36 71.60 70.23 70.63 72.59 72.46 72.14 72.61 72.12 73.37 71.54 70.83 68.97 68.87 69.07 68.07 68.48 67.10 65.44 66.84 63.81 64.63 65.08 64.49 63.77 64.66 64.29 63.48 63.73
65.97 68.65 70.58 72.03 71.02 69.69 69.91 71.40 72.16 72.09 72.16 73.44 72.66 71.87 70.74 69.61 68.10 68.57 67.43 66.32 64.84 64.54 66.51 63.29 63.15 64.18 63.86 63.81 64.17 63.84 62.64 63.03
61.79 61.80 68.37 70.80 71.82 70.40 68.72 69.71 70.47 71.73 71.36 71.05 71.89 71.97 70.57 69.84 68.10 67.50 66.87 65.15 64.07 63.30 63.01 62.53 63.28 64.14 63.77 62.45 63.26 62.68 62.23 62.89
61.36 63.37 66.06 69.28 70.87 71.35 70.66 68.53 68.25 69.36 71.17 70.42 68.94 70.23 69.98 68.71 67.47 66.02 66.37 66.15 63.60 62.65 62.08 61.81 63.19 62.97 63.35 62.58 63.61 62.09 62.13 61.66
63.55 63.13 65.31 66.75 69.25 70.86 71.08 69.94 68.54 67.17 68.64 70.34 70.12 70.03 69.30 68.44 66.52 65.54 66.39 64.08 62.82 61.86 60.88 61.87 63.76 63.63 62.25 61.21 61.60 61.92 62.46 62.28
63.33 63.60 65.50 64.02 65.06 66.84 68.79 68.61 66.87 65.59 66.91 70.14 69.18 68.07 68.65 66.39 66.21 64.79 63.81 62.29 61.27 61.26 60.62 59.97 62.04 62.93 61.30 59.14 60.46 61.56 62.23 61.57
64.88 64.70 65.02 65.13 65.25 66.92 68.40 67.98 63.77 63.92 65.37 67.64 68.31 67.84 66.61 66.35 65.58 63.33 63.65 61.83 60.82 60.39 60.13 59.01 59.52 62.63 59.88 57.39 54.76 57.01 59.41 60.95
64.75 64.74 65.49 66.17 66.81 67.21 65.40 64.32 63.38 62.48 63.80 64.33 66.45 65.98 66.77 66.22 64.90 63.26 62.42 61.95 60.36 60.17 60.24 59.05 57.83 60.45 61.87 59.32 54.91 53.92 56.47 59.18
65.39 65.56 65.64 66.35 67.17 66.34 63.87 62.22 61.35 61.87 62.78 63.76 65.52 65.69 65.69 65.59 65.68 63.75 61.78 61.76 60.40 60.26 60.70 59.98 59.09 58.62 61.09 62.04 62.04 60.38 56.02 54.24
63.71 65.52 65.51 65.61 65.65 65.93 63.81 62.88 64.59 64.95 65.59 64.15 64.28 65.03 65.76 65.98 65.68 63.91 61.75 60.92 60.50 60.24 60.19 59.54 59.79 59.80 60.68 60.24 61.22 61.59 60.90 57.59
62.42 63.01 62.95 62.82 63.35 64.05 63.64 63.31 64.85 64.64 64.15 63.50 64.30 65.14 65.02 64.94 64.63 63.16 62.43 60.55 59.81 59.90 60.15 59.21 59.41 60.26 61.18 62.06 61.07 59.73 57.92 59.42
62.38 62.00 61.56 62.10 62.51 63.47 63.66 64.41 64.06 65.10 63.35 63.26 63.75 61.80 61.49 62.01 62.11 60.71 60.30 60.28 59.69 59.45 59.40 59.12 58.99 59.50 59.65 61.43 62.41 61.05 62.24 61.37
60.79 61.86 61.29 61.03 62.41 62.17 62.43 64.11 64.15 65.19 64.73 64.04 64.23 62.77 61.42 61.47 60.11 59.05 59.01 58.46 58.60 59.22 59.30 59.21 59.25 59.38 59.39 61.81 62.48 61.78 62.47 61.29

GFSFLT2_sfc_wetblb_126.txt.gz
Wetbulb
71.71 70.68 70.50 70.19 70.38 69.95 69.58 70.14 70.01 70.60 70.94 71.11 70.78 69.62 67.92 67.52 67.96 67.50 67.37 68.13 68.79 69.09 68.73 68.04 68.06 67.58 66.86 65.97 65.24 66.29 64.57 66.16
72.18 71.56 70.79 71.12 71.02 69.26 68.69 68.89 69.04 69.66 70.36 69.87 68.58 67.77 66.87 67.14 68.21 68.38 68.82 68.79 68.59 69.05 67.91 67.37 66.86 65.89 65.80 65.01 64.42 65.41 63.05 64.81
73.18 71.91 71.28 71.54 71.32 70.80 68.79 68.88 68.85 69.13 69.84 68.90 67.12 69.68 67.20 68.13 67.57 67.55 68.66 68.45 68.75 67.30 66.65 66.05 65.49 64.95 64.04 64.45 64.20 63.40 63.52 65.00
73.23 72.49 71.78 71.95 71.07 71.24 70.91 70.57 70.17 70.33 70.68 70.23 70.91 70.38 69.20 68.12 67.43 66.98 68.43 68.31 67.78 66.88 65.93 64.95 65.10 64.67 63.18 63.64 62.64 63.10 64.07 63.31
72.22 72.98 72.50 71.87 70.26 71.63 70.54 70.75 70.48 70.45 70.88 71.12 70.73 70.58 69.82 68.12 68.26 67.20 68.13 67.21 67.17 66.36 64.90 64.90 66.34 64.93 63.84 63.26 63.09 63.93 63.12 62.52
71.61 72.66 72.45 71.60 71.39 70.38 70.48 70.34 70.33 70.21 70.09 70.82 70.62 70.04 69.24 68.53 67.23 67.36 67.02 66.70 66.37 65.74 64.78 65.23 65.37 65.25 64.32 63.60 62.51 62.75 62.60 61.85
70.69 72.08 72.15 71.54 71.51 70.14 69.71 70.11 70.21 70.35 70.43 70.50 70.99 69.75 68.52 67.96 67.44 66.94 66.32 66.22 65.90 65.36 65.08 64.50 64.75 64.94 64.26 61.73 62.74 62.40 62.04 61.24
70.80 70.90 71.98 71.77 70.70 70.34 69.14 69.79 70.53 70.55 70.59 70.37 71.04 69.96 68.77 68.03 67.64 66.83 65.87 65.89 65.96 65.54 64.76 64.13 63.63 63.71 61.86 61.54 62.03 61.76 61.79 60.58
68.62 70.25 71.72 71.27 70.84 71.16 69.49 69.38 70.75 69.81 69.92 71.26 70.67 70.62 69.60 68.03 67.18 66.50 65.80 65.67 65.36 64.95 63.42 63.65 62.80 63.15 61.98 61.67 62.01 61.50 60.19 60.58
66.07 68.10 68.98 71.20 70.44 69.96 68.84 68.55 69.89 70.50 69.95 70.44 70.79 70.69 69.52 68.17 67.02 66.43 66.38 65.34 64.08 63.45 62.69 61.71 61.65 61.29 61.41 60.45 61.63 60.36 59.82 60.50
62.49 63.73 67.10 68.24 69.95 69.67 68.81 68.45 68.57 69.33 70.60 70.26 70.20 70.26 69.40 68.22 66.99 66.50 66.16 64.44 63.13 62.41 62.25 61.91 60.73 60.83 61.28 61.16 60.05 58.81 58.63 61.03
61.43 61.80 62.42 64.39 67.83 69.55 69.27 68.51 68.07 68.50 68.37 69.93 69.21 68.97 69.33 68.23 67.18 66.40 65.83 63.89 62.78 62.23 61.53 61.71 61.43 61.22 61.42 60.14 59.18 58.87 58.13 57.75
62.56 62.84 62.99 62.68 63.68 65.19 66.54 67.19 67.28 67.22 67.39 67.84 69.11 68.01 68.34 68.18 66.63 65.54 65.27 63.50 62.46 62.23 61.59 60.25 59.92 61.15 59.49 57.43 58.74 59.21 59.05 57.62
62.27 63.69 63.92 64.20 61.89 61.43 64.78 66.59 68.51 67.40 66.80 66.93 67.32 68.34 68.10 67.35 65.85 64.66 64.72 63.22 62.19 61.78 60.95 59.40 59.51 60.21 57.84 56.52 52.80 55.89 57.96 58.53
63.39 64.24 64.28 64.31 63.81 62.73 65.00 65.84 64.83 63.17 64.02 64.79 66.05 67.09 66.65 66.34 65.99 64.26 63.77 62.79 61.32 61.18 60.53 59.35 57.17 58.74 59.66 56.23 52.10 51.03 54.61 57.15
63.76 64.26 65.01 64.99 65.49 64.00 64.08 63.02 61.57 62.45 63.01 63.47 64.21 65.59 65.32 65.41 65.03 63.85 63.04 62.74 61.23 61.05 61.00 60.00 58.48 56.92 59.29 58.93 57.06 56.04 52.66 51.73
62.55 63.34 63.61 65.15 65.06 64.86 64.88 63.11 63.33 63.03 62.77 62.11 62.80 63.78 64.32 64.50 64.50 63.84 62.56 62.56 61.37 60.94 60.72 60.08 59.22 57.80 58.22 57.65 57.13 57.23 56.23 53.40
62.39 61.92 61.65 62.77 62.56 62.58 64.47 63.33 62.42 61.56 61.84 61.70 62.08 62.68 63.75 63.71 63.56 63.92 62.65 61.99 61.42 60.71 60.75 60.36 59.31 58.54 59.00 58.56 57.45 56.11 54.98 54.10
58.92 59.74 60.31 62.21 62.51 62.57 63.03 63.55 63.31 62.80 63.18 62.74 62.14 62.54 62.90 62.96 63.49 63.54 62.32 61.40 61.18 60.89 60.42 60.40 59.13 58.59 58.92 58.45 58.81 58.11 58.19 56.97
58.34 58.00 59.45 61.49 61.57 61.31 62.34 62.93 63.44 63.55 63.04 62.78 62.45 62.65 62.01 61.79 61.69 61.69 61.75 61.19 60.69 60.36 60.14 60.14 59.63 58.78 59.22 59.11 59.04 58.60 59.06 58.29